<?xml version="1.0" encoding="UTF-8" standalone="no" ?>
<gpx xmlns="http://www.topografix.com/GPX/1/1" xmlns:xsi="http://www.w3.org/2001/XMLSchema-instance" xsi:schemaLocation="http://www.topografix.com/GPX/1/1 http://www.topografix.com/GPX/1/1/gpx.xsd" version="1.1" creator="VisuGPX - https://www.visugpx.com">
  <metadata>
    <name>Plouarzel - Belgrade</name>
    <desc><![CDATA[Arrivée à Belgrade le 11 juillet. 66 jours pédalés. 7 jours de repos.
]]></desc>
  </metadata>
  <trk>
    <name><![CDATA[Sortie à vélo]]></name>
    <extensions>
      <line xmlns="http://www.topografix.com/GPX/gpx_style/0/2">
        <color>0000FF</color>
        <width>4</width>
      </line>
    </extensions>
    <trkseg>
      <trkpt lat="47.59773" lon="-2.1011">
        <ele>55.721516</ele>
        <time>2023-05-06T10:00:30.120Z</time>
      </trkpt>
      <trkpt lat="47.59783" lon="-2.10115">
        <ele>55.721516</ele>
        <time>2023-05-06T10:00:36.048Z</time>
      </trkpt>
      <trkpt lat="47.59794" lon="-2.10114">
        <ele>55.721516</ele>
        <time>2023-05-06T10:00:41.036Z</time>
      </trkpt>
      <trkpt lat="47.59803" lon="-2.10117">
        <ele>55.721516</ele>
        <time>2023-05-06T10:00:44.048Z</time>
      </trkpt>
      <trkpt lat="47.59801" lon="-2.10101">
        <ele>55.721516</ele>
        <time>2023-05-06T10:01:56.052Z</time>
      </trkpt>
      <trkpt lat="47.5981" lon="-2.10094">
        <ele>55.721516</ele>
        <time>2023-05-06T10:02:02.051Z</time>
      </trkpt>
      <trkpt lat="47.59813" lon="-2.1008">
        <ele>55.721516</ele>
        <time>2023-05-06T10:02:09.050Z</time>
      </trkpt>
      <trkpt lat="47.59811" lon="-2.10066">
        <ele>55.721516</ele>
        <time>2023-05-06T10:02:13.049Z</time>
      </trkpt>
      <trkpt lat="47.59806" lon="-2.10052">
        <ele>55.721516</ele>
        <time>2023-05-06T10:02:17.066Z</time>
      </trkpt>
      <trkpt lat="47.59792" lon="-2.10037">
        <ele>56.250261</ele>
        <time>2023-05-06T10:04:29.058Z</time>
      </trkpt>
      <trkpt lat="47.59787" lon="-2.10024">
        <ele>56.748632</ele>
        <time>2023-05-06T10:04:32.054Z</time>
      </trkpt>
      <trkpt lat="47.59792" lon="-2.10009">
        <ele>57.290077</ele>
        <time>2023-05-06T10:04:35.049Z</time>
      </trkpt>
      <trkpt lat="47.59801" lon="-2.10003">
        <ele>57.782687</ele>
        <time>2023-05-06T10:04:38.054Z</time>
      </trkpt>
      <trkpt lat="47.59809" lon="-2.09999">
        <ele>58.232329</ele>
        <time>2023-05-06T10:04:42.047Z</time>
      </trkpt>
      <trkpt lat="47.59818" lon="-2.1">
        <ele>58.696091</ele>
        <time>2023-05-06T10:04:48.047Z</time>
      </trkpt>
      <trkpt lat="47.59823" lon="-2.10014">
        <ele>59.198136</ele>
        <time>2023-05-06T10:04:56.055Z</time>
      </trkpt>
      <trkpt lat="47.59826" lon="-2.10027">
        <ele>59.668793</ele>
        <time>2023-05-06T10:05:03.062Z</time>
      </trkpt>
      <trkpt lat="47.59828" lon="-2.1004">
        <ele>60.136916</ele>
        <time>2023-05-06T10:05:10.054Z</time>
      </trkpt>
      <trkpt lat="47.5983" lon="-2.10056">
        <ele>60.662571</ele>
        <time>2023-05-06T10:05:16.049Z</time>
      </trkpt>
      <trkpt lat="47.59832" lon="-2.1007">
        <ele>61.166511</ele>
        <time>2023-05-06T10:05:23.051Z</time>
      </trkpt>
      <trkpt lat="47.5983" lon="-2.10084">
        <ele>61.6391</ele>
        <time>2023-05-06T10:05:30.053Z</time>
      </trkpt>
      <trkpt lat="47.59833" lon="-2.10099">
        <ele>62.150625</ele>
        <time>2023-05-06T10:05:36.049Z</time>
      </trkpt>
      <trkpt lat="47.59834" lon="-2.10112">
        <ele>62.61547</ele>
        <time>2023-05-06T10:05:42.056Z</time>
      </trkpt>
      <trkpt lat="47.59835" lon="-2.10128">
        <ele>63.135917</ele>
        <time>2023-05-06T10:05:49.045Z</time>
      </trkpt>
      <trkpt lat="47.59837" lon="-2.10141">
        <ele>63.594263</ele>
        <time>2023-05-06T10:05:54.055Z</time>
      </trkpt>
      <trkpt lat="47.59838" lon="-2.10156">
        <ele>64.105919</ele>
        <time>2023-05-06T10:06:00.054Z</time>
      </trkpt>
      <trkpt lat="47.59838" lon="-2.10169">
        <ele>64.556671</ele>
        <time>2023-05-06T10:06:05.058Z</time>
      </trkpt>
      <trkpt lat="47.59838" lon="-2.10183">
        <ele>64.689117</ele>
        <time>2023-05-06T10:06:10.065Z</time>
      </trkpt>
      <trkpt lat="47.59837" lon="-2.10197">
        <ele>64.62157</ele>
        <time>2023-05-06T10:06:15.048Z</time>
      </trkpt>
      <trkpt lat="47.59836" lon="-2.1021">
        <ele>64.553221</ele>
        <time>2023-05-06T10:06:20.053Z</time>
      </trkpt>
      <trkpt lat="47.59835" lon="-2.10223">
        <ele>64.485677</ele>
        <time>2023-05-06T10:06:25.051Z</time>
      </trkpt>
      <trkpt lat="47.59834" lon="-2.10237">
        <ele>64.416208</ele>
        <time>2023-05-06T10:06:30.059Z</time>
      </trkpt>
      <trkpt lat="47.59833" lon="-2.10251">
        <ele>64.345848</ele>
        <time>2023-05-06T10:06:35.049Z</time>
      </trkpt>
      <trkpt lat="47.59833" lon="-2.10265">
        <ele>64.273945</ele>
        <time>2023-05-06T10:06:40.055Z</time>
      </trkpt>
      <trkpt lat="47.59835" lon="-2.1028">
        <ele>64.198971</ele>
        <time>2023-05-06T10:06:45.050Z</time>
      </trkpt>
      <trkpt lat="47.59836" lon="-2.10295">
        <ele>64.118545</ele>
        <time>2023-05-06T10:06:50.057Z</time>
      </trkpt>
      <trkpt lat="47.59839" lon="-2.10321">
        <ele>63.986931</ele>
        <time>2023-05-06T10:08:53.050Z</time>
      </trkpt>
      <trkpt lat="47.59843" lon="-2.10335">
        <ele>63.911456</ele>
        <time>2023-05-06T10:08:57.054Z</time>
      </trkpt>
      <trkpt lat="47.59848" lon="-2.10347">
        <ele>63.839602</ele>
        <time>2023-05-06T10:09:01.048Z</time>
      </trkpt>
      <trkpt lat="47.59853" lon="-2.10359">
        <ele>63.770211</ele>
        <time>2023-05-06T10:09:05.058Z</time>
      </trkpt>
      <trkpt lat="47.59861" lon="-2.10365">
        <ele>63.699254</ele>
        <time>2023-05-06T10:09:09.060Z</time>
      </trkpt>
      <trkpt lat="47.59871" lon="-2.10366">
        <ele>63.62253</ele>
        <time>2023-05-06T10:09:12.053Z</time>
      </trkpt>
      <trkpt lat="47.59884" lon="-2.10365">
        <ele>63.522601</ele>
        <time>2023-05-06T10:09:15.049Z</time>
      </trkpt>
      <trkpt lat="47.59894" lon="-2.10367">
        <ele>63.446478</ele>
        <time>2023-05-06T10:09:17.056Z</time>
      </trkpt>
      <trkpt lat="47.59905" lon="-2.1037">
        <ele>63.266165</ele>
        <time>2023-05-06T10:09:19.049Z</time>
      </trkpt>
      <trkpt lat="47.59915" lon="-2.10371">
        <ele>62.707932</ele>
        <time>2023-05-06T10:09:21.053Z</time>
      </trkpt>
      <trkpt lat="47.59925" lon="-2.10371">
        <ele>62.119428</ele>
        <time>2023-05-06T10:09:23.054Z</time>
      </trkpt>
      <trkpt lat="47.59937" lon="-2.10373">
        <ele>61.462113</ele>
        <time>2023-05-06T10:09:25.052Z</time>
      </trkpt>
      <trkpt lat="47.59949" lon="-2.10374">
        <ele>60.814784</ele>
        <time>2023-05-06T10:09:27.054Z</time>
      </trkpt>
      <trkpt lat="47.59961" lon="-2.10376">
        <ele>60.117384</ele>
        <time>2023-05-06T10:09:29.056Z</time>
      </trkpt>
      <trkpt lat="47.59974" lon="-2.10378">
        <ele>59.382897</ele>
        <time>2023-05-06T10:09:31.058Z</time>
      </trkpt>
      <trkpt lat="47.59989" lon="-2.1038">
        <ele>58.545138</ele>
        <time>2023-05-06T10:09:33.056Z</time>
      </trkpt>
      <trkpt lat="47.60005" lon="-2.10382">
        <ele>57.692997</ele>
        <time>2023-05-06T10:09:35.054Z</time>
      </trkpt>
      <trkpt lat="47.6002" lon="-2.10385">
        <ele>56.813437</ele>
        <time>2023-05-06T10:09:37.061Z</time>
      </trkpt>
      <trkpt lat="47.60035" lon="-2.10389">
        <ele>55.977116</ele>
        <time>2023-05-06T10:09:39.051Z</time>
      </trkpt>
      <trkpt lat="47.60049" lon="-2.10395">
        <ele>55.167932</ele>
        <time>2023-05-06T10:09:41.049Z</time>
      </trkpt>
      <trkpt lat="47.60063" lon="-2.10402">
        <ele>54.359656</ele>
        <time>2023-05-06T10:09:43.050Z</time>
      </trkpt>
      <trkpt lat="47.60075" lon="-2.10411">
        <ele>53.606675</ele>
        <time>2023-05-06T10:09:45.048Z</time>
      </trkpt>
      <trkpt lat="47.60087" lon="-2.1042">
        <ele>53.331382</ele>
        <time>2023-05-06T10:09:47.047Z</time>
      </trkpt>
      <trkpt lat="47.60099" lon="-2.10428">
        <ele>53.239338</ele>
        <time>2023-05-06T10:09:49.050Z</time>
      </trkpt>
      <trkpt lat="47.60109" lon="-2.10437">
        <ele>53.151732</ele>
        <time>2023-05-06T10:09:51.051Z</time>
      </trkpt>
      <trkpt lat="47.6012" lon="-2.10447">
        <ele>53.058296</ele>
        <time>2023-05-06T10:09:53.058Z</time>
      </trkpt>
      <trkpt lat="47.60132" lon="-2.10456">
        <ele>52.962334</ele>
        <time>2023-05-06T10:09:55.051Z</time>
      </trkpt>
      <trkpt lat="47.60143" lon="-2.10464">
        <ele>52.875889</ele>
        <time>2023-05-06T10:09:57.056Z</time>
      </trkpt>
      <trkpt lat="47.60154" lon="-2.10474">
        <ele>52.784581</ele>
        <time>2023-05-06T10:09:59.057Z</time>
      </trkpt>
      <trkpt lat="47.60164" lon="-2.10483">
        <ele>52.694848</ele>
        <time>2023-05-06T10:10:01.067Z</time>
      </trkpt>
      <trkpt lat="47.60175" lon="-2.10492">
        <ele>52.604642</ele>
        <time>2023-05-06T10:10:03.055Z</time>
      </trkpt>
      <trkpt lat="47.60186" lon="-2.10501">
        <ele>52.516873</ele>
        <time>2023-05-06T10:10:05.050Z</time>
      </trkpt>
      <trkpt lat="47.60197" lon="-2.10509">
        <ele>52.427835</ele>
        <time>2023-05-06T10:10:07.051Z</time>
      </trkpt>
      <trkpt lat="47.60208" lon="-2.10518">
        <ele>52.338159</ele>
        <time>2023-05-06T10:10:09.053Z</time>
      </trkpt>
      <trkpt lat="47.60219" lon="-2.10526">
        <ele>52.251024</ele>
        <time>2023-05-06T10:10:11.059Z</time>
      </trkpt>
      <trkpt lat="47.60229" lon="-2.10534">
        <ele>52.165251</ele>
        <time>2023-05-06T10:10:13.064Z</time>
      </trkpt>
      <trkpt lat="47.60239" lon="-2.10542">
        <ele>52.109505</ele>
        <time>2023-05-06T10:10:15.064Z</time>
      </trkpt>
      <trkpt lat="47.60249" lon="-2.1055">
        <ele>52.133728</ele>
        <time>2023-05-06T10:10:17.057Z</time>
      </trkpt>
      <trkpt lat="47.60258" lon="-2.10558">
        <ele>52.157611</ele>
        <time>2023-05-06T10:10:19.049Z</time>
      </trkpt>
      <trkpt lat="47.60267" lon="-2.10566">
        <ele>52.181421</ele>
        <time>2023-05-06T10:10:21.056Z</time>
      </trkpt>
      <trkpt lat="47.60276" lon="-2.10573">
        <ele>52.203975</ele>
        <time>2023-05-06T10:10:23.052Z</time>
      </trkpt>
      <trkpt lat="47.60285" lon="-2.10581">
        <ele>52.22658</ele>
        <time>2023-05-06T10:10:25.051Z</time>
      </trkpt>
      <trkpt lat="47.60295" lon="-2.10588">
        <ele>52.249839</ele>
        <time>2023-05-06T10:10:27.047Z</time>
      </trkpt>
      <trkpt lat="47.60304" lon="-2.10595">
        <ele>52.274148</ele>
        <time>2023-05-06T10:10:29.056Z</time>
      </trkpt>
      <trkpt lat="47.60313" lon="-2.10603">
        <ele>52.297497</ele>
        <time>2023-05-06T10:10:31.064Z</time>
      </trkpt>
      <trkpt lat="47.60323" lon="-2.10611">
        <ele>52.321911</ele>
        <time>2023-05-06T10:10:33.061Z</time>
      </trkpt>
      <trkpt lat="47.60332" lon="-2.10619">
        <ele>52.345795</ele>
        <time>2023-05-06T10:10:35.056Z</time>
      </trkpt>
      <trkpt lat="47.60343" lon="-2.10627">
        <ele>52.371035</ele>
        <time>2023-05-06T10:10:37.056Z</time>
      </trkpt>
      <trkpt lat="47.60352" lon="-2.10635">
        <ele>52.39461</ele>
        <time>2023-05-06T10:10:39.062Z</time>
      </trkpt>
      <trkpt lat="47.60361" lon="-2.10642">
        <ele>52.417737</ele>
        <time>2023-05-06T10:10:41.052Z</time>
      </trkpt>
      <trkpt lat="47.6037" lon="-2.10649">
        <ele>52.440662</ele>
        <time>2023-05-06T10:10:43.055Z</time>
      </trkpt>
      <trkpt lat="47.6038" lon="-2.10657">
        <ele>52.464279</ele>
        <time>2023-05-06T10:10:45.055Z</time>
      </trkpt>
      <trkpt lat="47.60389" lon="-2.10664">
        <ele>52.488059</ele>
        <time>2023-05-06T10:10:47.061Z</time>
      </trkpt>
      <trkpt lat="47.60399" lon="-2.10671">
        <ele>52.519261</ele>
        <time>2023-05-06T10:10:49.104Z</time>
      </trkpt>
      <trkpt lat="47.60407" lon="-2.10679">
        <ele>52.561588</ele>
        <time>2023-05-06T10:10:51.052Z</time>
      </trkpt>
      <trkpt lat="47.60417" lon="-2.10687">
        <ele>52.605342</ele>
        <time>2023-05-06T10:10:53.049Z</time>
      </trkpt>
      <trkpt lat="47.60426" lon="-2.10694">
        <ele>52.648029</ele>
        <time>2023-05-06T10:10:55.053Z</time>
      </trkpt>
      <trkpt lat="47.60435" lon="-2.10702">
        <ele>52.690809</ele>
        <time>2023-05-06T10:10:57.059Z</time>
      </trkpt>
      <trkpt lat="47.60445" lon="-2.1071">
        <ele>52.734602</ele>
        <time>2023-05-06T10:10:59.062Z</time>
      </trkpt>
      <trkpt lat="47.60454" lon="-2.10718">
        <ele>52.778458</ele>
        <time>2023-05-06T10:11:01.056Z</time>
      </trkpt>
      <trkpt lat="47.60463" lon="-2.10726">
        <ele>52.822741</ele>
        <time>2023-05-06T10:11:03.056Z</time>
      </trkpt>
      <trkpt lat="47.60472" lon="-2.10733">
        <ele>52.863809</ele>
        <time>2023-05-06T10:11:05.059Z</time>
      </trkpt>
      <trkpt lat="47.60481" lon="-2.10739">
        <ele>52.901117</ele>
        <time>2023-05-06T10:11:07.056Z</time>
      </trkpt>
      <trkpt lat="47.60492" lon="-2.10748">
        <ele>52.951423</ele>
        <time>2023-05-06T10:11:10.056Z</time>
      </trkpt>
      <trkpt lat="47.605" lon="-2.10754">
        <ele>52.989597</ele>
        <time>2023-05-06T10:11:12.050Z</time>
      </trkpt>
      <trkpt lat="47.60508" lon="-2.10761">
        <ele>53.029008</ele>
        <time>2023-05-06T10:11:14.050Z</time>
      </trkpt>
      <trkpt lat="47.60517" lon="-2.10767">
        <ele>53.06719</ele>
        <time>2023-05-06T10:11:16.060Z</time>
      </trkpt>
      <trkpt lat="47.60526" lon="-2.10775">
        <ele>53.108684</ele>
        <time>2023-05-06T10:11:18.041Z</time>
      </trkpt>
      <trkpt lat="47.60534" lon="-2.10782">
        <ele>53.147451</ele>
        <time>2023-05-06T10:11:20.058Z</time>
      </trkpt>
      <trkpt lat="47.60543" lon="-2.1079">
        <ele>53.187969</ele>
        <time>2023-05-06T10:11:22.055Z</time>
      </trkpt>
      <trkpt lat="47.60551" lon="-2.10797">
        <ele>53.227647</ele>
        <time>2023-05-06T10:11:24.058Z</time>
      </trkpt>
      <trkpt lat="47.6056" lon="-2.10804">
        <ele>53.315499</ele>
        <time>2023-05-06T10:11:26.056Z</time>
      </trkpt>
      <trkpt lat="47.60568" lon="-2.10812">
        <ele>53.402726</ele>
        <time>2023-05-06T10:11:28.054Z</time>
      </trkpt>
      <trkpt lat="47.60577" lon="-2.10819">
        <ele>53.49624</ele>
        <time>2023-05-06T10:11:30.058Z</time>
      </trkpt>
      <trkpt lat="47.60586" lon="-2.10826">
        <ele>53.584766</ele>
        <time>2023-05-06T10:11:32.053Z</time>
      </trkpt>
      <trkpt lat="47.60594" lon="-2.10832">
        <ele>53.673569</ele>
        <time>2023-05-06T10:11:34.060Z</time>
      </trkpt>
      <trkpt lat="47.60603" lon="-2.10839">
        <ele>53.764605</ele>
        <time>2023-05-06T10:11:36.059Z</time>
      </trkpt>
      <trkpt lat="47.60612" lon="-2.10846">
        <ele>53.85503</ele>
        <time>2023-05-06T10:11:38.060Z</time>
      </trkpt>
      <trkpt lat="47.60621" lon="-2.10853">
        <ele>53.948249</ele>
        <time>2023-05-06T10:11:40.059Z</time>
      </trkpt>
      <trkpt lat="47.60629" lon="-2.10861">
        <ele>54.035023</ele>
        <time>2023-05-06T10:11:42.055Z</time>
      </trkpt>
      <trkpt lat="47.60638" lon="-2.10869">
        <ele>54.127843</ele>
        <time>2023-05-06T10:11:44.055Z</time>
      </trkpt>
      <trkpt lat="47.60646" lon="-2.10876">
        <ele>54.213425</ele>
        <time>2023-05-06T10:11:46.055Z</time>
      </trkpt>
      <trkpt lat="47.60655" lon="-2.10883">
        <ele>54.303664</ele>
        <time>2023-05-06T10:11:48.060Z</time>
      </trkpt>
      <trkpt lat="47.60663" lon="-2.10889">
        <ele>54.39057</ele>
        <time>2023-05-06T10:11:50.057Z</time>
      </trkpt>
      <trkpt lat="47.60672" lon="-2.10896">
        <ele>54.481549</ele>
        <time>2023-05-06T10:11:52.050Z</time>
      </trkpt>
      <trkpt lat="47.60681" lon="-2.10903">
        <ele>54.570696</ele>
        <time>2023-05-06T10:11:54.057Z</time>
      </trkpt>
      <trkpt lat="47.6069" lon="-2.1091">
        <ele>54.666555</ele>
        <time>2023-05-06T10:11:56.056Z</time>
      </trkpt>
      <trkpt lat="47.60699" lon="-2.10917">
        <ele>54.759275</ele>
        <time>2023-05-06T10:11:58.056Z</time>
      </trkpt>
      <trkpt lat="47.60708" lon="-2.10925">
        <ele>54.849627</ele>
        <time>2023-05-06T10:12:00.048Z</time>
      </trkpt>
      <trkpt lat="47.60716" lon="-2.10932">
        <ele>54.897259</ele>
        <time>2023-05-06T10:12:02.047Z</time>
      </trkpt>
      <trkpt lat="47.60724" lon="-2.10939">
        <ele>54.93741</ele>
        <time>2023-05-06T10:12:04.055Z</time>
      </trkpt>
      <trkpt lat="47.60735" lon="-2.10949">
        <ele>54.990583</ele>
        <time>2023-05-06T10:12:07.052Z</time>
      </trkpt>
      <trkpt lat="47.60746" lon="-2.10958">
        <ele>55.042039</ele>
        <time>2023-05-06T10:12:10.051Z</time>
      </trkpt>
      <trkpt lat="47.60755" lon="-2.10967">
        <ele>55.088537</ele>
        <time>2023-05-06T10:12:13.054Z</time>
      </trkpt>
      <trkpt lat="47.60764" lon="-2.10974">
        <ele>55.131277</ele>
        <time>2023-05-06T10:12:16.058Z</time>
      </trkpt>
      <trkpt lat="47.60772" lon="-2.10981">
        <ele>55.171675</ele>
        <time>2023-05-06T10:12:19.055Z</time>
      </trkpt>
      <trkpt lat="47.60781" lon="-2.10988">
        <ele>55.212443</ele>
        <time>2023-05-06T10:12:22.054Z</time>
      </trkpt>
      <trkpt lat="47.6079" lon="-2.10995">
        <ele>55.255567</ele>
        <time>2023-05-06T10:12:25.052Z</time>
      </trkpt>
      <trkpt lat="47.60799" lon="-2.11003">
        <ele>55.299895</ele>
        <time>2023-05-06T10:12:28.052Z</time>
      </trkpt>
      <trkpt lat="47.60809" lon="-2.11008">
        <ele>55.342166</ele>
        <time>2023-05-06T10:12:31.061Z</time>
      </trkpt>
      <trkpt lat="47.60818" lon="-2.11015">
        <ele>55.384539</ele>
        <time>2023-05-06T10:12:34.060Z</time>
      </trkpt>
      <trkpt lat="47.60826" lon="-2.11021">
        <ele>55.424435</ele>
        <time>2023-05-06T10:12:37.060Z</time>
      </trkpt>
      <trkpt lat="47.60837" lon="-2.1103">
        <ele>55.474244</ele>
        <time>2023-05-06T10:12:41.053Z</time>
      </trkpt>
      <trkpt lat="47.60845" lon="-2.11037">
        <ele>55.514969</ele>
        <time>2023-05-06T10:12:44.052Z</time>
      </trkpt>
      <trkpt lat="47.60854" lon="-2.11044">
        <ele>55.556644</ele>
        <time>2023-05-06T10:12:47.067Z</time>
      </trkpt>
      <trkpt lat="47.60862" lon="-2.11052">
        <ele>55.598307</ele>
        <time>2023-05-06T10:12:50.056Z</time>
      </trkpt>
      <trkpt lat="47.60872" lon="-2.11059">
        <ele>55.676551</ele>
        <time>2023-05-06T10:12:53.058Z</time>
      </trkpt>
      <trkpt lat="47.60881" lon="-2.11067">
        <ele>55.783719</ele>
        <time>2023-05-06T10:12:56.054Z</time>
      </trkpt>
      <trkpt lat="47.6089" lon="-2.11075">
        <ele>55.886941</ele>
        <time>2023-05-06T10:12:59.051Z</time>
      </trkpt>
      <trkpt lat="47.60899" lon="-2.11082">
        <ele>55.989458</ele>
        <time>2023-05-06T10:13:02.059Z</time>
      </trkpt>
      <trkpt lat="47.60908" lon="-2.11089">
        <ele>56.093234</ele>
        <time>2023-05-06T10:13:05.052Z</time>
      </trkpt>
      <trkpt lat="47.60917" lon="-2.11097">
        <ele>56.195423</ele>
        <time>2023-05-06T10:13:08.050Z</time>
      </trkpt>
      <trkpt lat="47.60926" lon="-2.11105">
        <ele>56.299812</ele>
        <time>2023-05-06T10:13:11.058Z</time>
      </trkpt>
      <trkpt lat="47.60934" lon="-2.11114">
        <ele>56.400526</ele>
        <time>2023-05-06T10:13:14.042Z</time>
      </trkpt>
      <trkpt lat="47.60942" lon="-2.11122">
        <ele>56.503562</ele>
        <time>2023-05-06T10:13:17.059Z</time>
      </trkpt>
      <trkpt lat="47.60951" lon="-2.11131">
        <ele>56.60551</ele>
        <time>2023-05-06T10:13:20.055Z</time>
      </trkpt>
      <trkpt lat="47.60959" lon="-2.11139">
        <ele>56.706853</ele>
        <time>2023-05-06T10:13:23.057Z</time>
      </trkpt>
      <trkpt lat="47.60969" lon="-2.11148">
        <ele>56.822927</ele>
        <time>2023-05-06T10:13:27.059Z</time>
      </trkpt>
      <trkpt lat="47.60979" lon="-2.11158">
        <ele>56.942173</ele>
        <time>2023-05-06T10:13:31.056Z</time>
      </trkpt>
      <trkpt lat="47.60986" lon="-2.11165">
        <ele>57.034495</ele>
        <time>2023-05-06T10:13:34.054Z</time>
      </trkpt>
      <trkpt lat="47.60996" lon="-2.11175">
        <ele>57.15519</ele>
        <time>2023-05-06T10:13:38.049Z</time>
      </trkpt>
      <trkpt lat="47.61004" lon="-2.11183">
        <ele>57.251141</ele>
        <time>2023-05-06T10:13:41.051Z</time>
      </trkpt>
      <trkpt lat="47.61013" lon="-2.11191">
        <ele>57.353973</ele>
        <time>2023-05-06T10:13:44.047Z</time>
      </trkpt>
      <trkpt lat="47.61022" lon="-2.11199">
        <ele>57.411132</ele>
        <time>2023-05-06T10:13:47.054Z</time>
      </trkpt>
      <trkpt lat="47.6103" lon="-2.11207">
        <ele>57.38142</ele>
        <time>2023-05-06T10:13:50.055Z</time>
      </trkpt>
      <trkpt lat="47.61039" lon="-2.11216">
        <ele>57.350358</ele>
        <time>2023-05-06T10:13:53.060Z</time>
      </trkpt>
      <trkpt lat="47.61049" lon="-2.11224">
        <ele>57.317252</ele>
        <time>2023-05-06T10:13:56.060Z</time>
      </trkpt>
      <trkpt lat="47.6106" lon="-2.11231">
        <ele>57.281063</ele>
        <time>2023-05-06T10:13:59.056Z</time>
      </trkpt>
      <trkpt lat="47.61071" lon="-2.11239">
        <ele>57.243036</ele>
        <time>2023-05-06T10:14:02.060Z</time>
      </trkpt>
      <trkpt lat="47.61084" lon="-2.11245">
        <ele>57.203094</ele>
        <time>2023-05-06T10:14:05.052Z</time>
      </trkpt>
      <trkpt lat="47.61093" lon="-2.1125">
        <ele>57.175715</ele>
        <time>2023-05-06T10:14:07.060Z</time>
      </trkpt>
      <trkpt lat="47.61102" lon="-2.11252">
        <ele>57.148703</ele>
        <time>2023-05-06T10:14:09.049Z</time>
      </trkpt>
      <trkpt lat="47.61115" lon="-2.11255">
        <ele>57.109914</ele>
        <time>2023-05-06T10:14:12.053Z</time>
      </trkpt>
      <trkpt lat="47.61128" lon="-2.11256">
        <ele>57.07116</ele>
        <time>2023-05-06T10:14:15.050Z</time>
      </trkpt>
      <trkpt lat="47.6114" lon="-2.11255">
        <ele>57.034572</ele>
        <time>2023-05-06T10:14:18.053Z</time>
      </trkpt>
      <trkpt lat="47.61152" lon="-2.11255">
        <ele>56.999545</ele>
        <time>2023-05-06T10:14:21.058Z</time>
      </trkpt>
      <trkpt lat="47.61163" lon="-2.11254">
        <ele>56.968041</ele>
        <time>2023-05-06T10:14:24.056Z</time>
      </trkpt>
      <trkpt lat="47.61173" lon="-2.11252">
        <ele>56.937711</ele>
        <time>2023-05-06T10:14:27.061Z</time>
      </trkpt>
      <trkpt lat="47.61182" lon="-2.11248">
        <ele>56.908895</ele>
        <time>2023-05-06T10:14:30.050Z</time>
      </trkpt>
      <trkpt lat="47.61191" lon="-2.11245">
        <ele>56.89749</ele>
        <time>2023-05-06T10:14:33.057Z</time>
      </trkpt>
      <trkpt lat="47.61201" lon="-2.1124">
        <ele>56.939167</ele>
        <time>2023-05-06T10:14:36.055Z</time>
      </trkpt>
      <trkpt lat="47.61211" lon="-2.11234">
        <ele>56.982557</ele>
        <time>2023-05-06T10:14:39.048Z</time>
      </trkpt>
      <trkpt lat="47.61221" lon="-2.11229">
        <ele>57.026986</ele>
        <time>2023-05-06T10:14:42.055Z</time>
      </trkpt>
      <trkpt lat="47.61232" lon="-2.11224">
        <ele>57.071966</ele>
        <time>2023-05-06T10:14:45.057Z</time>
      </trkpt>
      <trkpt lat="47.61243" lon="-2.11219">
        <ele>57.117027</ele>
        <time>2023-05-06T10:14:48.057Z</time>
      </trkpt>
      <trkpt lat="47.61252" lon="-2.11214">
        <ele>57.159088</ele>
        <time>2023-05-06T10:14:51.052Z</time>
      </trkpt>
      <trkpt lat="47.61261" lon="-2.1121">
        <ele>57.195586</ele>
        <time>2023-05-06T10:14:54.051Z</time>
      </trkpt>
      <trkpt lat="47.61272" lon="-2.11205">
        <ele>57.2406</ele>
        <time>2023-05-06T10:14:58.052Z</time>
      </trkpt>
      <trkpt lat="47.6128" lon="-2.11201">
        <ele>57.278589</ele>
        <time>2023-05-06T10:15:01.042Z</time>
      </trkpt>
      <trkpt lat="47.6129" lon="-2.11196">
        <ele>57.318821</ele>
        <time>2023-05-06T10:15:04.044Z</time>
      </trkpt>
      <trkpt lat="47.613" lon="-2.11192">
        <ele>57.360611</ele>
        <time>2023-05-06T10:15:07.038Z</time>
      </trkpt>
      <trkpt lat="47.6131" lon="-2.11187">
        <ele>57.402762</ele>
        <time>2023-05-06T10:15:10.045Z</time>
      </trkpt>
      <trkpt lat="47.6132" lon="-2.11183">
        <ele>57.446692</ele>
        <time>2023-05-06T10:15:13.044Z</time>
      </trkpt>
      <trkpt lat="47.6133" lon="-2.11179">
        <ele>57.489338</ele>
        <time>2023-05-06T10:15:16.041Z</time>
      </trkpt>
      <trkpt lat="47.61342" lon="-2.11175">
        <ele>57.536882</ele>
        <time>2023-05-06T10:15:19.050Z</time>
      </trkpt>
      <trkpt lat="47.61353" lon="-2.1117">
        <ele>57.585614</ele>
        <time>2023-05-06T10:15:22.052Z</time>
      </trkpt>
      <trkpt lat="47.61365" lon="-2.11166">
        <ele>57.668275</ele>
        <time>2023-05-06T10:15:25.056Z</time>
      </trkpt>
      <trkpt lat="47.61376" lon="-2.11162">
        <ele>57.812107</ele>
        <time>2023-05-06T10:15:28.054Z</time>
      </trkpt>
      <trkpt lat="47.61388" lon="-2.11159">
        <ele>57.953736</ele>
        <time>2023-05-06T10:15:31.053Z</time>
      </trkpt>
      <trkpt lat="47.614" lon="-2.11157">
        <ele>58.103781</ele>
        <time>2023-05-06T10:15:34.053Z</time>
      </trkpt>
      <trkpt lat="47.61412" lon="-2.11155">
        <ele>58.254477</ele>
        <time>2023-05-06T10:15:37.062Z</time>
      </trkpt>
      <trkpt lat="47.61424" lon="-2.11153">
        <ele>58.400585</ele>
        <time>2023-05-06T10:15:40.054Z</time>
      </trkpt>
      <trkpt lat="47.61436" lon="-2.11153">
        <ele>58.548757</ele>
        <time>2023-05-06T10:15:43.057Z</time>
      </trkpt>
      <trkpt lat="47.61448" lon="-2.11154">
        <ele>58.698291</ele>
        <time>2023-05-06T10:15:46.056Z</time>
      </trkpt>
      <trkpt lat="47.6146" lon="-2.11156">
        <ele>58.846064</ele>
        <time>2023-05-06T10:15:49.043Z</time>
      </trkpt>
      <trkpt lat="47.61472" lon="-2.11158">
        <ele>58.99335</ele>
        <time>2023-05-06T10:15:52.050Z</time>
      </trkpt>
      <trkpt lat="47.61483" lon="-2.11162">
        <ele>59.134373</ele>
        <time>2023-05-06T10:15:55.055Z</time>
      </trkpt>
      <trkpt lat="47.61495" lon="-2.11166">
        <ele>59.276625</ele>
        <time>2023-05-06T10:15:58.051Z</time>
      </trkpt>
      <trkpt lat="47.61506" lon="-2.11169">
        <ele>59.415932</ele>
        <time>2023-05-06T10:16:01.059Z</time>
      </trkpt>
      <trkpt lat="47.61517" lon="-2.1117">
        <ele>59.549424</ele>
        <time>2023-05-06T10:16:04.051Z</time>
      </trkpt>
      <trkpt lat="47.61527" lon="-2.11168">
        <ele>59.677371</ele>
        <time>2023-05-06T10:16:07.043Z</time>
      </trkpt>
      <trkpt lat="47.61536" lon="-2.11174">
        <ele>59.794817</ele>
        <time>2023-05-06T10:16:10.053Z</time>
      </trkpt>
      <trkpt lat="47.61541" lon="-2.11186">
        <ele>59.954639</ele>
        <time>2023-05-06T10:16:13.042Z</time>
      </trkpt>
      <trkpt lat="47.61548" lon="-2.11198">
        <ele>60.134557</ele>
        <time>2023-05-06T10:16:16.040Z</time>
      </trkpt>
      <trkpt lat="47.61556" lon="-2.11207">
        <ele>60.316443</ele>
        <time>2023-05-06T10:16:19.046Z</time>
      </trkpt>
      <trkpt lat="47.61565" lon="-2.11215">
        <ele>60.497316</ele>
        <time>2023-05-06T10:16:22.054Z</time>
      </trkpt>
      <trkpt lat="47.61574" lon="-2.11224">
        <ele>60.682419</ele>
        <time>2023-05-06T10:16:25.058Z</time>
      </trkpt>
      <trkpt lat="47.61582" lon="-2.11233">
        <ele>60.864941</ele>
        <time>2023-05-06T10:16:28.056Z</time>
      </trkpt>
      <trkpt lat="47.6159" lon="-2.11242">
        <ele>61.041842</ele>
        <time>2023-05-06T10:16:31.054Z</time>
      </trkpt>
      <trkpt lat="47.61598" lon="-2.11252">
        <ele>61.221683</ele>
        <time>2023-05-06T10:16:34.054Z</time>
      </trkpt>
      <trkpt lat="47.61605" lon="-2.11262">
        <ele>61.398775</ele>
        <time>2023-05-06T10:16:37.058Z</time>
      </trkpt>
      <trkpt lat="47.61613" lon="-2.11272">
        <ele>61.57556</ele>
        <time>2023-05-06T10:16:40.052Z</time>
      </trkpt>
      <trkpt lat="47.61621" lon="-2.11283">
        <ele>61.763597</ele>
        <time>2023-05-06T10:16:43.058Z</time>
      </trkpt>
      <trkpt lat="47.61629" lon="-2.11294">
        <ele>61.953917</ele>
        <time>2023-05-06T10:16:46.051Z</time>
      </trkpt>
      <trkpt lat="47.61636" lon="-2.11305">
        <ele>62.146057</ele>
        <time>2023-05-06T10:16:49.050Z</time>
      </trkpt>
      <trkpt lat="47.61645" lon="-2.11316">
        <ele>62.34036</ele>
        <time>2023-05-06T10:16:52.053Z</time>
      </trkpt>
      <trkpt lat="47.61653" lon="-2.11327">
        <ele>62.533875</ele>
        <time>2023-05-06T10:16:55.061Z</time>
      </trkpt>
      <trkpt lat="47.61661" lon="-2.11338">
        <ele>62.724</ele>
        <time>2023-05-06T10:16:58.059Z</time>
      </trkpt>
      <trkpt lat="47.61669" lon="-2.11349">
        <ele>62.910762</ele>
        <time>2023-05-06T10:17:01.058Z</time>
      </trkpt>
      <trkpt lat="47.61676" lon="-2.1136">
        <ele>63.101988</ele>
        <time>2023-05-06T10:17:04.050Z</time>
      </trkpt>
      <trkpt lat="47.61684" lon="-2.11371">
        <ele>63.300436</ele>
        <time>2023-05-06T10:17:07.044Z</time>
      </trkpt>
      <trkpt lat="47.61692" lon="-2.11381">
        <ele>63.489145</ele>
        <time>2023-05-06T10:17:10.057Z</time>
      </trkpt>
      <trkpt lat="47.617" lon="-2.11392">
        <ele>63.681128</ele>
        <time>2023-05-06T10:17:13.058Z</time>
      </trkpt>
      <trkpt lat="47.61708" lon="-2.11402">
        <ele>63.86801</ele>
        <time>2023-05-06T10:17:16.060Z</time>
      </trkpt>
      <trkpt lat="47.61716" lon="-2.11411">
        <ele>64.058152</ele>
        <time>2023-05-06T10:17:19.042Z</time>
      </trkpt>
      <trkpt lat="47.61725" lon="-2.1142">
        <ele>64.252115</ele>
        <time>2023-05-06T10:17:22.056Z</time>
      </trkpt>
      <trkpt lat="47.61734" lon="-2.11426">
        <ele>64.437525</ele>
        <time>2023-05-06T10:17:25.051Z</time>
      </trkpt>
      <trkpt lat="47.61745" lon="-2.11427">
        <ele>64.620629</ele>
        <time>2023-05-06T10:17:28.057Z</time>
      </trkpt>
      <trkpt lat="47.61754" lon="-2.11424">
        <ele>64.796376</ele>
        <time>2023-05-06T10:17:31.045Z</time>
      </trkpt>
      <trkpt lat="47.61762" lon="-2.11414">
        <ele>64.986032</ele>
        <time>2023-05-06T10:17:34.042Z</time>
      </trkpt>
      <trkpt lat="47.61769" lon="-2.11402">
        <ele>65.171463</ele>
        <time>2023-05-06T10:17:37.052Z</time>
      </trkpt>
      <trkpt lat="47.61775" lon="-2.11391">
        <ele>65.344975</ele>
        <time>2023-05-06T10:17:40.058Z</time>
      </trkpt>
      <trkpt lat="47.61782" lon="-2.11381">
        <ele>65.518863</ele>
        <time>2023-05-06T10:17:43.101Z</time>
      </trkpt>
      <trkpt lat="47.61789" lon="-2.11371">
        <ele>65.692331</ele>
        <time>2023-05-06T10:17:46.055Z</time>
      </trkpt>
      <trkpt lat="47.61797" lon="-2.1136">
        <ele>65.899131</ele>
        <time>2023-05-06T10:17:50.055Z</time>
      </trkpt>
      <trkpt lat="47.61806" lon="-2.11351">
        <ele>66.094465</ele>
        <time>2023-05-06T10:17:54.050Z</time>
      </trkpt>
      <trkpt lat="47.61817" lon="-2.11346">
        <ele>66.13192</ele>
        <time>2023-05-06T10:17:58.061Z</time>
      </trkpt>
      <trkpt lat="47.61828" lon="-2.11343">
        <ele>65.841189</ele>
        <time>2023-05-06T10:18:02.054Z</time>
      </trkpt>
      <trkpt lat="47.61837" lon="-2.1134">
        <ele>65.597408</ele>
        <time>2023-05-06T10:18:06.056Z</time>
      </trkpt>
      <trkpt lat="47.61847" lon="-2.11336">
        <ele>65.352177</ele>
        <time>2023-05-06T10:18:10.051Z</time>
      </trkpt>
      <trkpt lat="47.61857" lon="-2.11332">
        <ele>65.072945</ele>
        <time>2023-05-06T10:18:14.055Z</time>
      </trkpt>
      <trkpt lat="47.61866" lon="-2.11328">
        <ele>64.844198</ele>
        <time>2023-05-06T10:18:17.063Z</time>
      </trkpt>
      <trkpt lat="47.61875" lon="-2.11324">
        <ele>64.593516</ele>
        <time>2023-05-06T10:18:20.056Z</time>
      </trkpt>
      <trkpt lat="47.61887" lon="-2.11315">
        <ele>64.277954</ele>
        <time>2023-05-06T10:18:23.059Z</time>
      </trkpt>
      <trkpt lat="47.61895" lon="-2.11308">
        <ele>64.026166</ele>
        <time>2023-05-06T10:18:25.061Z</time>
      </trkpt>
      <trkpt lat="47.61904" lon="-2.11299">
        <ele>63.759692</ele>
        <time>2023-05-06T10:18:27.047Z</time>
      </trkpt>
      <trkpt lat="47.61911" lon="-2.11286">
        <ele>63.468088</ele>
        <time>2023-05-06T10:18:29.052Z</time>
      </trkpt>
      <trkpt lat="47.61918" lon="-2.1127">
        <ele>63.15487</ele>
        <time>2023-05-06T10:18:31.047Z</time>
      </trkpt>
      <trkpt lat="47.61925" lon="-2.11253">
        <ele>62.814795</ele>
        <time>2023-05-06T10:18:33.050Z</time>
      </trkpt>
      <trkpt lat="47.61931" lon="-2.11235">
        <ele>62.467044</ele>
        <time>2023-05-06T10:18:35.054Z</time>
      </trkpt>
      <trkpt lat="47.61937" lon="-2.11216">
        <ele>62.108862</ele>
        <time>2023-05-06T10:18:37.057Z</time>
      </trkpt>
      <trkpt lat="47.61942" lon="-2.11196">
        <ele>61.740413</ele>
        <time>2023-05-06T10:18:39.047Z</time>
      </trkpt>
      <trkpt lat="47.61948" lon="-2.11176">
        <ele>61.40606</ele>
        <time>2023-05-06T10:18:41.056Z</time>
      </trkpt>
      <trkpt lat="47.61953" lon="-2.11156">
        <ele>61.073152</ele>
        <time>2023-05-06T10:18:43.054Z</time>
      </trkpt>
      <trkpt lat="47.61957" lon="-2.11136">
        <ele>60.738881</ele>
        <time>2023-05-06T10:18:45.067Z</time>
      </trkpt>
      <trkpt lat="47.61962" lon="-2.11116">
        <ele>60.408931</ele>
        <time>2023-05-06T10:18:47.057Z</time>
      </trkpt>
      <trkpt lat="47.61966" lon="-2.11095">
        <ele>60.073933</ele>
        <time>2023-05-06T10:18:49.056Z</time>
      </trkpt>
      <trkpt lat="47.6197" lon="-2.11075">
        <ele>59.749778</ele>
        <time>2023-05-06T10:18:51.054Z</time>
      </trkpt>
      <trkpt lat="47.61973" lon="-2.11056">
        <ele>59.441899</ele>
        <time>2023-05-06T10:18:53.052Z</time>
      </trkpt>
      <trkpt lat="47.61976" lon="-2.11036">
        <ele>59.1301</ele>
        <time>2023-05-06T10:18:55.054Z</time>
      </trkpt>
      <trkpt lat="47.6198" lon="-2.11018">
        <ele>58.829152</ele>
        <time>2023-05-06T10:18:57.056Z</time>
      </trkpt>
      <trkpt lat="47.61982" lon="-2.11">
        <ele>58.54414</ele>
        <time>2023-05-06T10:18:59.059Z</time>
      </trkpt>
      <trkpt lat="47.61985" lon="-2.10982">
        <ele>58.26216</ele>
        <time>2023-05-06T10:19:01.055Z</time>
      </trkpt>
      <trkpt lat="47.61987" lon="-2.10965">
        <ele>57.989696</ele>
        <time>2023-05-06T10:19:03.060Z</time>
      </trkpt>
      <trkpt lat="47.61989" lon="-2.10948">
        <ele>57.718672</ele>
        <time>2023-05-06T10:19:05.060Z</time>
      </trkpt>
      <trkpt lat="47.6199" lon="-2.10931">
        <ele>57.491712</ele>
        <time>2023-05-06T10:19:07.052Z</time>
      </trkpt>
      <trkpt lat="47.6199" lon="-2.10914">
        <ele>57.364739</ele>
        <time>2023-05-06T10:19:09.054Z</time>
      </trkpt>
      <trkpt lat="47.61992" lon="-2.10898">
        <ele>57.246613</ele>
        <time>2023-05-06T10:19:11.058Z</time>
      </trkpt>
      <trkpt lat="47.61993" lon="-2.10882">
        <ele>57.128609</ele>
        <time>2023-05-06T10:19:13.057Z</time>
      </trkpt>
      <trkpt lat="47.61994" lon="-2.10867">
        <ele>57.017634</ele>
        <time>2023-05-06T10:19:15.068Z</time>
      </trkpt>
      <trkpt lat="47.61995" lon="-2.10852">
        <ele>56.910335</ele>
        <time>2023-05-06T10:19:17.063Z</time>
      </trkpt>
      <trkpt lat="47.61996" lon="-2.10838">
        <ele>56.806798</ele>
        <time>2023-05-06T10:19:19.063Z</time>
      </trkpt>
      <trkpt lat="47.61996" lon="-2.10819">
        <ele>56.660666</ele>
        <time>2023-05-06T10:19:22.055Z</time>
      </trkpt>
      <trkpt lat="47.61996" lon="-2.10799">
        <ele>56.518306</ele>
        <time>2023-05-06T10:19:25.058Z</time>
      </trkpt>
      <trkpt lat="47.61997" lon="-2.1078">
        <ele>56.376359</ele>
        <time>2023-05-06T10:19:28.062Z</time>
      </trkpt>
      <trkpt lat="47.61998" lon="-2.10762">
        <ele>56.242648</ele>
        <time>2023-05-06T10:19:31.055Z</time>
      </trkpt>
      <trkpt lat="47.61999" lon="-2.10744">
        <ele>56.111941</ele>
        <time>2023-05-06T10:19:34.058Z</time>
      </trkpt>
      <trkpt lat="47.62" lon="-2.10727">
        <ele>55.98682</ele>
        <time>2023-05-06T10:19:37.058Z</time>
      </trkpt>
      <trkpt lat="47.62001" lon="-2.10711">
        <ele>55.866736</ele>
        <time>2023-05-06T10:19:40.056Z</time>
      </trkpt>
      <trkpt lat="47.62001" lon="-2.10695">
        <ele>55.745604</ele>
        <time>2023-05-06T10:19:43.057Z</time>
      </trkpt>
      <trkpt lat="47.62003" lon="-2.10679">
        <ele>55.625406</ele>
        <time>2023-05-06T10:19:46.055Z</time>
      </trkpt>
      <trkpt lat="47.62004" lon="-2.10662">
        <ele>55.509458</ele>
        <time>2023-05-06T10:19:49.055Z</time>
      </trkpt>
      <trkpt lat="47.62005" lon="-2.10645">
        <ele>55.38868</ele>
        <time>2023-05-06T10:19:52.052Z</time>
      </trkpt>
      <trkpt lat="47.62007" lon="-2.10626">
        <ele>55.259702</ele>
        <time>2023-05-06T10:19:55.057Z</time>
      </trkpt>
      <trkpt lat="47.6201" lon="-2.10607">
        <ele>55.126205</ele>
        <time>2023-05-06T10:19:58.051Z</time>
      </trkpt>
      <trkpt lat="47.62012" lon="-2.10594">
        <ele>55.035507</ele>
        <time>2023-05-06T10:20:00.056Z</time>
      </trkpt>
      <trkpt lat="47.62014" lon="-2.1058">
        <ele>54.942311</ele>
        <time>2023-05-06T10:20:02.058Z</time>
      </trkpt>
      <trkpt lat="47.62017" lon="-2.10567">
        <ele>54.847471</ele>
        <time>2023-05-06T10:20:04.057Z</time>
      </trkpt>
      <trkpt lat="47.62021" lon="-2.10547">
        <ele>54.709179</ele>
        <time>2023-05-06T10:20:07.056Z</time>
      </trkpt>
      <trkpt lat="47.62024" lon="-2.10528">
        <ele>54.574997</ele>
        <time>2023-05-06T10:20:10.055Z</time>
      </trkpt>
      <trkpt lat="47.62029" lon="-2.1051">
        <ele>54.441896</ele>
        <time>2023-05-06T10:20:13.063Z</time>
      </trkpt>
      <trkpt lat="47.62033" lon="-2.10492">
        <ele>54.310019</ele>
        <time>2023-05-06T10:20:16.060Z</time>
      </trkpt>
      <trkpt lat="47.62038" lon="-2.10474">
        <ele>54.179641</ele>
        <time>2023-05-06T10:20:19.055Z</time>
      </trkpt>
      <trkpt lat="47.62044" lon="-2.10458">
        <ele>54.057102</ele>
        <time>2023-05-06T10:20:22.055Z</time>
      </trkpt>
      <trkpt lat="47.62049" lon="-2.10442">
        <ele>53.937198</ele>
        <time>2023-05-06T10:20:25.052Z</time>
      </trkpt>
      <trkpt lat="47.62054" lon="-2.10427">
        <ele>53.820151</ele>
        <time>2023-05-06T10:20:28.057Z</time>
      </trkpt>
      <trkpt lat="47.6206" lon="-2.10411">
        <ele>53.729595</ele>
        <time>2023-05-06T10:20:31.055Z</time>
      </trkpt>
      <trkpt lat="47.62066" lon="-2.10395">
        <ele>53.68378</ele>
        <time>2023-05-06T10:20:34.058Z</time>
      </trkpt>
      <trkpt lat="47.62073" lon="-2.10378">
        <ele>53.635533</ele>
        <time>2023-05-06T10:20:37.062Z</time>
      </trkpt>
      <trkpt lat="47.62078" lon="-2.10367">
        <ele>53.6023</ele>
        <time>2023-05-06T10:20:39.046Z</time>
      </trkpt>
      <trkpt lat="47.62084" lon="-2.10356">
        <ele>53.568835</ele>
        <time>2023-05-06T10:20:41.055Z</time>
      </trkpt>
      <trkpt lat="47.62091" lon="-2.10341">
        <ele>53.520386</ele>
        <time>2023-05-06T10:20:44.055Z</time>
      </trkpt>
      <trkpt lat="47.62099" lon="-2.10325">
        <ele>53.472482</ele>
        <time>2023-05-06T10:20:47.064Z</time>
      </trkpt>
      <trkpt lat="47.62107" lon="-2.10311">
        <ele>53.427503</ele>
        <time>2023-05-06T10:20:50.063Z</time>
      </trkpt>
      <trkpt lat="47.62114" lon="-2.10298">
        <ele>53.38607</ele>
        <time>2023-05-06T10:20:53.061Z</time>
      </trkpt>
      <trkpt lat="47.62122" lon="-2.10285">
        <ele>53.342522</ele>
        <time>2023-05-06T10:20:56.054Z</time>
      </trkpt>
      <trkpt lat="47.62131" lon="-2.10272">
        <ele>53.297001</ele>
        <time>2023-05-06T10:20:59.054Z</time>
      </trkpt>
      <trkpt lat="47.6214" lon="-2.10259">
        <ele>53.250028</ele>
        <time>2023-05-06T10:21:02.054Z</time>
      </trkpt>
      <trkpt lat="47.62149" lon="-2.10246">
        <ele>53.202762</ele>
        <time>2023-05-06T10:21:05.057Z</time>
      </trkpt>
      <trkpt lat="47.62159" lon="-2.10233">
        <ele>53.155224</ele>
        <time>2023-05-06T10:21:08.055Z</time>
      </trkpt>
      <trkpt lat="47.62169" lon="-2.1022">
        <ele>53.10675</ele>
        <time>2023-05-06T10:21:11.049Z</time>
      </trkpt>
      <trkpt lat="47.6218" lon="-2.10208">
        <ele>53.094773</ele>
        <time>2023-05-06T10:21:14.051Z</time>
      </trkpt>
      <trkpt lat="47.6219" lon="-2.10197">
        <ele>53.10935</ele>
        <time>2023-05-06T10:21:17.055Z</time>
      </trkpt>
      <trkpt lat="47.62201" lon="-2.10185">
        <ele>53.124017</ele>
        <time>2023-05-06T10:21:20.056Z</time>
      </trkpt>
      <trkpt lat="47.62213" lon="-2.10175">
        <ele>53.138688</ele>
        <time>2023-05-06T10:21:23.055Z</time>
      </trkpt>
      <trkpt lat="47.62223" lon="-2.10165">
        <ele>53.152406</ele>
        <time>2023-05-06T10:21:26.056Z</time>
      </trkpt>
      <trkpt lat="47.62234" lon="-2.10157">
        <ele>53.165159</ele>
        <time>2023-05-06T10:21:29.052Z</time>
      </trkpt>
      <trkpt lat="47.62245" lon="-2.10148">
        <ele>53.179276</ele>
        <time>2023-05-06T10:21:32.046Z</time>
      </trkpt>
      <trkpt lat="47.62257" lon="-2.10139">
        <ele>53.193688</ele>
        <time>2023-05-06T10:21:35.050Z</time>
      </trkpt>
      <trkpt lat="47.62269" lon="-2.10131">
        <ele>53.208103</ele>
        <time>2023-05-06T10:21:38.054Z</time>
      </trkpt>
      <trkpt lat="47.62281" lon="-2.10123">
        <ele>53.222686</ele>
        <time>2023-05-06T10:21:41.061Z</time>
      </trkpt>
      <trkpt lat="47.62293" lon="-2.10116">
        <ele>53.237333</ele>
        <time>2023-05-06T10:21:44.061Z</time>
      </trkpt>
      <trkpt lat="47.62306" lon="-2.1011">
        <ele>53.251962</ele>
        <time>2023-05-06T10:21:47.046Z</time>
      </trkpt>
      <trkpt lat="47.62318" lon="-2.10105">
        <ele>53.265625</ele>
        <time>2023-05-06T10:21:50.057Z</time>
      </trkpt>
      <trkpt lat="47.6233" lon="-2.101">
        <ele>53.278867</ele>
        <time>2023-05-06T10:21:53.058Z</time>
      </trkpt>
      <trkpt lat="47.62342" lon="-2.10095">
        <ele>53.305284</ele>
        <time>2023-05-06T10:21:56.059Z</time>
      </trkpt>
      <trkpt lat="47.62354" lon="-2.10091">
        <ele>53.339125</ele>
        <time>2023-05-06T10:21:59.055Z</time>
      </trkpt>
      <trkpt lat="47.62367" lon="-2.10088">
        <ele>53.373842</ele>
        <time>2023-05-06T10:22:02.043Z</time>
      </trkpt>
      <trkpt lat="47.6238" lon="-2.10085">
        <ele>53.408497</ele>
        <time>2023-05-06T10:22:05.055Z</time>
      </trkpt>
      <trkpt lat="47.62389" lon="-2.10082">
        <ele>53.433012</ele>
        <time>2023-05-06T10:22:07.057Z</time>
      </trkpt>
      <trkpt lat="47.62401" lon="-2.1008">
        <ele>53.467292</ele>
        <time>2023-05-06T10:22:10.053Z</time>
      </trkpt>
      <trkpt lat="47.62415" lon="-2.10079">
        <ele>53.502345</ele>
        <time>2023-05-06T10:22:13.059Z</time>
      </trkpt>
      <trkpt lat="47.62427" lon="-2.10077">
        <ele>53.536937</ele>
        <time>2023-05-06T10:22:16.055Z</time>
      </trkpt>
      <trkpt lat="47.62439" lon="-2.10077">
        <ele>53.568179</ele>
        <time>2023-05-06T10:22:19.058Z</time>
      </trkpt>
      <trkpt lat="47.62451" lon="-2.10077">
        <ele>53.600229</ele>
        <time>2023-05-06T10:22:22.056Z</time>
      </trkpt>
      <trkpt lat="47.62464" lon="-2.10077">
        <ele>53.634944</ele>
        <time>2023-05-06T10:22:25.060Z</time>
      </trkpt>
      <trkpt lat="47.62477" lon="-2.10078">
        <ele>53.66889</ele>
        <time>2023-05-06T10:22:28.055Z</time>
      </trkpt>
      <trkpt lat="47.6249" lon="-2.1008">
        <ele>53.703499</ele>
        <time>2023-05-06T10:22:31.056Z</time>
      </trkpt>
      <trkpt lat="47.62503" lon="-2.10082">
        <ele>53.738889</ele>
        <time>2023-05-06T10:22:34.058Z</time>
      </trkpt>
      <trkpt lat="47.62512" lon="-2.10084">
        <ele>53.763242</ele>
        <time>2023-05-06T10:22:36.054Z</time>
      </trkpt>
      <trkpt lat="47.62525" lon="-2.10086">
        <ele>53.780648</ele>
        <time>2023-05-06T10:22:39.046Z</time>
      </trkpt>
      <trkpt lat="47.62538" lon="-2.10089">
        <ele>53.797428</ele>
        <time>2023-05-06T10:22:42.057Z</time>
      </trkpt>
      <trkpt lat="47.62547" lon="-2.10091">
        <ele>53.809353</ele>
        <time>2023-05-06T10:22:44.056Z</time>
      </trkpt>
      <trkpt lat="47.62556" lon="-2.10092">
        <ele>53.821467</ele>
        <time>2023-05-06T10:22:46.059Z</time>
      </trkpt>
      <trkpt lat="47.62566" lon="-2.10094">
        <ele>53.834223</ele>
        <time>2023-05-06T10:22:48.061Z</time>
      </trkpt>
      <trkpt lat="47.62575" lon="-2.10095">
        <ele>53.84605</ele>
        <time>2023-05-06T10:22:50.054Z</time>
      </trkpt>
      <trkpt lat="47.62588" lon="-2.10098">
        <ele>53.863349</ele>
        <time>2023-05-06T10:22:53.052Z</time>
      </trkpt>
      <trkpt lat="47.62597" lon="-2.10098">
        <ele>53.87526</ele>
        <time>2023-05-06T10:22:55.065Z</time>
      </trkpt>
      <trkpt lat="47.62609" lon="-2.10098">
        <ele>53.891753</ele>
        <time>2023-05-06T10:22:58.054Z</time>
      </trkpt>
      <trkpt lat="47.62621" lon="-2.10097">
        <ele>53.907076</ele>
        <time>2023-05-06T10:23:01.063Z</time>
      </trkpt>
      <trkpt lat="47.62633" lon="-2.10096">
        <ele>53.922862</ele>
        <time>2023-05-06T10:23:04.046Z</time>
      </trkpt>
      <trkpt lat="47.62645" lon="-2.10088">
        <ele>53.94006</ele>
        <time>2023-05-06T10:23:07.053Z</time>
      </trkpt>
      <trkpt lat="47.62652" lon="-2.1008">
        <ele>53.951836</ele>
        <time>2023-05-06T10:23:09.052Z</time>
      </trkpt>
      <trkpt lat="47.62664" lon="-2.10073">
        <ele>53.967636</ele>
        <time>2023-05-06T10:23:12.047Z</time>
      </trkpt>
      <trkpt lat="47.62675" lon="-2.10078">
        <ele>53.98301</ele>
        <time>2023-05-06T10:23:15.049Z</time>
      </trkpt>
      <trkpt lat="47.62684" lon="-2.10091">
        <ele>53.99532</ele>
        <time>2023-05-06T10:23:18.050Z</time>
      </trkpt>
      <trkpt lat="47.62694" lon="-2.10104">
        <ele>53.903261</ele>
        <time>2023-05-06T10:23:21.057Z</time>
      </trkpt>
      <trkpt lat="47.62703" lon="-2.10109">
        <ele>53.837076</ele>
        <time>2023-05-06T10:23:23.057Z</time>
      </trkpt>
      <trkpt lat="47.62712" lon="-2.10113">
        <ele>53.772256</ele>
        <time>2023-05-06T10:23:25.056Z</time>
      </trkpt>
      <trkpt lat="47.62721" lon="-2.10116">
        <ele>53.706431</ele>
        <time>2023-05-06T10:23:27.057Z</time>
      </trkpt>
      <trkpt lat="47.62734" lon="-2.1012">
        <ele>53.610742</ele>
        <time>2023-05-06T10:23:30.058Z</time>
      </trkpt>
      <trkpt lat="47.62747" lon="-2.10123">
        <ele>53.520996</ele>
        <time>2023-05-06T10:23:33.055Z</time>
      </trkpt>
      <trkpt lat="47.62759" lon="-2.10126">
        <ele>53.432095</ele>
        <time>2023-05-06T10:23:36.053Z</time>
      </trkpt>
      <trkpt lat="47.62771" lon="-2.10128">
        <ele>53.345848</ele>
        <time>2023-05-06T10:23:39.050Z</time>
      </trkpt>
      <trkpt lat="47.62783" lon="-2.1013">
        <ele>53.260997</ele>
        <time>2023-05-06T10:23:42.054Z</time>
      </trkpt>
      <trkpt lat="47.62796" lon="-2.10132">
        <ele>53.173627</ele>
        <time>2023-05-06T10:23:45.050Z</time>
      </trkpt>
      <trkpt lat="47.62808" lon="-2.10133">
        <ele>53.087771</ele>
        <time>2023-05-06T10:23:48.059Z</time>
      </trkpt>
      <trkpt lat="47.6282" lon="-2.10136">
        <ele>53.002809</ele>
        <time>2023-05-06T10:23:51.050Z</time>
      </trkpt>
      <trkpt lat="47.62832" lon="-2.10136">
        <ele>52.919125</ele>
        <time>2023-05-06T10:23:54.056Z</time>
      </trkpt>
      <trkpt lat="47.62843" lon="-2.10137">
        <ele>52.840356</ele>
        <time>2023-05-06T10:23:57.053Z</time>
      </trkpt>
      <trkpt lat="47.62855" lon="-2.10138">
        <ele>52.756476</ele>
        <time>2023-05-06T10:24:00.056Z</time>
      </trkpt>
      <trkpt lat="47.62867" lon="-2.1014">
        <ele>52.689112</ele>
        <time>2023-05-06T10:24:03.059Z</time>
      </trkpt>
      <trkpt lat="47.6288" lon="-2.10141">
        <ele>52.62537</ele>
        <time>2023-05-06T10:24:06.062Z</time>
      </trkpt>
      <trkpt lat="47.62894" lon="-2.10143">
        <ele>52.557774</ele>
        <time>2023-05-06T10:24:09.055Z</time>
      </trkpt>
      <trkpt lat="47.62907" lon="-2.10144">
        <ele>52.49159</ele>
        <time>2023-05-06T10:24:12.054Z</time>
      </trkpt>
      <trkpt lat="47.6292" lon="-2.10145">
        <ele>52.425553</ele>
        <time>2023-05-06T10:24:15.058Z</time>
      </trkpt>
      <trkpt lat="47.62933" lon="-2.10147">
        <ele>52.360693</ele>
        <time>2023-05-06T10:24:18.058Z</time>
      </trkpt>
      <trkpt lat="47.62946" lon="-2.10148">
        <ele>52.295675</ele>
        <time>2023-05-06T10:24:21.058Z</time>
      </trkpt>
      <trkpt lat="47.62958" lon="-2.10149">
        <ele>52.236574</ele>
        <time>2023-05-06T10:24:24.052Z</time>
      </trkpt>
      <trkpt lat="47.6297" lon="-2.10151">
        <ele>52.179218</ele>
        <time>2023-05-06T10:24:27.059Z</time>
      </trkpt>
      <trkpt lat="47.62981" lon="-2.10152">
        <ele>52.124016</ele>
        <time>2023-05-06T10:24:30.057Z</time>
      </trkpt>
      <trkpt lat="47.62991" lon="-2.10154">
        <ele>52.071097</ele>
        <time>2023-05-06T10:24:33.053Z</time>
      </trkpt>
      <trkpt lat="47.63001" lon="-2.10155">
        <ele>52.022724</ele>
        <time>2023-05-06T10:24:36.047Z</time>
      </trkpt>
      <trkpt lat="47.63013" lon="-2.10158">
        <ele>51.965566</ele>
        <time>2023-05-06T10:24:40.051Z</time>
      </trkpt>
      <trkpt lat="47.63024" lon="-2.10159">
        <ele>51.908829</ele>
        <time>2023-05-06T10:24:44.052Z</time>
      </trkpt>
      <trkpt lat="47.63034" lon="-2.10152">
        <ele>51.851174</ele>
        <time>2023-05-06T10:24:48.054Z</time>
      </trkpt>
      <trkpt lat="47.63041" lon="-2.10143">
        <ele>51.988441</ele>
        <time>2023-05-06T10:24:51.056Z</time>
      </trkpt>
      <trkpt lat="47.63045" lon="-2.10126">
        <ele>52.222734</ele>
        <time>2023-05-06T10:24:55.053Z</time>
      </trkpt>
      <trkpt lat="47.63045" lon="-2.10113">
        <ele>52.401952</ele>
        <time>2023-05-06T10:24:58.057Z</time>
      </trkpt>
      <trkpt lat="47.63046" lon="-2.10096">
        <ele>52.618632</ele>
        <time>2023-05-06T10:25:02.055Z</time>
      </trkpt>
      <trkpt lat="47.6305" lon="-2.10083">
        <ele>52.812834</ele>
        <time>2023-05-06T10:25:06.054Z</time>
      </trkpt>
      <trkpt lat="47.63058" lon="-2.10074">
        <ele>53.01904</ele>
        <time>2023-05-06T10:25:10.055Z</time>
      </trkpt>
      <trkpt lat="47.63064" lon="-2.10062">
        <ele>53.215815</ele>
        <time>2023-05-06T10:25:14.056Z</time>
      </trkpt>
      <trkpt lat="47.63065" lon="-2.10046">
        <ele>53.438046</ele>
        <time>2023-05-06T10:25:19.054Z</time>
      </trkpt>
      <trkpt lat="47.63065" lon="-2.10032">
        <ele>53.621107</ele>
        <time>2023-05-06T10:25:23.048Z</time>
      </trkpt>
      <trkpt lat="47.6307" lon="-2.10019">
        <ele>53.822343</ele>
        <time>2023-05-06T10:25:28.045Z</time>
      </trkpt>
      <trkpt lat="47.63079" lon="-2.10026">
        <ele>54.026811</ele>
        <time>2023-05-06T10:27:33.038Z</time>
      </trkpt>
      <trkpt lat="47.63083" lon="-2.10041">
        <ele>54.252311</ele>
        <time>2023-05-06T11:15:58.047Z</time>
      </trkpt>
      <trkpt lat="47.6308" lon="-2.10056">
        <ele>54.460665</ele>
        <time>2023-05-06T11:16:02.044Z</time>
      </trkpt>
      <trkpt lat="47.63078" lon="-2.10069">
        <ele>54.641437</ele>
        <time>2023-05-06T11:16:06.049Z</time>
      </trkpt>
      <trkpt lat="47.63071" lon="-2.10081">
        <ele>54.84825</ele>
        <time>2023-05-06T11:16:11.046Z</time>
      </trkpt>
      <trkpt lat="47.63062" lon="-2.10083">
        <ele>55.032602</ele>
        <time>2023-05-06T11:16:16.044Z</time>
      </trkpt>
      <trkpt lat="47.63053" lon="-2.10088">
        <ele>55.227792</ele>
        <time>2023-05-06T11:16:21.043Z</time>
      </trkpt>
      <trkpt lat="47.6305" lon="-2.10103">
        <ele>55.404974</ele>
        <time>2023-05-06T11:16:26.052Z</time>
      </trkpt>
      <trkpt lat="47.63052" lon="-2.10117">
        <ele>55.373347</ele>
        <time>2023-05-06T11:16:30.043Z</time>
      </trkpt>
      <trkpt lat="47.63059" lon="-2.10129">
        <ele>55.33884</ele>
        <time>2023-05-06T11:16:34.047Z</time>
      </trkpt>
      <trkpt lat="47.63068" lon="-2.10136">
        <ele>55.306789</ele>
        <time>2023-05-06T11:16:38.044Z</time>
      </trkpt>
      <trkpt lat="47.63076" lon="-2.10146">
        <ele>55.273419</ele>
        <time>2023-05-06T11:16:42.046Z</time>
      </trkpt>
      <trkpt lat="47.63081" lon="-2.10159">
        <ele>55.239916</ele>
        <time>2023-05-06T11:16:46.045Z</time>
      </trkpt>
      <trkpt lat="47.63086" lon="-2.1017">
        <ele>55.210059</ele>
        <time>2023-05-06T11:16:50.039Z</time>
      </trkpt>
      <trkpt lat="47.63087" lon="-2.10154">
        <ele>55.17467</ele>
        <time>2023-05-06T11:17:01.045Z</time>
      </trkpt>
      <trkpt lat="47.63089" lon="-2.10138">
        <ele>55.139433</ele>
        <time>2023-05-06T11:17:06.037Z</time>
      </trkpt>
      <trkpt lat="47.63094" lon="-2.10125">
        <ele>55.105745</ele>
        <time>2023-05-06T11:17:14.049Z</time>
      </trkpt>
      <trkpt lat="47.63105" lon="-2.10129">
        <ele>55.070212</ele>
        <time>2023-05-06T11:17:19.041Z</time>
      </trkpt>
      <trkpt lat="47.63112" lon="-2.10141">
        <ele>55.034091</ele>
        <time>2023-05-06T11:17:23.036Z</time>
      </trkpt>
      <trkpt lat="47.6312" lon="-2.10152">
        <ele>54.99848</ele>
        <time>2023-05-06T11:17:27.045Z</time>
      </trkpt>
      <trkpt lat="47.63129" lon="-2.10161">
        <ele>54.964867</ele>
        <time>2023-05-06T11:17:31.041Z</time>
      </trkpt>
      <trkpt lat="47.63122" lon="-2.1015">
        <ele>54.93265</ele>
        <time>2023-05-06T11:18:47.045Z</time>
      </trkpt>
      <trkpt lat="47.63113" lon="-2.10141">
        <ele>54.897079</ele>
        <time>2023-05-06T11:18:51.042Z</time>
      </trkpt>
      <trkpt lat="47.63106" lon="-2.10133">
        <ele>54.86739</ele>
        <time>2023-05-06T11:18:55.042Z</time>
      </trkpt>
      <trkpt lat="47.63095" lon="-2.10131">
        <ele>54.831621</ele>
        <time>2023-05-06T11:18:59.042Z</time>
      </trkpt>
      <trkpt lat="47.63086" lon="-2.10135">
        <ele>54.816737</ele>
        <time>2023-05-06T11:19:02.041Z</time>
      </trkpt>
      <trkpt lat="47.63082" lon="-2.10149">
        <ele>54.806454</ele>
        <time>2023-05-06T11:19:06.054Z</time>
      </trkpt>
      <trkpt lat="47.63086" lon="-2.10163">
        <ele>54.795813</ele>
        <time>2023-05-06T11:19:10.043Z</time>
      </trkpt>
      <trkpt lat="47.63095" lon="-2.10169">
        <ele>54.785026</ele>
        <time>2023-05-06T11:19:14.044Z</time>
      </trkpt>
      <trkpt lat="47.63104" lon="-2.10171">
        <ele>54.775887</ele>
        <time>2023-05-06T11:19:17.045Z</time>
      </trkpt>
      <trkpt lat="47.63114" lon="-2.10173">
        <ele>54.765691</ele>
        <time>2023-05-06T11:19:20.048Z</time>
      </trkpt>
      <trkpt lat="47.63124" lon="-2.10174">
        <ele>54.755781</ele>
        <time>2023-05-06T11:19:23.044Z</time>
      </trkpt>
      <trkpt lat="47.63134" lon="-2.10176">
        <ele>54.745716</ele>
        <time>2023-05-06T11:19:26.045Z</time>
      </trkpt>
      <trkpt lat="47.63144" lon="-2.10177">
        <ele>54.735425</ele>
        <time>2023-05-06T11:19:29.036Z</time>
      </trkpt>
      <trkpt lat="47.63155" lon="-2.10179">
        <ele>54.72446</ele>
        <time>2023-05-06T11:19:32.046Z</time>
      </trkpt>
      <trkpt lat="47.63165" lon="-2.1018">
        <ele>54.713531</ele>
        <time>2023-05-06T11:19:35.044Z</time>
      </trkpt>
      <trkpt lat="47.63176" lon="-2.10182">
        <ele>54.702291</ele>
        <time>2023-05-06T11:19:38.047Z</time>
      </trkpt>
      <trkpt lat="47.63187" lon="-2.10184">
        <ele>54.691443</ele>
        <time>2023-05-06T11:19:41.045Z</time>
      </trkpt>
      <trkpt lat="47.63197" lon="-2.10185">
        <ele>54.681209</ele>
        <time>2023-05-06T11:19:44.044Z</time>
      </trkpt>
      <trkpt lat="47.63208" lon="-2.10186">
        <ele>54.669585</ele>
        <time>2023-05-06T11:19:48.039Z</time>
      </trkpt>
      <trkpt lat="47.63217" lon="-2.10187">
        <ele>54.660218</ele>
        <time>2023-05-06T11:19:51.050Z</time>
      </trkpt>
      <trkpt lat="47.63228" lon="-2.10188">
        <ele>54.649604</ele>
        <time>2023-05-06T11:19:54.047Z</time>
      </trkpt>
      <trkpt lat="47.63239" lon="-2.10189">
        <ele>54.652055</ele>
        <time>2023-05-06T11:19:57.047Z</time>
      </trkpt>
      <trkpt lat="47.63249" lon="-2.10189">
        <ele>54.715956</ele>
        <time>2023-05-06T11:20:00.044Z</time>
      </trkpt>
      <trkpt lat="47.6326" lon="-2.10189">
        <ele>54.782407</ele>
        <time>2023-05-06T11:20:03.041Z</time>
      </trkpt>
      <trkpt lat="47.63271" lon="-2.10188">
        <ele>54.848145</ele>
        <time>2023-05-06T11:20:06.045Z</time>
      </trkpt>
      <trkpt lat="47.63281" lon="-2.10188">
        <ele>54.911421</ele>
        <time>2023-05-06T11:20:09.048Z</time>
      </trkpt>
      <trkpt lat="47.63291" lon="-2.10189">
        <ele>54.971638</ele>
        <time>2023-05-06T11:20:12.043Z</time>
      </trkpt>
      <trkpt lat="47.63301" lon="-2.10188">
        <ele>55.033706</ele>
        <time>2023-05-06T11:20:15.048Z</time>
      </trkpt>
      <trkpt lat="47.63311" lon="-2.10189">
        <ele>55.095173</ele>
        <time>2023-05-06T11:20:18.050Z</time>
      </trkpt>
      <trkpt lat="47.6332" lon="-2.10189">
        <ele>55.151114</ele>
        <time>2023-05-06T11:20:21.051Z</time>
      </trkpt>
      <trkpt lat="47.63329" lon="-2.10189">
        <ele>55.207024</ele>
        <time>2023-05-06T11:20:24.044Z</time>
      </trkpt>
      <trkpt lat="47.63338" lon="-2.10189">
        <ele>55.263565</ele>
        <time>2023-05-06T11:20:27.033Z</time>
      </trkpt>
      <trkpt lat="47.63349" lon="-2.10189">
        <ele>55.329917</ele>
        <time>2023-05-06T11:20:30.036Z</time>
      </trkpt>
      <trkpt lat="47.6336" lon="-2.1019">
        <ele>55.395056</ele>
        <time>2023-05-06T11:20:33.030Z</time>
      </trkpt>
      <trkpt lat="47.6337" lon="-2.10189">
        <ele>55.458947</ele>
        <time>2023-05-06T11:20:36.029Z</time>
      </trkpt>
      <trkpt lat="47.6338" lon="-2.10189">
        <ele>55.52345</ele>
        <time>2023-05-06T11:20:39.035Z</time>
      </trkpt>
      <trkpt lat="47.63391" lon="-2.10189">
        <ele>55.586738</ele>
        <time>2023-05-06T11:20:42.030Z</time>
      </trkpt>
      <trkpt lat="47.63401" lon="-2.1019">
        <ele>55.64942</ele>
        <time>2023-05-06T11:20:45.033Z</time>
      </trkpt>
      <trkpt lat="47.63412" lon="-2.1019">
        <ele>55.715778</ele>
        <time>2023-05-06T11:20:48.036Z</time>
      </trkpt>
      <trkpt lat="47.63422" lon="-2.10189">
        <ele>55.702955</ele>
        <time>2023-05-06T11:20:51.031Z</time>
      </trkpt>
      <trkpt lat="47.63433" lon="-2.10189">
        <ele>55.628447</ele>
        <time>2023-05-06T11:20:54.029Z</time>
      </trkpt>
      <trkpt lat="47.63444" lon="-2.10189">
        <ele>55.547424</ele>
        <time>2023-05-06T11:20:57.036Z</time>
      </trkpt>
      <trkpt lat="47.63457" lon="-2.1019">
        <ele>55.454771</ele>
        <time>2023-05-06T11:21:00.031Z</time>
      </trkpt>
      <trkpt lat="47.63466" lon="-2.1019">
        <ele>55.386767</ele>
        <time>2023-05-06T11:21:02.039Z</time>
      </trkpt>
      <trkpt lat="47.63477" lon="-2.1019">
        <ele>55.311523</ele>
        <time>2023-05-06T11:21:04.032Z</time>
      </trkpt>
      <trkpt lat="47.63487" lon="-2.1019">
        <ele>55.23918</ele>
        <time>2023-05-06T11:21:06.044Z</time>
      </trkpt>
      <trkpt lat="47.63496" lon="-2.1019">
        <ele>55.168264</ele>
        <time>2023-05-06T11:21:08.031Z</time>
      </trkpt>
      <trkpt lat="47.63506" lon="-2.1019">
        <ele>55.098097</ele>
        <time>2023-05-06T11:21:10.036Z</time>
      </trkpt>
      <trkpt lat="47.63515" lon="-2.1019">
        <ele>55.030101</ele>
        <time>2023-05-06T11:21:12.038Z</time>
      </trkpt>
      <trkpt lat="47.63525" lon="-2.1019">
        <ele>54.963535</ele>
        <time>2023-05-06T11:21:14.046Z</time>
      </trkpt>
      <trkpt lat="47.63537" lon="-2.10188">
        <ele>54.875519</ele>
        <time>2023-05-06T11:21:17.030Z</time>
      </trkpt>
      <trkpt lat="47.63547" lon="-2.10188">
        <ele>54.80173</ele>
        <time>2023-05-06T11:21:20.042Z</time>
      </trkpt>
      <trkpt lat="47.63555" lon="-2.1018">
        <ele>54.731347</ele>
        <time>2023-05-06T11:21:23.027Z</time>
      </trkpt>
      <trkpt lat="47.6356" lon="-2.10164">
        <ele>54.647452</ele>
        <time>2023-05-06T11:21:26.040Z</time>
      </trkpt>
      <trkpt lat="47.63561" lon="-2.10149">
        <ele>54.5715</ele>
        <time>2023-05-06T11:21:29.036Z</time>
      </trkpt>
      <trkpt lat="47.63561" lon="-2.10134">
        <ele>54.499843</ele>
        <time>2023-05-06T11:21:32.043Z</time>
      </trkpt>
      <trkpt lat="47.63562" lon="-2.1012">
        <ele>54.454645</ele>
        <time>2023-05-06T11:21:35.047Z</time>
      </trkpt>
      <trkpt lat="47.63563" lon="-2.10106">
        <ele>54.513997</ele>
        <time>2023-05-06T11:21:38.045Z</time>
      </trkpt>
      <trkpt lat="47.63566" lon="-2.10091">
        <ele>54.574909</ele>
        <time>2023-05-06T11:21:41.044Z</time>
      </trkpt>
      <trkpt lat="47.6357" lon="-2.10076">
        <ele>54.640305</ele>
        <time>2023-05-06T11:21:44.048Z</time>
      </trkpt>
      <trkpt lat="47.63575" lon="-2.1006">
        <ele>54.708621</ele>
        <time>2023-05-06T11:21:47.040Z</time>
      </trkpt>
      <trkpt lat="47.63579" lon="-2.10046">
        <ele>54.770271</ele>
        <time>2023-05-06T11:21:50.040Z</time>
      </trkpt>
      <trkpt lat="47.63584" lon="-2.10031">
        <ele>54.838586</ele>
        <time>2023-05-06T11:21:54.038Z</time>
      </trkpt>
      <trkpt lat="47.63588" lon="-2.10017">
        <ele>54.898394</ele>
        <time>2023-05-06T11:21:58.041Z</time>
      </trkpt>
      <trkpt lat="47.63592" lon="-2.10004">
        <ele>54.954312</ele>
        <time>2023-05-06T11:22:01.044Z</time>
      </trkpt>
      <trkpt lat="47.63597" lon="-2.09991">
        <ele>55.013643</ele>
        <time>2023-05-06T11:22:04.042Z</time>
      </trkpt>
      <trkpt lat="47.63602" lon="-2.09977">
        <ele>55.079469</ele>
        <time>2023-05-06T11:22:07.044Z</time>
      </trkpt>
      <trkpt lat="47.63607" lon="-2.09962">
        <ele>55.143901</ele>
        <time>2023-05-06T11:22:10.045Z</time>
      </trkpt>
      <trkpt lat="47.63611" lon="-2.09949">
        <ele>55.204379</ele>
        <time>2023-05-06T11:22:13.049Z</time>
      </trkpt>
      <trkpt lat="47.63614" lon="-2.09935">
        <ele>55.262348</ele>
        <time>2023-05-06T11:22:16.034Z</time>
      </trkpt>
      <trkpt lat="47.63618" lon="-2.09922">
        <ele>55.320209</ele>
        <time>2023-05-06T11:22:19.037Z</time>
      </trkpt>
      <trkpt lat="47.63623" lon="-2.09909">
        <ele>55.378463</ele>
        <time>2023-05-06T11:22:22.043Z</time>
      </trkpt>
      <trkpt lat="47.63627" lon="-2.09897">
        <ele>55.433606</ele>
        <time>2023-05-06T11:22:25.030Z</time>
      </trkpt>
      <trkpt lat="47.63631" lon="-2.09884">
        <ele>55.488825</ele>
        <time>2023-05-06T11:22:28.042Z</time>
      </trkpt>
      <trkpt lat="47.63636" lon="-2.09871">
        <ele>55.512741</ele>
        <time>2023-05-06T11:22:31.044Z</time>
      </trkpt>
      <trkpt lat="47.63641" lon="-2.09856">
        <ele>55.514755</ele>
        <time>2023-05-06T11:22:34.041Z</time>
      </trkpt>
      <trkpt lat="47.63645" lon="-2.09841">
        <ele>55.516848</ele>
        <time>2023-05-06T11:22:37.046Z</time>
      </trkpt>
      <trkpt lat="47.63649" lon="-2.09827">
        <ele>55.518917</ele>
        <time>2023-05-06T11:22:40.038Z</time>
      </trkpt>
      <trkpt lat="47.63654" lon="-2.09814">
        <ele>55.520783</ele>
        <time>2023-05-06T11:22:43.034Z</time>
      </trkpt>
      <trkpt lat="47.63658" lon="-2.098">
        <ele>55.522712</ele>
        <time>2023-05-06T11:22:46.042Z</time>
      </trkpt>
      <trkpt lat="47.63663" lon="-2.09786">
        <ele>55.52479</ele>
        <time>2023-05-06T11:22:49.046Z</time>
      </trkpt>
      <trkpt lat="47.63668" lon="-2.09771">
        <ele>55.526875</ele>
        <time>2023-05-06T11:22:52.048Z</time>
      </trkpt>
      <trkpt lat="47.63673" lon="-2.09756">
        <ele>55.529036</ele>
        <time>2023-05-06T11:22:55.041Z</time>
      </trkpt>
      <trkpt lat="47.63678" lon="-2.09743">
        <ele>55.530979</ele>
        <time>2023-05-06T11:22:58.039Z</time>
      </trkpt>
      <trkpt lat="47.63682" lon="-2.0973">
        <ele>55.532859</ele>
        <time>2023-05-06T11:23:01.043Z</time>
      </trkpt>
      <trkpt lat="47.63687" lon="-2.09718">
        <ele>55.534603</ele>
        <time>2023-05-06T11:23:04.043Z</time>
      </trkpt>
      <trkpt lat="47.63692" lon="-2.09703">
        <ele>55.536764</ele>
        <time>2023-05-06T11:23:08.058Z</time>
      </trkpt>
      <trkpt lat="47.63697" lon="-2.09688">
        <ele>55.53888</ele>
        <time>2023-05-06T11:23:12.043Z</time>
      </trkpt>
      <trkpt lat="47.63702" lon="-2.09673">
        <ele>55.541016</ele>
        <time>2023-05-06T11:23:16.040Z</time>
      </trkpt>
      <trkpt lat="47.63706" lon="-2.09659">
        <ele>55.543097</ele>
        <time>2023-05-06T11:23:20.047Z</time>
      </trkpt>
      <trkpt lat="47.6371" lon="-2.09644">
        <ele>55.545085</ele>
        <time>2023-05-06T11:23:24.041Z</time>
      </trkpt>
      <trkpt lat="47.63715" lon="-2.09631">
        <ele>55.438622</ele>
        <time>2023-05-06T11:23:28.043Z</time>
      </trkpt>
      <trkpt lat="47.63719" lon="-2.09616">
        <ele>55.258023</ele>
        <time>2023-05-06T11:23:32.044Z</time>
      </trkpt>
      <trkpt lat="47.63723" lon="-2.09604">
        <ele>55.103266</ele>
        <time>2023-05-06T11:23:37.038Z</time>
      </trkpt>
      <trkpt lat="47.63726" lon="-2.09591">
        <ele>54.950779</ele>
        <time>2023-05-06T11:24:43.032Z</time>
      </trkpt>
      <trkpt lat="47.63731" lon="-2.0958">
        <ele>54.79879</ele>
        <time>2023-05-06T11:26:07.045Z</time>
      </trkpt>
      <trkpt lat="47.63734" lon="-2.09566">
        <ele>54.629716</ele>
        <time>2023-05-06T11:26:14.050Z</time>
      </trkpt>
      <trkpt lat="47.63733" lon="-2.09582">
        <ele>54.452799</ele>
        <time>2023-05-06T11:26:43.037Z</time>
      </trkpt>
      <trkpt lat="47.6373" lon="-2.09595">
        <ele>54.293591</ele>
        <time>2023-05-06T11:26:47.037Z</time>
      </trkpt>
      <trkpt lat="47.63725" lon="-2.09608">
        <ele>54.122747</ele>
        <time>2023-05-06T11:26:52.043Z</time>
      </trkpt>
      <trkpt lat="47.63726" lon="-2.09595">
        <ele>53.970714</ele>
        <time>2023-05-06T11:27:00.038Z</time>
      </trkpt>
      <trkpt lat="47.6373" lon="-2.0958">
        <ele>53.799661</ele>
        <time>2023-05-06T11:27:05.040Z</time>
      </trkpt>
      <trkpt lat="47.6373" lon="-2.09594">
        <ele>53.646901</ele>
        <time>2023-05-06T11:27:19.042Z</time>
      </trkpt>
      <trkpt lat="47.63729" lon="-2.0958">
        <ele>53.492817</ele>
        <time>2023-05-06T11:27:33.032Z</time>
      </trkpt>
      <trkpt lat="47.63736" lon="-2.09561">
        <ele>53.251432</ele>
        <time>2023-05-06T11:31:25.040Z</time>
      </trkpt>
      <trkpt lat="47.63732" lon="-2.09574">
        <ele>53.091783</ele>
        <time>2023-05-06T11:31:33.036Z</time>
      </trkpt>
      <trkpt lat="47.6373" lon="-2.09589">
        <ele>52.928625</ele>
        <time>2023-05-06T11:31:38.036Z</time>
      </trkpt>
      <trkpt lat="47.63734" lon="-2.09573">
        <ele>52.741912</ele>
        <time>2023-05-06T11:39:14.043Z</time>
      </trkpt>
      <trkpt lat="47.63739" lon="-2.09562">
        <ele>52.586949</ele>
        <time>2023-05-06T11:39:39.034Z</time>
      </trkpt>
      <trkpt lat="47.63742" lon="-2.09548">
        <ele>52.519659</ele>
        <time>2023-05-06T11:39:44.036Z</time>
      </trkpt>
      <trkpt lat="47.63746" lon="-2.09534">
        <ele>52.508941</ele>
        <time>2023-05-06T11:39:48.035Z</time>
      </trkpt>
      <trkpt lat="47.6375" lon="-2.0952">
        <ele>52.498004</ele>
        <time>2023-05-06T11:39:52.036Z</time>
      </trkpt>
      <trkpt lat="47.63754" lon="-2.09505">
        <ele>52.486919</ele>
        <time>2023-05-06T11:39:56.039Z</time>
      </trkpt>
      <trkpt lat="47.63758" lon="-2.0949">
        <ele>52.47518</ele>
        <time>2023-05-06T11:40:00.047Z</time>
      </trkpt>
      <trkpt lat="47.63764" lon="-2.09476">
        <ele>52.463486</ele>
        <time>2023-05-06T11:40:04.037Z</time>
      </trkpt>
      <trkpt lat="47.63769" lon="-2.09464">
        <ele>52.453447</ele>
        <time>2023-05-06T11:40:08.028Z</time>
      </trkpt>
      <trkpt lat="47.63774" lon="-2.09452">
        <ele>52.442951</ele>
        <time>2023-05-06T11:40:12.038Z</time>
      </trkpt>
      <trkpt lat="47.63781" lon="-2.09438">
        <ele>52.430189</ele>
        <time>2023-05-06T11:40:16.042Z</time>
      </trkpt>
      <trkpt lat="47.63788" lon="-2.09427">
        <ele>52.419798</ele>
        <time>2023-05-06T11:40:19.034Z</time>
      </trkpt>
      <trkpt lat="47.63794" lon="-2.09417">
        <ele>52.409906</ele>
        <time>2023-05-06T11:40:22.034Z</time>
      </trkpt>
      <trkpt lat="47.63802" lon="-2.09406">
        <ele>52.398538</ele>
        <time>2023-05-06T11:40:26.042Z</time>
      </trkpt>
      <trkpt lat="47.63811" lon="-2.09394">
        <ele>52.38578</ele>
        <time>2023-05-06T11:40:30.040Z</time>
      </trkpt>
      <trkpt lat="47.63818" lon="-2.09385">
        <ele>52.375794</ele>
        <time>2023-05-06T11:40:33.045Z</time>
      </trkpt>
      <trkpt lat="47.63825" lon="-2.09375">
        <ele>52.36606</ele>
        <time>2023-05-06T11:40:36.044Z</time>
      </trkpt>
      <trkpt lat="47.63832" lon="-2.09367">
        <ele>52.356044</ele>
        <time>2023-05-06T11:40:39.038Z</time>
      </trkpt>
      <trkpt lat="47.6384" lon="-2.0936">
        <ele>52.34595</ele>
        <time>2023-05-06T11:40:42.041Z</time>
      </trkpt>
      <trkpt lat="47.63849" lon="-2.0935">
        <ele>52.333722</ele>
        <time>2023-05-06T11:40:46.041Z</time>
      </trkpt>
      <trkpt lat="47.63858" lon="-2.09341">
        <ele>52.296721</ele>
        <time>2023-05-06T11:40:50.038Z</time>
      </trkpt>
      <trkpt lat="47.63866" lon="-2.09335">
        <ele>52.264672</ele>
        <time>2023-05-06T11:40:53.042Z</time>
      </trkpt>
      <trkpt lat="47.63875" lon="-2.09327">
        <ele>52.230974</ele>
        <time>2023-05-06T11:40:56.039Z</time>
      </trkpt>
      <trkpt lat="47.63884" lon="-2.0932">
        <ele>52.196113</ele>
        <time>2023-05-06T11:40:59.040Z</time>
      </trkpt>
      <trkpt lat="47.63893" lon="-2.09313">
        <ele>52.162359</ele>
        <time>2023-05-06T11:41:02.045Z</time>
      </trkpt>
      <trkpt lat="47.63902" lon="-2.09307">
        <ele>52.127057</ele>
        <time>2023-05-06T11:41:05.044Z</time>
      </trkpt>
      <trkpt lat="47.63912" lon="-2.09302">
        <ele>52.092357</ele>
        <time>2023-05-06T11:41:08.043Z</time>
      </trkpt>
      <trkpt lat="47.63921" lon="-2.09296">
        <ele>52.058593</ele>
        <time>2023-05-06T11:41:11.044Z</time>
      </trkpt>
      <trkpt lat="47.6393" lon="-2.0929">
        <ele>52.027326</ele>
        <time>2023-05-06T11:41:14.044Z</time>
      </trkpt>
      <trkpt lat="47.63939" lon="-2.09284">
        <ele>51.994479</ele>
        <time>2023-05-06T11:41:17.042Z</time>
      </trkpt>
      <trkpt lat="47.63947" lon="-2.0928">
        <ele>51.963899</ele>
        <time>2023-05-06T11:41:20.047Z</time>
      </trkpt>
      <trkpt lat="47.63958" lon="-2.09275">
        <ele>51.92419</ele>
        <time>2023-05-06T11:41:24.043Z</time>
      </trkpt>
      <trkpt lat="47.63967" lon="-2.0927">
        <ele>51.893604</ele>
        <time>2023-05-06T11:41:27.041Z</time>
      </trkpt>
      <trkpt lat="47.63976" lon="-2.09265">
        <ele>51.862538</ele>
        <time>2023-05-06T11:41:30.035Z</time>
      </trkpt>
      <trkpt lat="47.63985" lon="-2.09261">
        <ele>51.830793</ele>
        <time>2023-05-06T11:41:33.038Z</time>
      </trkpt>
      <trkpt lat="47.63994" lon="-2.09258">
        <ele>51.797731</ele>
        <time>2023-05-06T11:41:36.041Z</time>
      </trkpt>
      <trkpt lat="47.64003" lon="-2.09253">
        <ele>51.766106</ele>
        <time>2023-05-06T11:41:39.036Z</time>
      </trkpt>
      <trkpt lat="47.64012" lon="-2.0925">
        <ele>51.735189</ele>
        <time>2023-05-06T11:41:42.042Z</time>
      </trkpt>
      <trkpt lat="47.64021" lon="-2.09247">
        <ele>51.490656</ele>
        <time>2023-05-06T11:41:45.042Z</time>
      </trkpt>
      <trkpt lat="47.6403" lon="-2.09244">
        <ele>51.150811</ele>
        <time>2023-05-06T11:41:48.043Z</time>
      </trkpt>
      <trkpt lat="47.6404" lon="-2.09241">
        <ele>50.820711</ele>
        <time>2023-05-06T11:41:51.048Z</time>
      </trkpt>
      <trkpt lat="47.64049" lon="-2.09239">
        <ele>50.510179</ele>
        <time>2023-05-06T11:41:54.045Z</time>
      </trkpt>
      <trkpt lat="47.64058" lon="-2.09236">
        <ele>50.183414</ele>
        <time>2023-05-06T11:41:57.047Z</time>
      </trkpt>
      <trkpt lat="47.64069" lon="-2.09233">
        <ele>49.822884</ele>
        <time>2023-05-06T11:42:00.045Z</time>
      </trkpt>
      <trkpt lat="47.6408" lon="-2.09229">
        <ele>49.441485</ele>
        <time>2023-05-06T11:42:03.045Z</time>
      </trkpt>
      <trkpt lat="47.64091" lon="-2.09226">
        <ele>49.053097</ele>
        <time>2023-05-06T11:42:06.041Z</time>
      </trkpt>
      <trkpt lat="47.64103" lon="-2.09223">
        <ele>48.660574</ele>
        <time>2023-05-06T11:42:09.041Z</time>
      </trkpt>
      <trkpt lat="47.64113" lon="-2.09221">
        <ele>48.293362</ele>
        <time>2023-05-06T11:42:12.039Z</time>
      </trkpt>
      <trkpt lat="47.64123" lon="-2.09219">
        <ele>47.967078</ele>
        <time>2023-05-06T11:42:15.044Z</time>
      </trkpt>
      <trkpt lat="47.64132" lon="-2.09219">
        <ele>47.651701</ele>
        <time>2023-05-06T11:42:18.041Z</time>
      </trkpt>
      <trkpt lat="47.64142" lon="-2.0922">
        <ele>47.315098</ele>
        <time>2023-05-06T11:42:21.035Z</time>
      </trkpt>
      <trkpt lat="47.64153" lon="-2.09221">
        <ele>46.958248</ele>
        <time>2023-05-06T11:42:24.046Z</time>
      </trkpt>
      <trkpt lat="47.64164" lon="-2.09223">
        <ele>46.584333</ele>
        <time>2023-05-06T11:42:27.038Z</time>
      </trkpt>
      <trkpt lat="47.64175" lon="-2.09225">
        <ele>46.202542</ele>
        <time>2023-05-06T11:42:30.043Z</time>
      </trkpt>
      <trkpt lat="47.64186" lon="-2.09227">
        <ele>45.821954</ele>
        <time>2023-05-06T11:42:33.041Z</time>
      </trkpt>
      <trkpt lat="47.64197" lon="-2.0923">
        <ele>45.841651</ele>
        <time>2023-05-06T11:42:36.042Z</time>
      </trkpt>
      <trkpt lat="47.64207" lon="-2.09233">
        <ele>46.243231</ele>
        <time>2023-05-06T11:42:39.041Z</time>
      </trkpt>
      <trkpt lat="47.64218" lon="-2.09235">
        <ele>46.644646</ele>
        <time>2023-05-06T11:42:42.042Z</time>
      </trkpt>
      <trkpt lat="47.64228" lon="-2.09237">
        <ele>47.020587</ele>
        <time>2023-05-06T11:42:45.046Z</time>
      </trkpt>
      <trkpt lat="47.64239" lon="-2.09238">
        <ele>47.396382</ele>
        <time>2023-05-06T11:42:48.048Z</time>
      </trkpt>
      <trkpt lat="47.6425" lon="-2.0924">
        <ele>47.810594</ele>
        <time>2023-05-06T11:42:51.040Z</time>
      </trkpt>
      <trkpt lat="47.64261" lon="-2.09242">
        <ele>48.232935</ele>
        <time>2023-05-06T11:42:54.045Z</time>
      </trkpt>
      <trkpt lat="47.64272" lon="-2.09245">
        <ele>48.643137</ele>
        <time>2023-05-06T11:42:57.045Z</time>
      </trkpt>
      <trkpt lat="47.64283" lon="-2.09247">
        <ele>49.045287</ele>
        <time>2023-05-06T11:43:00.038Z</time>
      </trkpt>
      <trkpt lat="47.64293" lon="-2.09249">
        <ele>49.422159</ele>
        <time>2023-05-06T11:43:03.058Z</time>
      </trkpt>
      <trkpt lat="47.64302" lon="-2.09253">
        <ele>49.767289</ele>
        <time>2023-05-06T11:43:07.048Z</time>
      </trkpt>
      <trkpt lat="47.64295" lon="-2.09262">
        <ele>50.105247</ele>
        <time>2023-05-06T11:43:12.040Z</time>
      </trkpt>
      <trkpt lat="47.64297" lon="-2.09275">
        <ele>50.442583</ele>
        <time>2023-05-06T11:43:16.037Z</time>
      </trkpt>
      <trkpt lat="47.64301" lon="-2.09289">
        <ele>50.814977</ele>
        <time>2023-05-06T11:43:20.035Z</time>
      </trkpt>
      <trkpt lat="47.64305" lon="-2.09302">
        <ele>51.171738</ele>
        <time>2023-05-06T11:43:24.046Z</time>
      </trkpt>
      <trkpt lat="47.64304" lon="-2.09316">
        <ele>51.519484</ele>
        <time>2023-05-06T11:43:28.039Z</time>
      </trkpt>
      <trkpt lat="47.64294" lon="-2.09322">
        <ele>51.912072</ele>
        <time>2023-05-06T11:43:33.042Z</time>
      </trkpt>
      <trkpt lat="47.64285" lon="-2.09325">
        <ele>52.24679</ele>
        <time>2023-05-06T11:43:38.040Z</time>
      </trkpt>
      <trkpt lat="47.64297" lon="-2.09338">
        <ele>52.138975</ele>
        <time>2023-05-06T12:00:20.039Z</time>
      </trkpt>
      <trkpt lat="47.64288" lon="-2.09339">
        <ele>52.066655</ele>
        <time>2023-05-06T12:07:19.036Z</time>
      </trkpt>
      <trkpt lat="47.6429" lon="-2.09325">
        <ele>51.992118</ele>
        <time>2023-05-06T12:09:53.044Z</time>
      </trkpt>
      <trkpt lat="47.64296" lon="-2.09315">
        <ele>51.917191</ele>
        <time>2023-05-06T12:16:05.047Z</time>
      </trkpt>
      <trkpt lat="47.64307" lon="-2.09312">
        <ele>51.827577</ele>
        <time>2023-05-06T12:16:09.039Z</time>
      </trkpt>
      <trkpt lat="47.64315" lon="-2.09323">
        <ele>51.74205</ele>
        <time>2023-05-06T12:16:13.038Z</time>
      </trkpt>
      <trkpt lat="47.64323" lon="-2.09318">
        <ele>51.669359</ele>
        <time>2023-05-06T12:16:18.044Z</time>
      </trkpt>
      <trkpt lat="47.64329" lon="-2.09307">
        <ele>51.593777</ele>
        <time>2023-05-06T12:16:31.038Z</time>
      </trkpt>
      <trkpt lat="47.64333" lon="-2.09291">
        <ele>51.503865</ele>
        <time>2023-05-06T12:16:36.041Z</time>
      </trkpt>
      <trkpt lat="47.64335" lon="-2.09276">
        <ele>51.417362</ele>
        <time>2023-05-06T12:16:40.039Z</time>
      </trkpt>
      <trkpt lat="47.64336" lon="-2.09259">
        <ele>51.326415</ele>
        <time>2023-05-06T12:16:44.045Z</time>
      </trkpt>
      <trkpt lat="47.64338" lon="-2.09246">
        <ele>51.253978</ele>
        <time>2023-05-06T12:16:47.049Z</time>
      </trkpt>
      <trkpt lat="47.64342" lon="-2.09234">
        <ele>51.180299</ele>
        <time>2023-05-06T12:16:50.044Z</time>
      </trkpt>
      <trkpt lat="47.64349" lon="-2.09223">
        <ele>51.102144</ele>
        <time>2023-05-06T12:16:53.031Z</time>
      </trkpt>
      <trkpt lat="47.64356" lon="-2.09213">
        <ele>51.023596</ele>
        <time>2023-05-06T12:16:56.048Z</time>
      </trkpt>
      <trkpt lat="47.64363" lon="-2.09203">
        <ele>50.94529</ele>
        <time>2023-05-06T12:16:59.052Z</time>
      </trkpt>
      <trkpt lat="47.6437" lon="-2.09192">
        <ele>50.862614</ele>
        <time>2023-05-06T12:17:02.036Z</time>
      </trkpt>
      <trkpt lat="47.64377" lon="-2.09181">
        <ele>50.867661</ele>
        <time>2023-05-06T12:17:05.044Z</time>
      </trkpt>
      <trkpt lat="47.64384" lon="-2.0917">
        <ele>51.012643</ele>
        <time>2023-05-06T12:17:08.050Z</time>
      </trkpt>
      <trkpt lat="47.64391" lon="-2.09159">
        <ele>51.161415</ele>
        <time>2023-05-06T12:17:11.034Z</time>
      </trkpt>
      <trkpt lat="47.64397" lon="-2.09149">
        <ele>51.302542</ele>
        <time>2023-05-06T12:17:14.034Z</time>
      </trkpt>
      <trkpt lat="47.64404" lon="-2.09139">
        <ele>51.44146</ele>
        <time>2023-05-06T12:17:17.047Z</time>
      </trkpt>
      <trkpt lat="47.64411" lon="-2.09129">
        <ele>51.587914</ele>
        <time>2023-05-06T12:17:20.035Z</time>
      </trkpt>
      <trkpt lat="47.64418" lon="-2.09118">
        <ele>51.733934</ele>
        <time>2023-05-06T12:17:23.042Z</time>
      </trkpt>
      <trkpt lat="47.64425" lon="-2.09108">
        <ele>51.880999</ele>
        <time>2023-05-06T12:17:26.036Z</time>
      </trkpt>
      <trkpt lat="47.64432" lon="-2.09097">
        <ele>52.033658</ele>
        <time>2023-05-06T12:17:29.026Z</time>
      </trkpt>
      <trkpt lat="47.6444" lon="-2.09087">
        <ele>52.181084</ele>
        <time>2023-05-06T12:17:32.034Z</time>
      </trkpt>
      <trkpt lat="47.64447" lon="-2.09078">
        <ele>52.3218</ele>
        <time>2023-05-06T12:17:35.039Z</time>
      </trkpt>
      <trkpt lat="47.64455" lon="-2.09069">
        <ele>52.468013</ele>
        <time>2023-05-06T12:17:39.032Z</time>
      </trkpt>
      <trkpt lat="47.64464" lon="-2.09061">
        <ele>52.620152</ele>
        <time>2023-05-06T12:17:44.040Z</time>
      </trkpt>
      <trkpt lat="47.64469" lon="-2.0905">
        <ele>52.759486</ele>
        <time>2023-05-06T12:17:51.045Z</time>
      </trkpt>
      <trkpt lat="47.64478" lon="-2.09042">
        <ele>52.912463</ele>
        <time>2023-05-06T12:18:18.040Z</time>
      </trkpt>
      <trkpt lat="47.64486" lon="-2.09032">
        <ele>53.064862</ele>
        <time>2023-05-06T12:18:22.045Z</time>
      </trkpt>
      <trkpt lat="47.64495" lon="-2.0902">
        <ele>53.244596</ele>
        <time>2023-05-06T12:18:26.041Z</time>
      </trkpt>
      <trkpt lat="47.64569" lon="-2.07385">
        <ele>45.267094</ele>
        <time>2023-05-06T12:30:15.037Z</time>
      </trkpt>
      <trkpt lat="47.64563" lon="-2.07395">
        <ele>45.294014</ele>
        <time>2023-05-06T12:30:34.038Z</time>
      </trkpt>
      <trkpt lat="47.64559" lon="-2.07407">
        <ele>45.319584</ele>
        <time>2023-05-06T12:30:46.041Z</time>
      </trkpt>
      <trkpt lat="47.64552" lon="-2.07417">
        <ele>45.344883</ele>
        <time>2023-05-06T12:31:00.041Z</time>
      </trkpt>
      <trkpt lat="47.64571" lon="-2.07385">
        <ele>45.425266</ele>
        <time>2023-05-06T12:31:35.031Z</time>
      </trkpt>
      <trkpt lat="47.64576" lon="-2.07373">
        <ele>45.453179</ele>
        <time>2023-05-06T12:31:39.025Z</time>
      </trkpt>
      <trkpt lat="47.64586" lon="-2.0737">
        <ele>45.4793</ele>
        <time>2023-05-06T12:31:50.027Z</time>
      </trkpt>
      <trkpt lat="47.64602" lon="-2.07373">
        <ele>45.525479</ele>
        <time>2023-05-06T12:32:16.029Z</time>
      </trkpt>
      <trkpt lat="47.64597" lon="-2.07385">
        <ele>45.551438</ele>
        <time>2023-05-06T12:32:20.033Z</time>
      </trkpt>
      <trkpt lat="47.64595" lon="-2.0737">
        <ele>45.579935</ele>
        <time>2023-05-06T12:32:35.028Z</time>
      </trkpt>
      <trkpt lat="47.64588" lon="-2.07378">
        <ele>45.605259</ele>
        <time>2023-05-06T12:32:49.024Z</time>
      </trkpt>
      <trkpt lat="47.64599" lon="-2.0739">
        <ele>45.6433</ele>
        <time>2023-05-06T12:32:58.026Z</time>
      </trkpt>
      <trkpt lat="47.64599" lon="-2.07406">
        <ele>45.673511</ele>
        <time>2023-05-06T12:33:01.035Z</time>
      </trkpt>
      <trkpt lat="47.64598" lon="-2.07392">
        <ele>45.700062</ele>
        <time>2023-05-06T12:33:12.047Z</time>
      </trkpt>
      <trkpt lat="47.6459" lon="-2.07399">
        <ele>45.725532</ele>
        <time>2023-05-06T12:33:18.037Z</time>
      </trkpt>
      <trkpt lat="47.64594" lon="-2.07386">
        <ele>46.006791</ele>
        <time>2023-05-06T12:33:28.024Z</time>
      </trkpt>
      <trkpt lat="47.64587" lon="-2.07376">
        <ele>46.773711</ele>
        <time>2023-05-06T12:33:34.027Z</time>
      </trkpt>
      <trkpt lat="47.64621" lon="-2.0738">
        <ele>49.492025</ele>
        <time>2023-05-06T12:35:11.030Z</time>
      </trkpt>
      <trkpt lat="47.6461" lon="-2.07381">
        <ele>50.393648</ele>
        <time>2023-05-06T12:35:18.032Z</time>
      </trkpt>
      <trkpt lat="47.64601" lon="-2.07386">
        <ele>51.1444</ele>
        <time>2023-05-06T12:35:23.035Z</time>
      </trkpt>
      <trkpt lat="47.64574" lon="-2.07379">
        <ele>53.342084</ele>
        <time>2023-05-06T12:54:13.047Z</time>
      </trkpt>
      <trkpt lat="47.6457" lon="-2.07355">
        <ele>54.669948</ele>
        <time>2023-05-06T12:55:06.044Z</time>
      </trkpt>
      <trkpt lat="47.6457" lon="-2.07369">
        <ele>55.401533</ele>
        <time>2023-05-06T12:57:36.040Z</time>
      </trkpt>
      <trkpt lat="47.64571" lon="-2.07382">
        <ele>56.132641</ele>
        <time>2023-05-06T13:17:26.036Z</time>
      </trkpt>
      <trkpt lat="47.64562" lon="-2.07395">
        <ele>57.114311</ele>
        <time>2023-05-06T13:18:30.033Z</time>
      </trkpt>
      <trkpt lat="47.64557" lon="-2.07406">
        <ele>57.844403</ele>
        <time>2023-05-06T13:18:35.039Z</time>
      </trkpt>
      <trkpt lat="47.64554" lon="-2.07421">
        <ele>58.67624</ele>
        <time>2023-05-06T13:18:40.045Z</time>
      </trkpt>
      <trkpt lat="47.64551" lon="-2.07434">
        <ele>59.424205</ele>
        <time>2023-05-06T13:18:45.045Z</time>
      </trkpt>
      <trkpt lat="47.64549" lon="-2.0745">
        <ele>59.996736</ele>
        <time>2023-05-06T13:18:51.041Z</time>
      </trkpt>
      <trkpt lat="47.64545" lon="-2.07465">
        <ele>59.62033</ele>
        <time>2023-05-06T13:18:56.040Z</time>
      </trkpt>
      <trkpt lat="47.6454" lon="-2.07476">
        <ele>59.281031</ele>
        <time>2023-05-06T13:19:02.033Z</time>
      </trkpt>
      <trkpt lat="47.6453" lon="-2.07473">
        <ele>58.926246</ele>
        <time>2023-05-06T13:19:10.038Z</time>
      </trkpt>
      <trkpt lat="47.64522" lon="-2.07462">
        <ele>58.545072</ele>
        <time>2023-05-06T13:19:16.036Z</time>
      </trkpt>
      <trkpt lat="47.64518" lon="-2.0745">
        <ele>58.221899</ele>
        <time>2023-05-06T13:19:22.025Z</time>
      </trkpt>
      <trkpt lat="47.64513" lon="-2.07435">
        <ele>57.835617</ele>
        <time>2023-05-06T13:19:28.037Z</time>
      </trkpt>
      <trkpt lat="47.64509" lon="-2.07422">
        <ele>57.501764</ele>
        <time>2023-05-06T13:19:32.040Z</time>
      </trkpt>
      <trkpt lat="47.64505" lon="-2.07409">
        <ele>57.151056</ele>
        <time>2023-05-06T13:19:36.039Z</time>
      </trkpt>
      <trkpt lat="47.64501" lon="-2.07396">
        <ele>56.822392</ele>
        <time>2023-05-06T13:19:40.036Z</time>
      </trkpt>
      <trkpt lat="47.64496" lon="-2.07384">
        <ele>56.499428</ele>
        <time>2023-05-06T13:19:45.038Z</time>
      </trkpt>
      <trkpt lat="47.64493" lon="-2.0737">
        <ele>56.146478</ele>
        <time>2023-05-06T13:19:51.047Z</time>
      </trkpt>
      <trkpt lat="47.64488" lon="-2.07358">
        <ele>55.829302</ele>
        <time>2023-05-06T13:19:55.039Z</time>
      </trkpt>
      <trkpt lat="47.64485" lon="-2.07345">
        <ele>55.500756</ele>
        <time>2023-05-06T13:19:59.024Z</time>
      </trkpt>
      <trkpt lat="47.64481" lon="-2.07332">
        <ele>55.160995</ele>
        <time>2023-05-06T13:20:03.031Z</time>
      </trkpt>
      <trkpt lat="47.64477" lon="-2.07319">
        <ele>54.81817</ele>
        <time>2023-05-06T13:20:07.042Z</time>
      </trkpt>
      <trkpt lat="47.64472" lon="-2.07306">
        <ele>54.468604</ele>
        <time>2023-05-06T13:20:11.033Z</time>
      </trkpt>
      <trkpt lat="47.64467" lon="-2.07292">
        <ele>54.094343</ele>
        <time>2023-05-06T13:20:15.036Z</time>
      </trkpt>
      <trkpt lat="47.64464" lon="-2.07278">
        <ele>53.801988</ele>
        <time>2023-05-06T13:20:20.041Z</time>
      </trkpt>
      <trkpt lat="47.64459" lon="-2.07265">
        <ele>53.796091</ele>
        <time>2023-05-06T13:20:25.033Z</time>
      </trkpt>
      <trkpt lat="47.64455" lon="-2.07253">
        <ele>53.790672</ele>
        <time>2023-05-06T13:20:30.034Z</time>
      </trkpt>
      <trkpt lat="47.64451" lon="-2.07239">
        <ele>53.784678</ele>
        <time>2023-05-06T13:20:35.040Z</time>
      </trkpt>
      <trkpt lat="47.64447" lon="-2.07226">
        <ele>53.778981</ele>
        <time>2023-05-06T13:20:39.038Z</time>
      </trkpt>
      <trkpt lat="47.64442" lon="-2.07214">
        <ele>53.773378</ele>
        <time>2023-05-06T13:20:43.038Z</time>
      </trkpt>
      <trkpt lat="47.64437" lon="-2.07199">
        <ele>53.76676</ele>
        <time>2023-05-06T13:20:48.034Z</time>
      </trkpt>
      <trkpt lat="47.64434" lon="-2.07184">
        <ele>53.760505</ele>
        <time>2023-05-06T13:20:53.044Z</time>
      </trkpt>
      <trkpt lat="47.64429" lon="-2.07173">
        <ele>53.755047</ele>
        <time>2023-05-06T13:20:57.048Z</time>
      </trkpt>
      <trkpt lat="47.64422" lon="-2.07159">
        <ele>53.748567</ele>
        <time>2023-05-06T13:21:02.041Z</time>
      </trkpt>
      <trkpt lat="47.64414" lon="-2.07151">
        <ele>53.742672</ele>
        <time>2023-05-06T13:21:07.036Z</time>
      </trkpt>
      <trkpt lat="47.64406" lon="-2.07143">
        <ele>53.736893</ele>
        <time>2023-05-06T13:21:14.035Z</time>
      </trkpt>
      <trkpt lat="47.64398" lon="-2.07138">
        <ele>53.731536</ele>
        <time>2023-05-06T13:21:21.035Z</time>
      </trkpt>
      <trkpt lat="47.64388" lon="-2.0713">
        <ele>53.725156</ele>
        <time>2023-05-06T13:21:37.030Z</time>
      </trkpt>
      <trkpt lat="47.64378" lon="-2.07125">
        <ele>53.718926</ele>
        <time>2023-05-06T13:21:42.034Z</time>
      </trkpt>
      <trkpt lat="47.64368" lon="-2.07122">
        <ele>53.712716</ele>
        <time>2023-05-06T13:21:46.034Z</time>
      </trkpt>
      <trkpt lat="47.64357" lon="-2.07119">
        <ele>53.706288</ele>
        <time>2023-05-06T13:21:50.032Z</time>
      </trkpt>
      <trkpt lat="47.64348" lon="-2.07115">
        <ele>53.700544</ele>
        <time>2023-05-06T13:21:54.040Z</time>
      </trkpt>
      <trkpt lat="47.64337" lon="-2.07115">
        <ele>53.729644</ele>
        <time>2023-05-06T13:21:59.038Z</time>
      </trkpt>
      <trkpt lat="47.64327" lon="-2.07116">
        <ele>53.820326</ele>
        <time>2023-05-06T13:22:03.035Z</time>
      </trkpt>
      <trkpt lat="47.64318" lon="-2.07118">
        <ele>53.902613</ele>
        <time>2023-05-06T13:22:07.040Z</time>
      </trkpt>
      <trkpt lat="47.64307" lon="-2.07121">
        <ele>54.000724</ele>
        <time>2023-05-06T13:22:12.036Z</time>
      </trkpt>
      <trkpt lat="47.64297" lon="-2.07123">
        <ele>54.093739</ele>
        <time>2023-05-06T13:22:18.038Z</time>
      </trkpt>
      <trkpt lat="47.6429" lon="-2.07134">
        <ele>54.182427</ele>
        <time>2023-05-06T13:22:24.036Z</time>
      </trkpt>
      <trkpt lat="47.64292" lon="-2.07149">
        <ele>54.275285</ele>
        <time>2023-05-06T13:22:29.036Z</time>
      </trkpt>
      <trkpt lat="47.64296" lon="-2.07163">
        <ele>54.368191</ele>
        <time>2023-05-06T13:22:35.031Z</time>
      </trkpt>
      <trkpt lat="47.64295" lon="-2.07178">
        <ele>54.459504</ele>
        <time>2023-05-06T13:22:40.040Z</time>
      </trkpt>
      <trkpt lat="47.64284" lon="-2.07184">
        <ele>54.561505</ele>
        <time>2023-05-06T13:22:44.042Z</time>
      </trkpt>
      <trkpt lat="47.64275" lon="-2.07186">
        <ele>54.64371</ele>
        <time>2023-05-06T13:22:46.037Z</time>
      </trkpt>
      <trkpt lat="47.64265" lon="-2.07189">
        <ele>54.740207</ele>
        <time>2023-05-06T13:22:48.039Z</time>
      </trkpt>
      <trkpt lat="47.64254" lon="-2.07194">
        <ele>54.842378</ele>
        <time>2023-05-06T13:22:50.035Z</time>
      </trkpt>
      <trkpt lat="47.64244" lon="-2.07199">
        <ele>54.938193</ele>
        <time>2023-05-06T13:22:52.034Z</time>
      </trkpt>
      <trkpt lat="47.64233" lon="-2.07205">
        <ele>55.038726</ele>
        <time>2023-05-06T13:22:54.025Z</time>
      </trkpt>
      <trkpt lat="47.64223" lon="-2.0721">
        <ele>55.131324</ele>
        <time>2023-05-06T13:22:56.034Z</time>
      </trkpt>
      <trkpt lat="47.64214" lon="-2.07217">
        <ele>55.228169</ele>
        <time>2023-05-06T13:22:58.036Z</time>
      </trkpt>
      <trkpt lat="47.64201" lon="-2.0722">
        <ele>55.352765</ele>
        <time>2023-05-06T13:23:00.044Z</time>
      </trkpt>
      <trkpt lat="47.64192" lon="-2.07223">
        <ele>55.47448</ele>
        <time>2023-05-06T13:23:02.042Z</time>
      </trkpt>
      <trkpt lat="47.64182" lon="-2.07227">
        <ele>55.605141</ele>
        <time>2023-05-06T13:23:04.039Z</time>
      </trkpt>
      <trkpt lat="47.64172" lon="-2.07231">
        <ele>55.734082</ele>
        <time>2023-05-06T13:23:06.043Z</time>
      </trkpt>
      <trkpt lat="47.64163" lon="-2.07235">
        <ele>55.860611</ele>
        <time>2023-05-06T13:23:08.041Z</time>
      </trkpt>
      <trkpt lat="47.64152" lon="-2.07241">
        <ele>56.013178</ele>
        <time>2023-05-06T13:23:11.039Z</time>
      </trkpt>
      <trkpt lat="47.64139" lon="-2.07245">
        <ele>56.173638</ele>
        <time>2023-05-06T13:23:14.026Z</time>
      </trkpt>
      <trkpt lat="47.64127" lon="-2.07253">
        <ele>56.338554</ele>
        <time>2023-05-06T13:23:18.039Z</time>
      </trkpt>
      <trkpt lat="47.64118" lon="-2.07256">
        <ele>56.458876</ele>
        <time>2023-05-06T13:23:21.038Z</time>
      </trkpt>
      <trkpt lat="47.64109" lon="-2.07259">
        <ele>56.583418</ele>
        <time>2023-05-06T13:23:25.038Z</time>
      </trkpt>
      <trkpt lat="47.64098" lon="-2.07263">
        <ele>56.725755</ele>
        <time>2023-05-06T13:23:29.038Z</time>
      </trkpt>
      <trkpt lat="47.64088" lon="-2.07268">
        <ele>56.85158</ele>
        <time>2023-05-06T13:23:32.035Z</time>
      </trkpt>
      <trkpt lat="47.64079" lon="-2.07271">
        <ele>56.97542</ele>
        <time>2023-05-06T13:23:35.036Z</time>
      </trkpt>
      <trkpt lat="47.64068" lon="-2.07275">
        <ele>57.116568</ele>
        <time>2023-05-06T13:23:38.039Z</time>
      </trkpt>
      <trkpt lat="47.64057" lon="-2.07279">
        <ele>57.255674</ele>
        <time>2023-05-06T13:23:41.035Z</time>
      </trkpt>
      <trkpt lat="47.64048" lon="-2.07281">
        <ele>57.381295</ele>
        <time>2023-05-06T13:23:44.041Z</time>
      </trkpt>
      <trkpt lat="47.64038" lon="-2.07285">
        <ele>57.505729</ele>
        <time>2023-05-06T13:23:47.032Z</time>
      </trkpt>
      <trkpt lat="47.64029" lon="-2.07289">
        <ele>57.658274</ele>
        <time>2023-05-06T13:23:50.038Z</time>
      </trkpt>
      <trkpt lat="47.64019" lon="-2.07293">
        <ele>57.875837</ele>
        <time>2023-05-06T13:23:53.036Z</time>
      </trkpt>
      <trkpt lat="47.64008" lon="-2.07296">
        <ele>58.145965</ele>
        <time>2023-05-06T13:23:57.038Z</time>
      </trkpt>
      <trkpt lat="47.63996" lon="-2.073">
        <ele>58.401504</ele>
        <time>2023-05-06T13:24:00.038Z</time>
      </trkpt>
      <trkpt lat="47.63987" lon="-2.07304">
        <ele>58.626331</ele>
        <time>2023-05-06T13:24:03.034Z</time>
      </trkpt>
      <trkpt lat="47.63978" lon="-2.07308">
        <ele>58.827598</ele>
        <time>2023-05-06T13:24:06.037Z</time>
      </trkpt>
      <trkpt lat="47.63968" lon="-2.07312">
        <ele>59.055384</ele>
        <time>2023-05-06T13:24:09.039Z</time>
      </trkpt>
      <trkpt lat="47.63958" lon="-2.07316">
        <ele>59.286317</ele>
        <time>2023-05-06T13:24:12.038Z</time>
      </trkpt>
      <trkpt lat="47.63947" lon="-2.07319">
        <ele>59.552472</ele>
        <time>2023-05-06T13:24:15.035Z</time>
      </trkpt>
      <trkpt lat="47.63937" lon="-2.07323">
        <ele>59.781238</ele>
        <time>2023-05-06T13:24:18.035Z</time>
      </trkpt>
      <trkpt lat="47.63927" lon="-2.07326">
        <ele>60.003217</ele>
        <time>2023-05-06T13:24:21.035Z</time>
      </trkpt>
      <trkpt lat="47.63918" lon="-2.07329">
        <ele>60.21607</ele>
        <time>2023-05-06T13:24:24.025Z</time>
      </trkpt>
      <trkpt lat="47.63908" lon="-2.07332">
        <ele>60.432183</ele>
        <time>2023-05-06T13:24:27.036Z</time>
      </trkpt>
      <trkpt lat="47.63898" lon="-2.07335">
        <ele>60.658232</ele>
        <time>2023-05-06T13:24:30.040Z</time>
      </trkpt>
      <trkpt lat="47.63889" lon="-2.07339">
        <ele>60.885613</ele>
        <time>2023-05-06T13:24:33.034Z</time>
      </trkpt>
      <trkpt lat="47.63879" lon="-2.07344">
        <ele>61.116018</ele>
        <time>2023-05-06T13:24:36.042Z</time>
      </trkpt>
      <trkpt lat="47.63869" lon="-2.07347">
        <ele>61.342619</ele>
        <time>2023-05-06T13:24:39.045Z</time>
      </trkpt>
      <trkpt lat="47.63858" lon="-2.0735">
        <ele>61.583226</ele>
        <time>2023-05-06T13:24:42.041Z</time>
      </trkpt>
      <trkpt lat="47.63848" lon="-2.07353">
        <ele>61.516731</ele>
        <time>2023-05-06T13:24:45.050Z</time>
      </trkpt>
      <trkpt lat="47.63838" lon="-2.07356">
        <ele>61.400593</ele>
        <time>2023-05-06T13:24:48.041Z</time>
      </trkpt>
      <trkpt lat="47.63827" lon="-2.07359">
        <ele>61.275118</ele>
        <time>2023-05-06T13:24:51.042Z</time>
      </trkpt>
      <trkpt lat="47.63816" lon="-2.07364">
        <ele>61.144507</ele>
        <time>2023-05-06T13:24:54.024Z</time>
      </trkpt>
      <trkpt lat="47.63805" lon="-2.07368">
        <ele>61.025221</ele>
        <time>2023-05-06T13:24:57.026Z</time>
      </trkpt>
      <trkpt lat="47.63794" lon="-2.07372">
        <ele>60.895201</ele>
        <time>2023-05-06T13:25:00.020Z</time>
      </trkpt>
      <trkpt lat="47.63782" lon="-2.07377">
        <ele>60.753567</ele>
        <time>2023-05-06T13:25:03.038Z</time>
      </trkpt>
      <trkpt lat="47.63773" lon="-2.07381">
        <ele>60.646399</ele>
        <time>2023-05-06T13:25:05.031Z</time>
      </trkpt>
      <trkpt lat="47.6376" lon="-2.07385">
        <ele>60.497566</ele>
        <time>2023-05-06T13:25:09.040Z</time>
      </trkpt>
      <trkpt lat="47.6375" lon="-2.07388">
        <ele>60.387153</ele>
        <time>2023-05-06T13:25:12.037Z</time>
      </trkpt>
      <trkpt lat="47.63741" lon="-2.07391">
        <ele>60.278582</ele>
        <time>2023-05-06T13:25:15.032Z</time>
      </trkpt>
      <trkpt lat="47.63731" lon="-2.07394">
        <ele>60.168491</ele>
        <time>2023-05-06T13:25:18.034Z</time>
      </trkpt>
      <trkpt lat="47.63721" lon="-2.07398">
        <ele>60.05101</ele>
        <time>2023-05-06T13:25:21.031Z</time>
      </trkpt>
      <trkpt lat="47.63711" lon="-2.07401">
        <ele>59.938072</ele>
        <time>2023-05-06T13:25:24.040Z</time>
      </trkpt>
      <trkpt lat="47.63702" lon="-2.07404">
        <ele>59.830908</ele>
        <time>2023-05-06T13:25:27.046Z</time>
      </trkpt>
      <trkpt lat="47.63691" lon="-2.07409">
        <ele>59.700089</ele>
        <time>2023-05-06T13:25:31.026Z</time>
      </trkpt>
      <trkpt lat="47.63679" lon="-2.07413">
        <ele>59.597592</ele>
        <time>2023-05-06T13:25:35.041Z</time>
      </trkpt>
      <trkpt lat="47.63669" lon="-2.07417">
        <ele>59.593385</ele>
        <time>2023-05-06T13:25:38.027Z</time>
      </trkpt>
      <trkpt lat="47.63657" lon="-2.07419">
        <ele>59.588236</ele>
        <time>2023-05-06T13:25:42.043Z</time>
      </trkpt>
      <trkpt lat="47.63648" lon="-2.0742">
        <ele>59.584085</ele>
        <time>2023-05-06T13:25:45.036Z</time>
      </trkpt>
      <trkpt lat="47.63639" lon="-2.07424">
        <ele>59.58016</ele>
        <time>2023-05-06T13:25:48.027Z</time>
      </trkpt>
      <trkpt lat="47.63628" lon="-2.07429">
        <ele>59.575239</ele>
        <time>2023-05-06T13:25:52.024Z</time>
      </trkpt>
      <trkpt lat="47.63617" lon="-2.07432">
        <ele>59.570652</ele>
        <time>2023-05-06T13:25:56.022Z</time>
      </trkpt>
      <trkpt lat="47.63606" lon="-2.07436">
        <ele>59.565796</ele>
        <time>2023-05-06T13:26:00.031Z</time>
      </trkpt>
      <trkpt lat="47.63598" lon="-2.07442">
        <ele>59.56188</ele>
        <time>2023-05-06T13:26:03.042Z</time>
      </trkpt>
      <trkpt lat="47.63587" lon="-2.07447">
        <ele>59.557016</ele>
        <time>2023-05-06T13:26:07.035Z</time>
      </trkpt>
      <trkpt lat="47.63577" lon="-2.07452">
        <ele>59.552454</ele>
        <time>2023-05-06T13:26:11.018Z</time>
      </trkpt>
      <trkpt lat="47.63566" lon="-2.07454">
        <ele>59.54783</ele>
        <time>2023-05-06T13:26:15.031Z</time>
      </trkpt>
      <trkpt lat="47.63557" lon="-2.07458">
        <ele>59.543929</ele>
        <time>2023-05-06T13:26:18.034Z</time>
      </trkpt>
      <trkpt lat="47.63546" lon="-2.07462">
        <ele>59.539096</ele>
        <time>2023-05-06T13:26:22.029Z</time>
      </trkpt>
      <trkpt lat="47.63536" lon="-2.07468">
        <ele>59.534677</ele>
        <time>2023-05-06T13:26:26.039Z</time>
      </trkpt>
      <trkpt lat="47.63527" lon="-2.07474">
        <ele>59.530237</ele>
        <time>2023-05-06T13:26:30.030Z</time>
      </trkpt>
      <trkpt lat="47.63515" lon="-2.07476">
        <ele>59.525429</ele>
        <time>2023-05-06T13:26:34.044Z</time>
      </trkpt>
      <trkpt lat="47.63505" lon="-2.07479">
        <ele>59.471457</ele>
        <time>2023-05-06T13:26:37.032Z</time>
      </trkpt>
      <trkpt lat="47.63493" lon="-2.07481">
        <ele>59.267924</ele>
        <time>2023-05-06T13:26:40.033Z</time>
      </trkpt>
      <trkpt lat="47.63484" lon="-2.07483">
        <ele>59.111985</ele>
        <time>2023-05-06T13:26:42.035Z</time>
      </trkpt>
      <trkpt lat="47.63474" lon="-2.07487">
        <ele>58.946312</ele>
        <time>2023-05-06T13:26:44.037Z</time>
      </trkpt>
      <trkpt lat="47.63466" lon="-2.0749">
        <ele>58.793817</ele>
        <time>2023-05-06T13:26:46.035Z</time>
      </trkpt>
      <trkpt lat="47.63456" lon="-2.07494">
        <ele>58.631397</ele>
        <time>2023-05-06T13:26:48.044Z</time>
      </trkpt>
      <trkpt lat="47.63445" lon="-2.07499">
        <ele>58.430958</ele>
        <time>2023-05-06T13:26:51.043Z</time>
      </trkpt>
      <trkpt lat="47.63433" lon="-2.07503">
        <ele>58.236901</ele>
        <time>2023-05-06T13:26:54.026Z</time>
      </trkpt>
      <trkpt lat="47.63424" lon="-2.07505">
        <ele>58.073623</ele>
        <time>2023-05-06T13:26:57.038Z</time>
      </trkpt>
      <trkpt lat="47.63412" lon="-2.07511">
        <ele>57.87191</ele>
        <time>2023-05-06T13:27:00.060Z</time>
      </trkpt>
      <trkpt lat="47.634" lon="-2.07516">
        <ele>57.667623</ele>
        <time>2023-05-06T13:27:03.016Z</time>
      </trkpt>
      <trkpt lat="47.63391" lon="-2.07519">
        <ele>57.510574</ele>
        <time>2023-05-06T13:27:05.036Z</time>
      </trkpt>
      <trkpt lat="47.63379" lon="-2.07523">
        <ele>57.306372</ele>
        <time>2023-05-06T13:27:08.035Z</time>
      </trkpt>
      <trkpt lat="47.63369" lon="-2.07526">
        <ele>57.136272</ele>
        <time>2023-05-06T13:27:11.038Z</time>
      </trkpt>
      <trkpt lat="47.63358" lon="-2.07527">
        <ele>56.944138</ele>
        <time>2023-05-06T13:27:15.026Z</time>
      </trkpt>
      <trkpt lat="47.63346" lon="-2.07532">
        <ele>56.748026</ele>
        <time>2023-05-06T13:27:19.043Z</time>
      </trkpt>
      <trkpt lat="47.63337" lon="-2.07534">
        <ele>56.594649</ele>
        <time>2023-05-06T13:27:22.031Z</time>
      </trkpt>
      <trkpt lat="47.63328" lon="-2.07537">
        <ele>56.43259</ele>
        <time>2023-05-06T13:27:26.034Z</time>
      </trkpt>
      <trkpt lat="47.63317" lon="-2.07539">
        <ele>56.245172</ele>
        <time>2023-05-06T13:27:30.032Z</time>
      </trkpt>
      <trkpt lat="47.63308" lon="-2.07539">
        <ele>56.086749</ele>
        <time>2023-05-06T13:27:34.031Z</time>
      </trkpt>
      <trkpt lat="47.63298" lon="-2.07538">
        <ele>55.907568</ele>
        <time>2023-05-06T13:27:39.044Z</time>
      </trkpt>
      <trkpt lat="47.63288" lon="-2.07539">
        <ele>55.743716</ele>
        <time>2023-05-06T13:27:43.034Z</time>
      </trkpt>
      <trkpt lat="47.63279" lon="-2.07541">
        <ele>55.579848</ele>
        <time>2023-05-06T13:27:47.019Z</time>
      </trkpt>
      <trkpt lat="47.63268" lon="-2.07545">
        <ele>55.393578</ele>
        <time>2023-05-06T13:27:52.023Z</time>
      </trkpt>
      <trkpt lat="47.63259" lon="-2.07548">
        <ele>55.225022</ele>
        <time>2023-05-06T13:27:57.038Z</time>
      </trkpt>
      <trkpt lat="47.63249" lon="-2.07548">
        <ele>55.064873</ele>
        <time>2023-05-06T13:28:03.033Z</time>
      </trkpt>
      <trkpt lat="47.63249" lon="-2.07505">
        <ele>54.569265</ele>
        <time>2023-05-06T13:28:48.041Z</time>
      </trkpt>
      <trkpt lat="47.63245" lon="-2.07492">
        <ele>54.401008</ele>
        <time>2023-05-06T13:28:52.043Z</time>
      </trkpt>
      <trkpt lat="47.63234" lon="-2.07492">
        <ele>54.211586</ele>
        <time>2023-05-06T13:28:56.034Z</time>
      </trkpt>
      <trkpt lat="47.63219" lon="-2.07493">
        <ele>53.953027</ele>
        <time>2023-05-06T13:28:59.036Z</time>
      </trkpt>
      <trkpt lat="47.6321" lon="-2.07494">
        <ele>53.784016</ele>
        <time>2023-05-06T13:29:01.038Z</time>
      </trkpt>
      <trkpt lat="47.632" lon="-2.07494">
        <ele>53.610033</ele>
        <time>2023-05-06T13:29:03.041Z</time>
      </trkpt>
      <trkpt lat="47.6319" lon="-2.07494">
        <ele>53.439552</ele>
        <time>2023-05-06T13:29:05.036Z</time>
      </trkpt>
      <trkpt lat="47.6318" lon="-2.07495">
        <ele>53.445864</ele>
        <time>2023-05-06T13:29:07.034Z</time>
      </trkpt>
      <trkpt lat="47.6317" lon="-2.07495">
        <ele>53.467243</ele>
        <time>2023-05-06T13:29:09.037Z</time>
      </trkpt>
      <trkpt lat="47.63161" lon="-2.07493">
        <ele>53.487617</ele>
        <time>2023-05-06T13:29:11.035Z</time>
      </trkpt>
      <trkpt lat="47.63147" lon="-2.0749">
        <ele>53.5165</ele>
        <time>2023-05-06T13:29:14.041Z</time>
      </trkpt>
      <trkpt lat="47.63136" lon="-2.07489">
        <ele>53.542038</ele>
        <time>2023-05-06T13:29:17.037Z</time>
      </trkpt>
      <trkpt lat="47.63125" lon="-2.07487">
        <ele>53.565742</ele>
        <time>2023-05-06T13:29:20.035Z</time>
      </trkpt>
      <trkpt lat="47.63115" lon="-2.07486">
        <ele>53.586718</ele>
        <time>2023-05-06T13:29:23.036Z</time>
      </trkpt>
      <trkpt lat="47.63104" lon="-2.07485">
        <ele>53.609841</ele>
        <time>2023-05-06T13:29:27.037Z</time>
      </trkpt>
      <trkpt lat="47.63094" lon="-2.07485">
        <ele>53.631213</ele>
        <time>2023-05-06T13:29:31.036Z</time>
      </trkpt>
      <trkpt lat="47.63084" lon="-2.07486">
        <ele>53.652611</ele>
        <time>2023-05-06T13:29:35.040Z</time>
      </trkpt>
      <trkpt lat="47.63075" lon="-2.07484">
        <ele>53.672511</ele>
        <time>2023-05-06T13:29:39.035Z</time>
      </trkpt>
      <trkpt lat="47.63064" lon="-2.07486">
        <ele>53.696412</ele>
        <time>2023-05-06T13:29:44.034Z</time>
      </trkpt>
      <trkpt lat="47.6304" lon="-2.07482">
        <ele>53.74885</ele>
        <time>2023-05-06T13:30:16.038Z</time>
      </trkpt>
      <trkpt lat="47.63029" lon="-2.07483">
        <ele>53.773697</ele>
        <time>2023-05-06T13:30:20.034Z</time>
      </trkpt>
      <trkpt lat="47.63019" lon="-2.07485">
        <ele>53.795653</ele>
        <time>2023-05-06T13:30:23.038Z</time>
      </trkpt>
      <trkpt lat="47.63006" lon="-2.07486">
        <ele>53.826902</ele>
        <time>2023-05-06T13:30:26.035Z</time>
      </trkpt>
      <trkpt lat="47.62994" lon="-2.07488">
        <ele>53.868868</ele>
        <time>2023-05-06T13:30:29.032Z</time>
      </trkpt>
      <trkpt lat="47.62982" lon="-2.07488">
        <ele>53.910256</ele>
        <time>2023-05-06T13:30:32.031Z</time>
      </trkpt>
      <trkpt lat="47.6297" lon="-2.0749">
        <ele>53.951219</ele>
        <time>2023-05-06T13:30:35.036Z</time>
      </trkpt>
      <trkpt lat="47.62958" lon="-2.07493">
        <ele>53.992671</ele>
        <time>2023-05-06T13:30:38.043Z</time>
      </trkpt>
      <trkpt lat="47.62949" lon="-2.07495">
        <ele>54.02413</ele>
        <time>2023-05-06T13:30:40.045Z</time>
      </trkpt>
      <trkpt lat="47.6294" lon="-2.07497">
        <ele>54.057669</ele>
        <time>2023-05-06T13:30:42.035Z</time>
      </trkpt>
      <trkpt lat="47.6293" lon="-2.075">
        <ele>54.091459</ele>
        <time>2023-05-06T13:30:44.036Z</time>
      </trkpt>
      <trkpt lat="47.62917" lon="-2.07504">
        <ele>54.136774</ele>
        <time>2023-05-06T13:30:47.033Z</time>
      </trkpt>
      <trkpt lat="47.62908" lon="-2.07507">
        <ele>54.169986</ele>
        <time>2023-05-06T13:30:49.035Z</time>
      </trkpt>
      <trkpt lat="47.62895" lon="-2.0751">
        <ele>54.214303</ele>
        <time>2023-05-06T13:30:52.036Z</time>
      </trkpt>
      <trkpt lat="47.62883" lon="-2.07514">
        <ele>54.259284</ele>
        <time>2023-05-06T13:30:55.041Z</time>
      </trkpt>
      <trkpt lat="47.6287" lon="-2.07517">
        <ele>54.302436</ele>
        <time>2023-05-06T13:30:58.028Z</time>
      </trkpt>
      <trkpt lat="47.62859" lon="-2.07522">
        <ele>54.343674</ele>
        <time>2023-05-06T13:31:01.036Z</time>
      </trkpt>
      <trkpt lat="47.62847" lon="-2.07524">
        <ele>54.383666</ele>
        <time>2023-05-06T13:31:04.040Z</time>
      </trkpt>
      <trkpt lat="47.62837" lon="-2.07526">
        <ele>54.42007</ele>
        <time>2023-05-06T13:31:07.036Z</time>
      </trkpt>
      <trkpt lat="47.62826" lon="-2.07528">
        <ele>54.50298</ele>
        <time>2023-05-06T13:31:10.040Z</time>
      </trkpt>
      <trkpt lat="47.62815" lon="-2.07531">
        <ele>54.623817</ele>
        <time>2023-05-06T13:31:13.040Z</time>
      </trkpt>
      <trkpt lat="47.62803" lon="-2.07535">
        <ele>54.741456</ele>
        <time>2023-05-06T13:31:16.036Z</time>
      </trkpt>
      <trkpt lat="47.62793" lon="-2.07538">
        <ele>54.856083</ele>
        <time>2023-05-06T13:31:19.046Z</time>
      </trkpt>
      <trkpt lat="47.62782" lon="-2.07542">
        <ele>54.972568</ele>
        <time>2023-05-06T13:31:22.035Z</time>
      </trkpt>
      <trkpt lat="47.62771" lon="-2.07545">
        <ele>55.090076</ele>
        <time>2023-05-06T13:31:25.034Z</time>
      </trkpt>
      <trkpt lat="47.62759" lon="-2.07549">
        <ele>55.218011</ele>
        <time>2023-05-06T13:31:28.035Z</time>
      </trkpt>
      <trkpt lat="47.62748" lon="-2.07552">
        <ele>55.331839</ele>
        <time>2023-05-06T13:31:31.030Z</time>
      </trkpt>
      <trkpt lat="47.62737" lon="-2.07554">
        <ele>55.445556</ele>
        <time>2023-05-06T13:31:34.038Z</time>
      </trkpt>
      <trkpt lat="47.62726" lon="-2.07558">
        <ele>55.560184</ele>
        <time>2023-05-06T13:31:37.033Z</time>
      </trkpt>
      <trkpt lat="47.62716" lon="-2.07561">
        <ele>55.667976</ele>
        <time>2023-05-06T13:31:40.034Z</time>
      </trkpt>
      <trkpt lat="47.62706" lon="-2.07563">
        <ele>55.779427</ele>
        <time>2023-05-06T13:31:43.036Z</time>
      </trkpt>
      <trkpt lat="47.62695" lon="-2.07566">
        <ele>55.89201</ele>
        <time>2023-05-06T13:31:46.037Z</time>
      </trkpt>
      <trkpt lat="47.62685" lon="-2.07568">
        <ele>55.996859</ele>
        <time>2023-05-06T13:31:49.035Z</time>
      </trkpt>
      <trkpt lat="47.62675" lon="-2.07572">
        <ele>56.102422</ele>
        <time>2023-05-06T13:31:52.042Z</time>
      </trkpt>
      <trkpt lat="47.62664" lon="-2.07575">
        <ele>56.219612</ele>
        <time>2023-05-06T13:31:55.036Z</time>
      </trkpt>
      <trkpt lat="47.62654" lon="-2.07578">
        <ele>56.335545</ele>
        <time>2023-05-06T13:31:58.045Z</time>
      </trkpt>
      <trkpt lat="47.62643" lon="-2.07582">
        <ele>56.495536</ele>
        <time>2023-05-06T13:32:01.040Z</time>
      </trkpt>
      <trkpt lat="47.62633" lon="-2.07584">
        <ele>56.655794</ele>
        <time>2023-05-06T13:32:04.037Z</time>
      </trkpt>
      <trkpt lat="47.62623" lon="-2.07587">
        <ele>56.799554</ele>
        <time>2023-05-06T13:32:07.038Z</time>
      </trkpt>
      <trkpt lat="47.62612" lon="-2.0759">
        <ele>56.967952</ele>
        <time>2023-05-06T13:32:11.050Z</time>
      </trkpt>
      <trkpt lat="47.62602" lon="-2.07593">
        <ele>57.115558</ele>
        <time>2023-05-06T13:32:15.043Z</time>
      </trkpt>
      <trkpt lat="47.62592" lon="-2.07595">
        <ele>57.260727</ele>
        <time>2023-05-06T13:32:19.038Z</time>
      </trkpt>
      <trkpt lat="47.62581" lon="-2.07595">
        <ele>57.419676</ele>
        <time>2023-05-06T13:32:23.035Z</time>
      </trkpt>
      <trkpt lat="47.6257" lon="-2.07596">
        <ele>57.582201</ele>
        <time>2023-05-06T13:32:28.036Z</time>
      </trkpt>
      <trkpt lat="47.62561" lon="-2.07597">
        <ele>57.721013</ele>
        <time>2023-05-06T13:32:33.038Z</time>
      </trkpt>
      <trkpt lat="47.62552" lon="-2.076">
        <ele>57.856516</ele>
        <time>2023-05-06T13:32:39.029Z</time>
      </trkpt>
      <trkpt lat="47.62536" lon="-2.0761">
        <ele>58.106972</ele>
        <time>2023-05-06T13:38:08.041Z</time>
      </trkpt>
      <trkpt lat="47.62524" lon="-2.07614">
        <ele>58.296698</ele>
        <time>2023-05-06T13:38:11.038Z</time>
      </trkpt>
      <trkpt lat="47.62515" lon="-2.07619">
        <ele>58.440851</ele>
        <time>2023-05-06T13:38:13.037Z</time>
      </trkpt>
      <trkpt lat="47.62503" lon="-2.07624">
        <ele>58.622959</ele>
        <time>2023-05-06T13:38:16.036Z</time>
      </trkpt>
      <trkpt lat="47.62492" lon="-2.07627">
        <ele>58.778425</ele>
        <time>2023-05-06T13:38:19.033Z</time>
      </trkpt>
      <trkpt lat="47.62482" lon="-2.07631">
        <ele>58.927207</ele>
        <time>2023-05-06T13:38:22.034Z</time>
      </trkpt>
      <trkpt lat="47.62473" lon="-2.07636">
        <ele>58.794993</ele>
        <time>2023-05-06T13:38:26.031Z</time>
      </trkpt>
      <trkpt lat="47.62462" lon="-2.07639">
        <ele>58.587984</ele>
        <time>2023-05-06T13:38:31.030Z</time>
      </trkpt>
      <trkpt lat="47.62453" lon="-2.0764">
        <ele>58.41174</ele>
        <time>2023-05-06T13:38:36.037Z</time>
      </trkpt>
      <trkpt lat="47.62443" lon="-2.07643">
        <ele>58.219559</ele>
        <time>2023-05-06T13:38:40.038Z</time>
      </trkpt>
      <trkpt lat="47.62432" lon="-2.07646">
        <ele>57.999009</ele>
        <time>2023-05-06T13:38:44.031Z</time>
      </trkpt>
      <trkpt lat="47.62422" lon="-2.07648">
        <ele>57.820547</ele>
        <time>2023-05-06T13:38:47.035Z</time>
      </trkpt>
      <trkpt lat="47.62413" lon="-2.07651">
        <ele>57.62964</ele>
        <time>2023-05-06T13:38:50.036Z</time>
      </trkpt>
      <trkpt lat="47.62402" lon="-2.07653">
        <ele>57.428554</ele>
        <time>2023-05-06T13:38:53.031Z</time>
      </trkpt>
      <trkpt lat="47.62392" lon="-2.07654">
        <ele>57.24113</ele>
        <time>2023-05-06T13:38:56.037Z</time>
      </trkpt>
      <trkpt lat="47.62383" lon="-2.07656">
        <ele>57.06455</ele>
        <time>2023-05-06T13:38:59.030Z</time>
      </trkpt>
      <trkpt lat="47.62373" lon="-2.07659">
        <ele>56.874582</ele>
        <time>2023-05-06T13:39:02.034Z</time>
      </trkpt>
      <trkpt lat="47.62363" lon="-2.07662">
        <ele>56.672214</ele>
        <time>2023-05-06T13:39:05.038Z</time>
      </trkpt>
      <trkpt lat="47.62352" lon="-2.07665">
        <ele>56.470038</ele>
        <time>2023-05-06T13:39:08.033Z</time>
      </trkpt>
      <trkpt lat="47.62343" lon="-2.07668">
        <ele>56.281004</ele>
        <time>2023-05-06T13:39:11.034Z</time>
      </trkpt>
      <trkpt lat="47.62334" lon="-2.07671">
        <ele>56.108454</ele>
        <time>2023-05-06T13:39:14.030Z</time>
      </trkpt>
      <trkpt lat="47.62323" lon="-2.07673">
        <ele>55.898074</ele>
        <time>2023-05-06T13:39:18.026Z</time>
      </trkpt>
      <trkpt lat="47.62313" lon="-2.07678">
        <ele>55.693862</ele>
        <time>2023-05-06T13:39:22.030Z</time>
      </trkpt>
      <trkpt lat="47.62304" lon="-2.07682">
        <ele>55.531201</ele>
        <time>2023-05-06T13:39:25.035Z</time>
      </trkpt>
      <trkpt lat="47.62294" lon="-2.07684">
        <ele>55.512463</ele>
        <time>2023-05-06T13:39:28.039Z</time>
      </trkpt>
      <trkpt lat="47.62285" lon="-2.07688">
        <ele>55.493308</ele>
        <time>2023-05-06T13:39:31.030Z</time>
      </trkpt>
      <trkpt lat="47.62275" lon="-2.0769">
        <ele>55.472995</ele>
        <time>2023-05-06T13:39:34.026Z</time>
      </trkpt>
      <trkpt lat="47.62265" lon="-2.07692">
        <ele>55.452182</ele>
        <time>2023-05-06T13:39:37.033Z</time>
      </trkpt>
      <trkpt lat="47.62255" lon="-2.07696">
        <ele>55.43189</ele>
        <time>2023-05-06T13:39:40.035Z</time>
      </trkpt>
      <trkpt lat="47.62246" lon="-2.077">
        <ele>55.412312</ele>
        <time>2023-05-06T13:39:43.037Z</time>
      </trkpt>
      <trkpt lat="47.62236" lon="-2.07701">
        <ele>55.392879</ele>
        <time>2023-05-06T13:39:46.037Z</time>
      </trkpt>
      <trkpt lat="47.62227" lon="-2.07703">
        <ele>55.373323</ele>
        <time>2023-05-06T13:39:49.037Z</time>
      </trkpt>
      <trkpt lat="47.62217" lon="-2.07707">
        <ele>55.353161</ele>
        <time>2023-05-06T13:39:52.036Z</time>
      </trkpt>
      <trkpt lat="47.62207" lon="-2.07711">
        <ele>55.332275</ele>
        <time>2023-05-06T13:39:55.038Z</time>
      </trkpt>
      <trkpt lat="47.62196" lon="-2.07714">
        <ele>55.310866</ele>
        <time>2023-05-06T13:39:58.039Z</time>
      </trkpt>
      <trkpt lat="47.62187" lon="-2.07715">
        <ele>55.291802</ele>
        <time>2023-05-06T13:40:01.032Z</time>
      </trkpt>
      <trkpt lat="47.62177" lon="-2.07719">
        <ele>55.270363</ele>
        <time>2023-05-06T13:40:05.033Z</time>
      </trkpt>
      <trkpt lat="47.62166" lon="-2.07722">
        <ele>55.247715</ele>
        <time>2023-05-06T13:40:09.023Z</time>
      </trkpt>
      <trkpt lat="47.62156" lon="-2.07726">
        <ele>55.22801</ele>
        <time>2023-05-06T13:40:12.024Z</time>
      </trkpt>
      <trkpt lat="47.62146" lon="-2.07728">
        <ele>55.206861</ele>
        <time>2023-05-06T13:40:15.041Z</time>
      </trkpt>
      <trkpt lat="47.62136" lon="-2.0773">
        <ele>55.186111</ele>
        <time>2023-05-06T13:40:18.047Z</time>
      </trkpt>
      <trkpt lat="47.62125" lon="-2.07732">
        <ele>55.183603</ele>
        <time>2023-05-06T13:40:21.044Z</time>
      </trkpt>
      <trkpt lat="47.62115" lon="-2.07736">
        <ele>55.22537</ele>
        <time>2023-05-06T13:40:24.049Z</time>
      </trkpt>
      <trkpt lat="47.62104" lon="-2.0774">
        <ele>55.266381</ele>
        <time>2023-05-06T13:40:27.044Z</time>
      </trkpt>
      <trkpt lat="47.62094" lon="-2.07743">
        <ele>55.309029</ele>
        <time>2023-05-06T13:40:30.041Z</time>
      </trkpt>
      <trkpt lat="47.62083" lon="-2.07746">
        <ele>55.353428</ele>
        <time>2023-05-06T13:40:33.044Z</time>
      </trkpt>
      <trkpt lat="47.62072" lon="-2.0775">
        <ele>55.395856</ele>
        <time>2023-05-06T13:40:36.049Z</time>
      </trkpt>
      <trkpt lat="47.62062" lon="-2.07753">
        <ele>55.434943</ele>
        <time>2023-05-06T13:40:39.039Z</time>
      </trkpt>
      <trkpt lat="47.62053" lon="-2.07755">
        <ele>55.471054</ele>
        <time>2023-05-06T13:40:42.044Z</time>
      </trkpt>
      <trkpt lat="47.62043" lon="-2.07759">
        <ele>55.511616</ele>
        <time>2023-05-06T13:40:45.039Z</time>
      </trkpt>
      <trkpt lat="47.62034" lon="-2.07761">
        <ele>55.550088</ele>
        <time>2023-05-06T13:40:48.040Z</time>
      </trkpt>
      <trkpt lat="47.62022" lon="-2.07765">
        <ele>55.596671</ele>
        <time>2023-05-06T13:40:52.044Z</time>
      </trkpt>
      <trkpt lat="47.62012" lon="-2.07768">
        <ele>55.636411</ele>
        <time>2023-05-06T13:40:55.045Z</time>
      </trkpt>
      <trkpt lat="47.62002" lon="-2.07771">
        <ele>55.677189</ele>
        <time>2023-05-06T13:40:58.041Z</time>
      </trkpt>
      <trkpt lat="47.61991" lon="-2.07775">
        <ele>55.718842</ele>
        <time>2023-05-06T13:41:01.047Z</time>
      </trkpt>
      <trkpt lat="47.56516" lon="-2.01383">
        <ele>47.666951</ele>
        <time>2023-05-06T14:33:04.026Z</time>
      </trkpt>
      <trkpt lat="47.56516" lon="-2.01369">
        <ele>47.962336</ele>
        <time>2023-05-06T14:36:28.031Z</time>
      </trkpt>
      <trkpt lat="47.56512" lon="-2.01354">
        <ele>48.30046</ele>
        <time>2023-05-06T14:36:34.037Z</time>
      </trkpt>
      <trkpt lat="47.56507" lon="-2.01342">
        <ele>48.587828</ele>
        <time>2023-05-06T14:36:37.029Z</time>
      </trkpt>
      <trkpt lat="47.56502" lon="-2.01328">
        <ele>48.932485</ele>
        <time>2023-05-06T14:36:41.032Z</time>
      </trkpt>
      <trkpt lat="47.56495" lon="-2.01315">
        <ele>49.261495</ele>
        <time>2023-05-06T14:36:45.032Z</time>
      </trkpt>
      <trkpt lat="47.56487" lon="-2.01301">
        <ele>49.641927</ele>
        <time>2023-05-06T14:36:49.033Z</time>
      </trkpt>
      <trkpt lat="47.56479" lon="-2.0129">
        <ele>49.977739</ele>
        <time>2023-05-06T14:36:52.034Z</time>
      </trkpt>
      <trkpt lat="47.56472" lon="-2.01278">
        <ele>50.318118</ele>
        <time>2023-05-06T14:36:55.033Z</time>
      </trkpt>
      <trkpt lat="47.56463" lon="-2.01264">
        <ele>50.295512</ele>
        <time>2023-05-06T14:36:59.030Z</time>
      </trkpt>
      <trkpt lat="47.56457" lon="-2.01253">
        <ele>50.268183</ele>
        <time>2023-05-06T14:37:02.031Z</time>
      </trkpt>
      <trkpt lat="47.5645" lon="-2.01239">
        <ele>50.234847</ele>
        <time>2023-05-06T14:37:05.034Z</time>
      </trkpt>
      <trkpt lat="47.56443" lon="-2.01224">
        <ele>50.199457</ele>
        <time>2023-05-06T14:37:09.034Z</time>
      </trkpt>
      <trkpt lat="47.56437" lon="-2.0121">
        <ele>50.168581</ele>
        <time>2023-05-06T14:37:12.042Z</time>
      </trkpt>
      <trkpt lat="47.56432" lon="-2.01198">
        <ele>50.140853</ele>
        <time>2023-05-06T14:37:15.034Z</time>
      </trkpt>
      <trkpt lat="47.56425" lon="-2.01186">
        <ele>50.110578</ele>
        <time>2023-05-06T14:37:18.025Z</time>
      </trkpt>
      <trkpt lat="47.56419" lon="-2.01174">
        <ele>50.082511</ele>
        <time>2023-05-06T14:37:21.031Z</time>
      </trkpt>
      <trkpt lat="47.56412" lon="-2.01161">
        <ele>50.04997</ele>
        <time>2023-05-06T14:37:24.033Z</time>
      </trkpt>
      <trkpt lat="47.56405" lon="-2.0115">
        <ele>50.021427</ele>
        <time>2023-05-06T14:37:27.031Z</time>
      </trkpt>
      <trkpt lat="47.56397" lon="-2.01136">
        <ele>49.986551</ele>
        <time>2023-05-06T14:37:30.032Z</time>
      </trkpt>
      <trkpt lat="47.56389" lon="-2.01122">
        <ele>49.952263</ele>
        <time>2023-05-06T14:37:33.034Z</time>
      </trkpt>
      <trkpt lat="47.56383" lon="-2.0111">
        <ele>49.922202</ele>
        <time>2023-05-06T14:37:36.030Z</time>
      </trkpt>
      <trkpt lat="47.56376" lon="-2.01099">
        <ele>49.894115</ele>
        <time>2023-05-06T14:37:39.032Z</time>
      </trkpt>
      <trkpt lat="47.56369" lon="-2.01087">
        <ele>49.863657</ele>
        <time>2023-05-06T14:37:42.030Z</time>
      </trkpt>
      <trkpt lat="47.56362" lon="-2.01074">
        <ele>49.83126</ele>
        <time>2023-05-06T14:37:45.031Z</time>
      </trkpt>
      <trkpt lat="47.56353" lon="-2.01062">
        <ele>49.876495</ele>
        <time>2023-05-06T14:37:48.036Z</time>
      </trkpt>
      <trkpt lat="47.56345" lon="-2.01049">
        <ele>49.957885</ele>
        <time>2023-05-06T14:37:51.035Z</time>
      </trkpt>
      <trkpt lat="47.56338" lon="-2.01037">
        <ele>50.029187</ele>
        <time>2023-05-06T14:37:54.035Z</time>
      </trkpt>
      <trkpt lat="47.56332" lon="-2.01022">
        <ele>50.109283</ele>
        <time>2023-05-06T14:37:57.034Z</time>
      </trkpt>
      <trkpt lat="47.56327" lon="-2.01011">
        <ele>50.176227</ele>
        <time>2023-05-06T14:38:00.045Z</time>
      </trkpt>
      <trkpt lat="47.5632" lon="-2.00999">
        <ele>50.24444</ele>
        <time>2023-05-06T14:38:03.034Z</time>
      </trkpt>
      <trkpt lat="47.56312" lon="-2.00987">
        <ele>50.323064</ele>
        <time>2023-05-06T14:38:06.031Z</time>
      </trkpt>
      <trkpt lat="47.56305" lon="-2.00973">
        <ele>50.403977</ele>
        <time>2023-05-06T14:38:09.029Z</time>
      </trkpt>
      <trkpt lat="47.56299" lon="-2.00961">
        <ele>50.476625</ele>
        <time>2023-05-06T14:38:12.028Z</time>
      </trkpt>
      <trkpt lat="47.56293" lon="-2.00949">
        <ele>50.546289</ele>
        <time>2023-05-06T14:38:15.034Z</time>
      </trkpt>
      <trkpt lat="47.56288" lon="-2.00936">
        <ele>50.615971</ele>
        <time>2023-05-06T14:38:18.031Z</time>
      </trkpt>
      <trkpt lat="47.56279" lon="-2.00923">
        <ele>50.699479</ele>
        <time>2023-05-06T14:38:22.031Z</time>
      </trkpt>
      <trkpt lat="47.56271" lon="-2.00911">
        <ele>50.780393</ele>
        <time>2023-05-06T14:38:24.035Z</time>
      </trkpt>
      <trkpt lat="47.56265" lon="-2.00896">
        <ele>50.861189</ele>
        <time>2023-05-06T14:38:27.032Z</time>
      </trkpt>
      <trkpt lat="47.56258" lon="-2.00886">
        <ele>50.930181</ele>
        <time>2023-05-06T14:38:30.027Z</time>
      </trkpt>
      <trkpt lat="47.5625" lon="-2.00874">
        <ele>51.006024</ele>
        <time>2023-05-06T14:38:33.039Z</time>
      </trkpt>
      <trkpt lat="47.56242" lon="-2.00861">
        <ele>51.07678</ele>
        <time>2023-05-06T14:38:36.033Z</time>
      </trkpt>
      <trkpt lat="47.56234" lon="-2.00851">
        <ele>51.126487</ele>
        <time>2023-05-06T14:38:39.032Z</time>
      </trkpt>
      <trkpt lat="47.56227" lon="-2.00841">
        <ele>51.176161</ele>
        <time>2023-05-06T14:38:42.030Z</time>
      </trkpt>
      <trkpt lat="47.56218" lon="-2.00831">
        <ele>51.230615</ele>
        <time>2023-05-06T14:38:45.035Z</time>
      </trkpt>
      <trkpt lat="47.56209" lon="-2.00822">
        <ele>51.283517</ele>
        <time>2023-05-06T14:38:48.039Z</time>
      </trkpt>
      <trkpt lat="47.56199" lon="-2.00811">
        <ele>51.341448</ele>
        <time>2023-05-06T14:38:51.033Z</time>
      </trkpt>
      <trkpt lat="47.5619" lon="-2.00803">
        <ele>51.392145</ele>
        <time>2023-05-06T14:38:54.031Z</time>
      </trkpt>
      <trkpt lat="47.56181" lon="-2.00794">
        <ele>51.442391</ele>
        <time>2023-05-06T14:38:57.038Z</time>
      </trkpt>
      <trkpt lat="47.56172" lon="-2.00786">
        <ele>51.496456</ele>
        <time>2023-05-06T14:39:01.034Z</time>
      </trkpt>
      <trkpt lat="47.56163" lon="-2.00777">
        <ele>51.545115</ele>
        <time>2023-05-06T14:39:04.035Z</time>
      </trkpt>
      <trkpt lat="47.56155" lon="-2.0077">
        <ele>51.591583</ele>
        <time>2023-05-06T14:39:07.030Z</time>
      </trkpt>
      <trkpt lat="47.56146" lon="-2.00761">
        <ele>51.643502</ele>
        <time>2023-05-06T14:39:10.042Z</time>
      </trkpt>
      <trkpt lat="47.56136" lon="-2.00752">
        <ele>51.701963</ele>
        <time>2023-05-06T14:39:14.036Z</time>
      </trkpt>
      <trkpt lat="47.56127" lon="-2.00743">
        <ele>51.751501</ele>
        <time>2023-05-06T14:39:17.035Z</time>
      </trkpt>
      <trkpt lat="47.56118" lon="-2.00737">
        <ele>51.798317</ele>
        <time>2023-05-06T14:39:20.025Z</time>
      </trkpt>
      <trkpt lat="47.56108" lon="-2.00731">
        <ele>51.851221</ele>
        <time>2023-05-06T14:39:24.032Z</time>
      </trkpt>
      <trkpt lat="47.56098" lon="-2.00725">
        <ele>51.90202</ele>
        <time>2023-05-06T14:39:27.039Z</time>
      </trkpt>
      <trkpt lat="47.56088" lon="-2.00719">
        <ele>51.931258</ele>
        <time>2023-05-06T14:39:30.032Z</time>
      </trkpt>
      <trkpt lat="47.56079" lon="-2.00711">
        <ele>51.946061</ele>
        <time>2023-05-06T14:39:33.035Z</time>
      </trkpt>
      <trkpt lat="47.56069" lon="-2.00705">
        <ele>51.960977</ele>
        <time>2023-05-06T14:39:36.030Z</time>
      </trkpt>
      <trkpt lat="47.56061" lon="-2.00698">
        <ele>51.974119</ele>
        <time>2023-05-06T14:39:39.028Z</time>
      </trkpt>
      <trkpt lat="47.56052" lon="-2.0069">
        <ele>51.988001</ele>
        <time>2023-05-06T14:39:42.028Z</time>
      </trkpt>
      <trkpt lat="47.56043" lon="-2.00684">
        <ele>52.000795</ele>
        <time>2023-05-06T14:39:45.027Z</time>
      </trkpt>
      <trkpt lat="47.56034" lon="-2.00678">
        <ele>52.015371</ele>
        <time>2023-05-06T14:39:48.027Z</time>
      </trkpt>
      <trkpt lat="47.56026" lon="-2.00671">
        <ele>52.028367</ele>
        <time>2023-05-06T14:39:51.029Z</time>
      </trkpt>
      <trkpt lat="47.56017" lon="-2.00665">
        <ele>52.041756</ele>
        <time>2023-05-06T14:39:54.030Z</time>
      </trkpt>
      <trkpt lat="47.56007" lon="-2.00658">
        <ele>52.056821</ele>
        <time>2023-05-06T14:39:57.020Z</time>
      </trkpt>
      <trkpt lat="47.55996" lon="-2.0065">
        <ele>52.073744</ele>
        <time>2023-05-06T14:40:00.039Z</time>
      </trkpt>
      <trkpt lat="47.55985" lon="-2.00643">
        <ele>52.090149</ele>
        <time>2023-05-06T14:40:03.024Z</time>
      </trkpt>
      <trkpt lat="47.55975" lon="-2.00636">
        <ele>52.105343</ele>
        <time>2023-05-06T14:40:06.037Z</time>
      </trkpt>
      <trkpt lat="47.55967" lon="-2.00629">
        <ele>52.118728</ele>
        <time>2023-05-06T14:40:09.037Z</time>
      </trkpt>
      <trkpt lat="47.55956" lon="-2.00621">
        <ele>52.134824</ele>
        <time>2023-05-06T14:40:12.030Z</time>
      </trkpt>
      <trkpt lat="47.55946" lon="-2.00615">
        <ele>52.149729</ele>
        <time>2023-05-06T14:40:15.030Z</time>
      </trkpt>
      <trkpt lat="47.55936" lon="-2.00608">
        <ele>52.165919</ele>
        <time>2023-05-06T14:40:18.034Z</time>
      </trkpt>
      <trkpt lat="47.55927" lon="-2.006">
        <ele>52.179125</ele>
        <time>2023-05-06T14:40:21.038Z</time>
      </trkpt>
      <trkpt lat="47.55917" lon="-2.00593">
        <ele>52.192064</ele>
        <time>2023-05-06T14:40:24.037Z</time>
      </trkpt>
      <trkpt lat="47.55908" lon="-2.00586">
        <ele>52.205709</ele>
        <time>2023-05-06T14:40:28.029Z</time>
      </trkpt>
      <trkpt lat="47.55896" lon="-2.00579">
        <ele>52.221112</ele>
        <time>2023-05-06T14:40:32.033Z</time>
      </trkpt>
      <trkpt lat="47.55886" lon="-2.00571">
        <ele>52.235879</ele>
        <time>2023-05-06T14:40:35.031Z</time>
      </trkpt>
      <trkpt lat="47.55876" lon="-2.00565">
        <ele>52.249089</ele>
        <time>2023-05-06T14:40:38.046Z</time>
      </trkpt>
      <trkpt lat="47.55866" lon="-2.00558">
        <ele>52.262142</ele>
        <time>2023-05-06T14:40:41.030Z</time>
      </trkpt>
      <trkpt lat="47.55857" lon="-2.00551">
        <ele>52.275981</ele>
        <time>2023-05-06T14:40:44.035Z</time>
      </trkpt>
      <trkpt lat="47.55844" lon="-2.00543">
        <ele>52.292625</ele>
        <time>2023-05-06T14:40:47.029Z</time>
      </trkpt>
      <trkpt lat="47.55835" lon="-2.00537">
        <ele>52.305163</ele>
        <time>2023-05-06T14:40:50.029Z</time>
      </trkpt>
      <trkpt lat="47.55824" lon="-2.00529">
        <ele>52.320184</ele>
        <time>2023-05-06T14:40:53.032Z</time>
      </trkpt>
      <trkpt lat="47.55814" lon="-2.00522">
        <ele>52.334111</ele>
        <time>2023-05-06T14:40:56.032Z</time>
      </trkpt>
      <trkpt lat="47.55804" lon="-2.00514">
        <ele>52.348139</ele>
        <time>2023-05-06T14:40:59.026Z</time>
      </trkpt>
      <trkpt lat="47.55793" lon="-2.00506">
        <ele>52.363162</ele>
        <time>2023-05-06T14:41:02.035Z</time>
      </trkpt>
      <trkpt lat="47.55784" lon="-2.005">
        <ele>52.376323</ele>
        <time>2023-05-06T14:41:05.036Z</time>
      </trkpt>
      <trkpt lat="47.55774" lon="-2.00491">
        <ele>52.390732</ele>
        <time>2023-05-06T14:41:08.035Z</time>
      </trkpt>
      <trkpt lat="47.55763" lon="-2.00481">
        <ele>52.401682</ele>
        <time>2023-05-06T14:41:11.029Z</time>
      </trkpt>
      <trkpt lat="47.55753" lon="-2.00471">
        <ele>52.410718</ele>
        <time>2023-05-06T14:41:14.028Z</time>
      </trkpt>
      <trkpt lat="47.55742" lon="-2.00461">
        <ele>52.419972</ele>
        <time>2023-05-06T14:41:17.030Z</time>
      </trkpt>
      <trkpt lat="47.55733" lon="-2.00451">
        <ele>52.428354</ele>
        <time>2023-05-06T14:41:20.030Z</time>
      </trkpt>
      <trkpt lat="47.55724" lon="-2.00442">
        <ele>52.436354</ele>
        <time>2023-05-06T14:41:23.025Z</time>
      </trkpt>
      <trkpt lat="47.55716" lon="-2.00434">
        <ele>52.443426</ele>
        <time>2023-05-06T14:41:26.030Z</time>
      </trkpt>
      <trkpt lat="47.55708" lon="-2.00426">
        <ele>52.45061</ele>
        <time>2023-05-06T14:41:29.032Z</time>
      </trkpt>
      <trkpt lat="47.55699" lon="-2.0042">
        <ele>52.458063</ele>
        <time>2023-05-06T14:41:32.032Z</time>
      </trkpt>
      <trkpt lat="47.55687" lon="-2.00413">
        <ele>52.467844</ele>
        <time>2023-05-06T14:41:35.031Z</time>
      </trkpt>
      <trkpt lat="47.55675" lon="-2.00408">
        <ele>52.477154</ele>
        <time>2023-05-06T14:41:38.085Z</time>
      </trkpt>
      <trkpt lat="47.55665" lon="-2.00402">
        <ele>52.485069</ele>
        <time>2023-05-06T14:41:41.029Z</time>
      </trkpt>
      <trkpt lat="47.55656" lon="-2.00397">
        <ele>52.492114</ele>
        <time>2023-05-06T14:41:44.033Z</time>
      </trkpt>
      <trkpt lat="47.55645" lon="-2.00392">
        <ele>52.500658</ele>
        <time>2023-05-06T14:41:49.031Z</time>
      </trkpt>
      <trkpt lat="47.55636" lon="-2.00387">
        <ele>52.507549</ele>
        <time>2023-05-06T14:41:52.030Z</time>
      </trkpt>
      <trkpt lat="47.55627" lon="-2.00381">
        <ele>52.515173</ele>
        <time>2023-05-06T14:41:55.025Z</time>
      </trkpt>
      <trkpt lat="47.55616" lon="-2.00378">
        <ele>52.523205</ele>
        <time>2023-05-06T14:41:58.021Z</time>
      </trkpt>
      <trkpt lat="47.55607" lon="-2.00374">
        <ele>52.564057</ele>
        <time>2023-05-06T14:42:01.025Z</time>
      </trkpt>
      <trkpt lat="47.55596" lon="-2.00371">
        <ele>52.685481</ele>
        <time>2023-05-06T14:42:04.027Z</time>
      </trkpt>
      <trkpt lat="47.55586" lon="-2.00368">
        <ele>52.803589</ele>
        <time>2023-05-06T14:42:07.028Z</time>
      </trkpt>
      <trkpt lat="47.55575" lon="-2.00368">
        <ele>52.922845</ele>
        <time>2023-05-06T14:42:10.028Z</time>
      </trkpt>
      <trkpt lat="47.55565" lon="-2.00366">
        <ele>53.031319</ele>
        <time>2023-05-06T14:42:13.031Z</time>
      </trkpt>
      <trkpt lat="47.55555" lon="-2.00366">
        <ele>53.146037</ele>
        <time>2023-05-06T14:42:16.033Z</time>
      </trkpt>
      <trkpt lat="47.55543" lon="-2.00364">
        <ele>53.27215</ele>
        <time>2023-05-06T14:42:19.035Z</time>
      </trkpt>
      <trkpt lat="47.55532" lon="-2.00363">
        <ele>53.396005</ele>
        <time>2023-05-06T14:42:22.027Z</time>
      </trkpt>
      <trkpt lat="47.5552" lon="-2.00362">
        <ele>53.527555</ele>
        <time>2023-05-06T14:42:25.036Z</time>
      </trkpt>
      <trkpt lat="47.55509" lon="-2.00362">
        <ele>53.652135</ele>
        <time>2023-05-06T14:42:28.041Z</time>
      </trkpt>
      <trkpt lat="47.55498" lon="-2.00362">
        <ele>53.773427</ele>
        <time>2023-05-06T14:42:31.034Z</time>
      </trkpt>
      <trkpt lat="47.55486" lon="-2.00361">
        <ele>53.901489</ele>
        <time>2023-05-06T14:42:34.029Z</time>
      </trkpt>
      <trkpt lat="47.55475" lon="-2.00361">
        <ele>54.0239</ele>
        <time>2023-05-06T14:42:37.034Z</time>
      </trkpt>
      <trkpt lat="47.55466" lon="-2.00362">
        <ele>54.129905</ele>
        <time>2023-05-06T14:42:40.034Z</time>
      </trkpt>
      <trkpt lat="47.55453" lon="-2.0036">
        <ele>54.267419</ele>
        <time>2023-05-06T14:42:44.041Z</time>
      </trkpt>
      <trkpt lat="47.55442" lon="-2.00358">
        <ele>54.391218</ele>
        <time>2023-05-06T14:42:47.032Z</time>
      </trkpt>
      <trkpt lat="47.55432" lon="-2.00356">
        <ele>54.502466</ele>
        <time>2023-05-06T14:42:50.028Z</time>
      </trkpt>
      <trkpt lat="47.55422" lon="-2.00354">
        <ele>54.479818</ele>
        <time>2023-05-06T14:42:53.029Z</time>
      </trkpt>
      <trkpt lat="47.55412" lon="-2.00351">
        <ele>54.446569</ele>
        <time>2023-05-06T14:42:56.028Z</time>
      </trkpt>
      <trkpt lat="47.55403" lon="-2.00346">
        <ele>54.413466</ele>
        <time>2023-05-06T14:42:59.026Z</time>
      </trkpt>
      <trkpt lat="47.55394" lon="-2.00341">
        <ele>54.382636</ele>
        <time>2023-05-06T14:43:02.030Z</time>
      </trkpt>
      <trkpt lat="47.55385" lon="-2.00334">
        <ele>54.348634</ele>
        <time>2023-05-06T14:43:05.029Z</time>
      </trkpt>
      <trkpt lat="47.55377" lon="-2.00327">
        <ele>54.318089</ele>
        <time>2023-05-06T14:43:08.031Z</time>
      </trkpt>
      <trkpt lat="47.55366" lon="-2.0032">
        <ele>54.280059</ele>
        <time>2023-05-06T14:43:12.032Z</time>
      </trkpt>
      <trkpt lat="47.55357" lon="-2.00313">
        <ele>54.246946</ele>
        <time>2023-05-06T14:43:15.031Z</time>
      </trkpt>
      <trkpt lat="47.55348" lon="-2.00307">
        <ele>54.213772</ele>
        <time>2023-05-06T14:43:18.035Z</time>
      </trkpt>
      <trkpt lat="47.55339" lon="-2.003">
        <ele>54.179856</ele>
        <time>2023-05-06T14:43:21.034Z</time>
      </trkpt>
      <trkpt lat="47.55328" lon="-2.00293">
        <ele>54.139415</ele>
        <time>2023-05-06T14:43:24.019Z</time>
      </trkpt>
      <trkpt lat="47.55319" lon="-2.00287">
        <ele>54.109432</ele>
        <time>2023-05-06T14:43:27.031Z</time>
      </trkpt>
      <trkpt lat="47.5531" lon="-2.00279">
        <ele>54.073507</ele>
        <time>2023-05-06T14:43:30.031Z</time>
      </trkpt>
      <trkpt lat="47.55302" lon="-2.00273">
        <ele>54.043314</ele>
        <time>2023-05-06T14:43:33.027Z</time>
      </trkpt>
      <trkpt lat="47.55293" lon="-2.00266">
        <ele>54.009605</ele>
        <time>2023-05-06T14:43:36.029Z</time>
      </trkpt>
      <trkpt lat="47.55282" lon="-2.00259">
        <ele>53.970093</ele>
        <time>2023-05-06T14:43:39.032Z</time>
      </trkpt>
      <trkpt lat="47.55273" lon="-2.00254">
        <ele>53.93988</ele>
        <time>2023-05-06T14:43:41.032Z</time>
      </trkpt>
      <trkpt lat="47.55261" lon="-2.00247">
        <ele>53.866516</ele>
        <time>2023-05-06T14:43:44.032Z</time>
      </trkpt>
      <trkpt lat="47.55251" lon="-2.00242">
        <ele>53.777427</ele>
        <time>2023-05-06T14:43:47.034Z</time>
      </trkpt>
      <trkpt lat="47.55241" lon="-2.00237">
        <ele>53.686148</ele>
        <time>2023-05-06T14:43:50.035Z</time>
      </trkpt>
      <trkpt lat="47.55232" lon="-2.00233">
        <ele>53.610705</ele>
        <time>2023-05-06T14:43:53.034Z</time>
      </trkpt>
      <trkpt lat="47.55224" lon="-2.00228">
        <ele>53.532976</ele>
        <time>2023-05-06T14:43:56.035Z</time>
      </trkpt>
      <trkpt lat="47.55214" lon="-2.00224">
        <ele>53.45055</ele>
        <time>2023-05-06T14:43:59.033Z</time>
      </trkpt>
      <trkpt lat="47.55205" lon="-2.00219">
        <ele>53.364145</ele>
        <time>2023-05-06T14:44:02.031Z</time>
      </trkpt>
      <trkpt lat="47.55195" lon="-2.00214">
        <ele>53.275056</ele>
        <time>2023-05-06T14:44:05.032Z</time>
      </trkpt>
      <trkpt lat="47.55185" lon="-2.0021">
        <ele>53.189679</ele>
        <time>2023-05-06T14:44:08.033Z</time>
      </trkpt>
      <trkpt lat="47.55175" lon="-2.00205">
        <ele>53.102918</ele>
        <time>2023-05-06T14:44:11.030Z</time>
      </trkpt>
      <trkpt lat="47.55164" lon="-2.002">
        <ele>53.010096</ele>
        <time>2023-05-06T14:44:14.035Z</time>
      </trkpt>
      <trkpt lat="47.55153" lon="-2.00195">
        <ele>52.909401</ele>
        <time>2023-05-06T14:44:17.033Z</time>
      </trkpt>
      <trkpt lat="47.55142" lon="-2.00189">
        <ele>52.810145</ele>
        <time>2023-05-06T14:44:20.022Z</time>
      </trkpt>
      <trkpt lat="47.5513" lon="-2.00184">
        <ele>52.703976</ele>
        <time>2023-05-06T14:44:23.021Z</time>
      </trkpt>
      <trkpt lat="47.53766" lon="-1.96228">
        <ele>51.749367</ele>
        <time>2023-05-06T15:02:27.038Z</time>
      </trkpt>
      <trkpt lat="47.53775" lon="-1.96229">
        <ele>51.624803</ele>
        <time>2023-05-06T15:02:37.029Z</time>
      </trkpt>
      <trkpt lat="47.53787" lon="-1.96228">
        <ele>51.478676</ele>
        <time>2023-05-06T15:02:41.035Z</time>
      </trkpt>
      <trkpt lat="47.53777" lon="-1.96227">
        <ele>51.348522</ele>
        <time>2023-05-06T15:03:06.033Z</time>
      </trkpt>
      <trkpt lat="47.53767" lon="-1.96223">
        <ele>51.215491</ele>
        <time>2023-05-06T15:03:10.023Z</time>
      </trkpt>
      <trkpt lat="47.53757" lon="-1.96221">
        <ele>51.094575</ele>
        <time>2023-05-06T15:03:13.037Z</time>
      </trkpt>
      <trkpt lat="47.53745" lon="-1.96219">
        <ele>50.943764</ele>
        <time>2023-05-06T15:03:18.042Z</time>
      </trkpt>
      <trkpt lat="47.53734" lon="-1.96218">
        <ele>50.797154</ele>
        <time>2023-05-06T15:03:21.033Z</time>
      </trkpt>
      <trkpt lat="47.53725" lon="-1.96217">
        <ele>50.681417</ele>
        <time>2023-05-06T15:03:24.041Z</time>
      </trkpt>
      <trkpt lat="47.53714" lon="-1.96216">
        <ele>50.564376</ele>
        <time>2023-05-06T15:03:27.041Z</time>
      </trkpt>
      <trkpt lat="47.53704" lon="-1.96215">
        <ele>50.787188</ele>
        <time>2023-05-06T15:03:30.035Z</time>
      </trkpt>
      <trkpt lat="47.53695" lon="-1.96212">
        <ele>50.996411</ele>
        <time>2023-05-06T15:03:34.040Z</time>
      </trkpt>
      <trkpt lat="47.53684" lon="-1.96211">
        <ele>51.247624</ele>
        <time>2023-05-06T15:03:37.035Z</time>
      </trkpt>
      <trkpt lat="47.53673" lon="-1.96209">
        <ele>51.485492</ele>
        <time>2023-05-06T15:03:40.039Z</time>
      </trkpt>
      <trkpt lat="47.53662" lon="-1.96207">
        <ele>51.737496</ele>
        <time>2023-05-06T15:03:43.037Z</time>
      </trkpt>
      <trkpt lat="47.5365" lon="-1.96206">
        <ele>51.996905</ele>
        <time>2023-05-06T15:03:46.040Z</time>
      </trkpt>
      <trkpt lat="47.53638" lon="-1.96206">
        <ele>52.271873</ele>
        <time>2023-05-06T15:03:49.038Z</time>
      </trkpt>
      <trkpt lat="47.53627" lon="-1.96204">
        <ele>52.518263</ele>
        <time>2023-05-06T15:03:52.038Z</time>
      </trkpt>
      <trkpt lat="47.53616" lon="-1.96201">
        <ele>52.775845</ele>
        <time>2023-05-06T15:03:56.039Z</time>
      </trkpt>
      <trkpt lat="47.53605" lon="-1.96198">
        <ele>53.00925</ele>
        <time>2023-05-06T15:03:59.044Z</time>
      </trkpt>
      <trkpt lat="47.53595" lon="-1.96196">
        <ele>53.234871</ele>
        <time>2023-05-06T15:04:02.045Z</time>
      </trkpt>
      <trkpt lat="47.53586" lon="-1.96193">
        <ele>53.443126</ele>
        <time>2023-05-06T15:04:05.041Z</time>
      </trkpt>
      <trkpt lat="47.53576" lon="-1.9619">
        <ele>53.685728</ele>
        <time>2023-05-06T15:04:09.035Z</time>
      </trkpt>
      <trkpt lat="47.53563" lon="-1.96184">
        <ele>53.97621</ele>
        <time>2023-05-06T15:04:13.036Z</time>
      </trkpt>
      <trkpt lat="47.53551" lon="-1.96178">
        <ele>54.250879</ele>
        <time>2023-05-06T15:04:16.037Z</time>
      </trkpt>
      <trkpt lat="47.53541" lon="-1.96174">
        <ele>54.491638</ele>
        <time>2023-05-06T15:04:19.027Z</time>
      </trkpt>
      <trkpt lat="47.5353" lon="-1.9617">
        <ele>54.51848</ele>
        <time>2023-05-06T15:04:22.030Z</time>
      </trkpt>
      <trkpt lat="47.5352" lon="-1.96166">
        <ele>54.456312</ele>
        <time>2023-05-06T15:04:25.035Z</time>
      </trkpt>
      <trkpt lat="47.53507" lon="-1.96161">
        <ele>54.378527</ele>
        <time>2023-05-06T15:04:28.039Z</time>
      </trkpt>
      <trkpt lat="47.53496" lon="-1.96157">
        <ele>54.308425</ele>
        <time>2023-05-06T15:04:31.038Z</time>
      </trkpt>
      <trkpt lat="47.53484" lon="-1.96151">
        <ele>54.231048</ele>
        <time>2023-05-06T15:04:34.041Z</time>
      </trkpt>
      <trkpt lat="47.53474" lon="-1.96147">
        <ele>54.168465</ele>
        <time>2023-05-06T15:04:37.040Z</time>
      </trkpt>
      <trkpt lat="47.53463" lon="-1.96142">
        <ele>54.097423</ele>
        <time>2023-05-06T15:04:41.036Z</time>
      </trkpt>
      <trkpt lat="47.53453" lon="-1.96138">
        <ele>54.039548</ele>
        <time>2023-05-06T15:04:44.033Z</time>
      </trkpt>
      <trkpt lat="47.53442" lon="-1.96133">
        <ele>53.971177</ele>
        <time>2023-05-06T15:04:47.035Z</time>
      </trkpt>
      <trkpt lat="47.53431" lon="-1.96128">
        <ele>53.8975</ele>
        <time>2023-05-06T15:04:50.034Z</time>
      </trkpt>
      <trkpt lat="47.53419" lon="-1.96124">
        <ele>53.823716</ele>
        <time>2023-05-06T15:04:53.030Z</time>
      </trkpt>
      <trkpt lat="47.53409" lon="-1.9612">
        <ele>53.762327</ele>
        <time>2023-05-06T15:04:56.043Z</time>
      </trkpt>
      <trkpt lat="47.53399" lon="-1.96115">
        <ele>53.698473</ele>
        <time>2023-05-06T15:04:59.045Z</time>
      </trkpt>
      <trkpt lat="47.53388" lon="-1.9611">
        <ele>53.628005</ele>
        <time>2023-05-06T15:05:02.038Z</time>
      </trkpt>
      <trkpt lat="47.53377" lon="-1.96106">
        <ele>53.558116</ele>
        <time>2023-05-06T15:05:05.037Z</time>
      </trkpt>
      <trkpt lat="47.53367" lon="-1.96101">
        <ele>53.500379</ele>
        <time>2023-05-06T15:05:08.032Z</time>
      </trkpt>
      <trkpt lat="47.53357" lon="-1.96097">
        <ele>53.554722</ele>
        <time>2023-05-06T15:05:12.040Z</time>
      </trkpt>
      <trkpt lat="47.53347" lon="-1.96093">
        <ele>53.636019</ele>
        <time>2023-05-06T15:05:15.026Z</time>
      </trkpt>
      <trkpt lat="47.53337" lon="-1.9609">
        <ele>53.720372</ele>
        <time>2023-05-06T15:05:18.032Z</time>
      </trkpt>
      <trkpt lat="47.53329" lon="-1.96087">
        <ele>53.795876</ele>
        <time>2023-05-06T15:05:21.041Z</time>
      </trkpt>
      <trkpt lat="47.53318" lon="-1.96082">
        <ele>53.888201</ele>
        <time>2023-05-06T15:05:24.029Z</time>
      </trkpt>
      <trkpt lat="47.53307" lon="-1.96077">
        <ele>53.987276</ele>
        <time>2023-05-06T15:05:27.040Z</time>
      </trkpt>
      <trkpt lat="47.53296" lon="-1.96072">
        <ele>54.083619</ele>
        <time>2023-05-06T15:05:30.040Z</time>
      </trkpt>
      <trkpt lat="47.53283" lon="-1.96067">
        <ele>54.192776</ele>
        <time>2023-05-06T15:05:33.039Z</time>
      </trkpt>
      <trkpt lat="47.53274" lon="-1.96064">
        <ele>54.269421</ele>
        <time>2023-05-06T15:05:36.038Z</time>
      </trkpt>
      <trkpt lat="47.53263" lon="-1.96059">
        <ele>54.362406</ele>
        <time>2023-05-06T15:05:40.035Z</time>
      </trkpt>
      <trkpt lat="47.53253" lon="-1.96054">
        <ele>54.451067</ele>
        <time>2023-05-06T15:05:45.035Z</time>
      </trkpt>
      <trkpt lat="47.53244" lon="-1.96051">
        <ele>54.528176</ele>
        <time>2023-05-06T15:05:48.031Z</time>
      </trkpt>
      <trkpt lat="47.53235" lon="-1.96048">
        <ele>54.607855</ele>
        <time>2023-05-06T15:05:51.031Z</time>
      </trkpt>
      <trkpt lat="47.53226" lon="-1.96045">
        <ele>54.68806</ele>
        <time>2023-05-06T15:05:54.036Z</time>
      </trkpt>
      <trkpt lat="47.53216" lon="-1.96039">
        <ele>54.775657</ele>
        <time>2023-05-06T15:05:57.032Z</time>
      </trkpt>
      <trkpt lat="47.53206" lon="-1.96036">
        <ele>54.857907</ele>
        <time>2023-05-06T15:06:00.035Z</time>
      </trkpt>
      <trkpt lat="47.53197" lon="-1.96031">
        <ele>54.938862</ele>
        <time>2023-05-06T15:06:03.030Z</time>
      </trkpt>
      <trkpt lat="47.53187" lon="-1.96024">
        <ele>54.946279</ele>
        <time>2023-05-06T15:06:06.034Z</time>
      </trkpt>
      <trkpt lat="47.53178" lon="-1.96019">
        <ele>54.869488</ele>
        <time>2023-05-06T15:06:09.031Z</time>
      </trkpt>
      <trkpt lat="47.53168" lon="-1.96012">
        <ele>54.783223</ele>
        <time>2023-05-06T15:06:13.031Z</time>
      </trkpt>
      <trkpt lat="47.53159" lon="-1.96006">
        <ele>54.712304</ele>
        <time>2023-05-06T15:06:16.028Z</time>
      </trkpt>
      <trkpt lat="47.5315" lon="-1.95998">
        <ele>54.631512</ele>
        <time>2023-05-06T15:06:20.034Z</time>
      </trkpt>
      <trkpt lat="47.53142" lon="-1.95988">
        <ele>54.549903</ele>
        <time>2023-05-06T15:06:24.030Z</time>
      </trkpt>
      <trkpt lat="47.53134" lon="-1.9598">
        <ele>54.476274</ele>
        <time>2023-05-06T15:06:27.040Z</time>
      </trkpt>
      <trkpt lat="47.53124" lon="-1.95977">
        <ele>54.400075</ele>
        <time>2023-05-06T15:06:31.039Z</time>
      </trkpt>
      <trkpt lat="47.53115" lon="-1.95977">
        <ele>54.329056</ele>
        <time>2023-05-06T15:06:37.035Z</time>
      </trkpt>
      <trkpt lat="47.53105" lon="-1.95976">
        <ele>54.256306</ele>
        <time>2023-05-06T15:06:43.029Z</time>
      </trkpt>
      <trkpt lat="47.53096" lon="-1.95973">
        <ele>54.1848</ele>
        <time>2023-05-06T15:06:47.032Z</time>
      </trkpt>
      <trkpt lat="47.53087" lon="-1.95972">
        <ele>54.111326</ele>
        <time>2023-05-06T15:06:51.029Z</time>
      </trkpt>
      <trkpt lat="47.53075" lon="-1.95973">
        <ele>54.018876</ele>
        <time>2023-05-06T15:06:55.029Z</time>
      </trkpt>
      <trkpt lat="47.53063" lon="-1.95976">
        <ele>53.931888</ele>
        <time>2023-05-06T15:06:59.037Z</time>
      </trkpt>
      <trkpt lat="47.53052" lon="-1.95981">
        <ele>53.839651</ele>
        <time>2023-05-06T15:07:03.027Z</time>
      </trkpt>
      <trkpt lat="47.53043" lon="-1.95986">
        <ele>53.766416</ele>
        <time>2023-05-06T15:07:07.034Z</time>
      </trkpt>
      <trkpt lat="47.53033" lon="-1.95994">
        <ele>53.685621</ele>
        <time>2023-05-06T15:07:12.027Z</time>
      </trkpt>
      <trkpt lat="47.53025" lon="-1.96001">
        <ele>53.609665</ele>
        <time>2023-05-06T15:07:17.041Z</time>
      </trkpt>
      <trkpt lat="47.53018" lon="-1.96012">
        <ele>53.446145</ele>
        <time>2023-05-06T15:07:31.026Z</time>
      </trkpt>
      <trkpt lat="47.5301" lon="-1.96021">
        <ele>53.282802</ele>
        <time>2023-05-06T15:07:35.037Z</time>
      </trkpt>
      <trkpt lat="47.53002" lon="-1.9603">
        <ele>53.119351</ele>
        <time>2023-05-06T15:07:38.037Z</time>
      </trkpt>
      <trkpt lat="47.52992" lon="-1.96041">
        <ele>52.928131</ele>
        <time>2023-05-06T15:07:42.035Z</time>
      </trkpt>
      <trkpt lat="47.52985" lon="-1.96049">
        <ele>52.783517</ele>
        <time>2023-05-06T15:07:45.039Z</time>
      </trkpt>
      <trkpt lat="47.52978" lon="-1.96058">
        <ele>52.637718</ele>
        <time>2023-05-06T15:07:48.039Z</time>
      </trkpt>
      <trkpt lat="47.5297" lon="-1.96067">
        <ele>52.46725</ele>
        <time>2023-05-06T15:07:51.037Z</time>
      </trkpt>
      <trkpt lat="47.52961" lon="-1.96077">
        <ele>52.287115</ele>
        <time>2023-05-06T15:07:54.041Z</time>
      </trkpt>
      <trkpt lat="47.52953" lon="-1.96086">
        <ele>52.120543</ele>
        <time>2023-05-06T15:07:57.035Z</time>
      </trkpt>
      <trkpt lat="47.52944" lon="-1.96096">
        <ele>51.953185</ele>
        <time>2023-05-06T15:08:00.044Z</time>
      </trkpt>
      <trkpt lat="47.52935" lon="-1.96108">
        <ele>51.758144</ele>
        <time>2023-05-06T15:08:03.037Z</time>
      </trkpt>
      <trkpt lat="47.52927" lon="-1.96118">
        <ele>51.583985</ele>
        <time>2023-05-06T15:08:06.043Z</time>
      </trkpt>
      <trkpt lat="47.5292" lon="-1.96128">
        <ele>51.422083</ele>
        <time>2023-05-06T15:08:09.040Z</time>
      </trkpt>
      <trkpt lat="47.52909" lon="-1.96139">
        <ele>51.216592</ele>
        <time>2023-05-06T15:08:12.039Z</time>
      </trkpt>
      <trkpt lat="47.529" lon="-1.96146">
        <ele>51.05044</ele>
        <time>2023-05-06T15:08:15.041Z</time>
      </trkpt>
      <trkpt lat="47.52892" lon="-1.96158">
        <ele>50.871222</ele>
        <time>2023-05-06T15:08:18.023Z</time>
      </trkpt>
      <trkpt lat="47.52883" lon="-1.96169">
        <ele>50.700872</ele>
        <time>2023-05-06T15:08:22.034Z</time>
      </trkpt>
      <trkpt lat="47.52875" lon="-1.96178">
        <ele>50.62278</ele>
        <time>2023-05-06T15:08:25.041Z</time>
      </trkpt>
      <trkpt lat="47.52866" lon="-1.96186">
        <ele>50.537038</ele>
        <time>2023-05-06T15:08:28.031Z</time>
      </trkpt>
      <trkpt lat="47.52856" lon="-1.96191">
        <ele>50.456178</ele>
        <time>2023-05-06T15:08:31.030Z</time>
      </trkpt>
      <trkpt lat="47.52845" lon="-1.96196">
        <ele>50.36196</ele>
        <time>2023-05-06T15:08:35.027Z</time>
      </trkpt>
      <trkpt lat="47.52836" lon="-1.96202">
        <ele>50.282797</ele>
        <time>2023-05-06T15:08:38.037Z</time>
      </trkpt>
      <trkpt lat="47.52827" lon="-1.96207">
        <ele>50.201012</ele>
        <time>2023-05-06T15:08:41.035Z</time>
      </trkpt>
      <trkpt lat="47.52817" lon="-1.96212">
        <ele>50.121504</ele>
        <time>2023-05-06T15:08:44.036Z</time>
      </trkpt>
      <trkpt lat="47.52808" lon="-1.96218">
        <ele>50.034793</ele>
        <time>2023-05-06T15:08:48.042Z</time>
      </trkpt>
      <trkpt lat="47.52796" lon="-1.96223">
        <ele>49.938411</ele>
        <time>2023-05-06T15:08:51.039Z</time>
      </trkpt>
      <trkpt lat="47.52785" lon="-1.96227">
        <ele>49.846102</ele>
        <time>2023-05-06T15:08:54.040Z</time>
      </trkpt>
      <trkpt lat="47.52774" lon="-1.96231">
        <ele>49.758912</ele>
        <time>2023-05-06T15:08:57.035Z</time>
      </trkpt>
      <trkpt lat="47.52765" lon="-1.96234">
        <ele>49.685629</ele>
        <time>2023-05-06T15:09:00.041Z</time>
      </trkpt>
      <trkpt lat="47.52756" lon="-1.96236">
        <ele>49.605241</ele>
        <time>2023-05-06T15:09:03.042Z</time>
      </trkpt>
      <trkpt lat="47.52744" lon="-1.96239">
        <ele>49.50756</ele>
        <time>2023-05-06T15:09:06.040Z</time>
      </trkpt>
      <trkpt lat="47.52733" lon="-1.96243">
        <ele>49.416706</ele>
        <time>2023-05-06T15:09:09.035Z</time>
      </trkpt>
      <trkpt lat="47.52724" lon="-1.96245">
        <ele>49.34206</ele>
        <time>2023-05-06T15:09:12.042Z</time>
      </trkpt>
      <trkpt lat="47.52712" lon="-1.96248">
        <ele>49.273235</ele>
        <time>2023-05-06T15:09:16.033Z</time>
      </trkpt>
      <trkpt lat="47.52702" lon="-1.9625">
        <ele>49.266839</ele>
        <time>2023-05-06T15:09:19.034Z</time>
      </trkpt>
      <trkpt lat="47.5269" lon="-1.96251">
        <ele>49.260017</ele>
        <time>2023-05-06T15:09:22.037Z</time>
      </trkpt>
      <trkpt lat="47.52681" lon="-1.96252">
        <ele>49.254228</ele>
        <time>2023-05-06T15:09:25.038Z</time>
      </trkpt>
      <trkpt lat="47.52671" lon="-1.96252">
        <ele>49.248215</ele>
        <time>2023-05-06T15:09:29.037Z</time>
      </trkpt>
      <trkpt lat="47.52661" lon="-1.96254">
        <ele>49.242185</ele>
        <time>2023-05-06T15:09:33.029Z</time>
      </trkpt>
      <trkpt lat="47.52649" lon="-1.96255">
        <ele>49.23463</ele>
        <time>2023-05-06T15:09:37.041Z</time>
      </trkpt>
      <trkpt lat="47.5264" lon="-1.96255">
        <ele>49.228799</ele>
        <time>2023-05-06T15:09:40.035Z</time>
      </trkpt>
      <trkpt lat="47.5263" lon="-1.96254">
        <ele>49.222773</ele>
        <time>2023-05-06T15:09:43.038Z</time>
      </trkpt>
      <trkpt lat="47.52621" lon="-1.96254">
        <ele>49.217131</ele>
        <time>2023-05-06T15:09:46.035Z</time>
      </trkpt>
      <trkpt lat="47.5261" lon="-1.96252">
        <ele>49.210761</ele>
        <time>2023-05-06T15:09:49.035Z</time>
      </trkpt>
      <trkpt lat="47.526" lon="-1.96248">
        <ele>49.20442</ele>
        <time>2023-05-06T15:09:52.041Z</time>
      </trkpt>
      <trkpt lat="47.52591" lon="-1.96243">
        <ele>49.198321</ele>
        <time>2023-05-06T15:09:55.035Z</time>
      </trkpt>
      <trkpt lat="47.52581" lon="-1.96237">
        <ele>49.191834</ele>
        <time>2023-05-06T15:09:59.031Z</time>
      </trkpt>
      <trkpt lat="47.52573" lon="-1.96231">
        <ele>49.186006</ele>
        <time>2023-05-06T15:10:03.029Z</time>
      </trkpt>
      <trkpt lat="47.52566" lon="-1.96222">
        <ele>49.180402</ele>
        <time>2023-05-06T15:10:06.031Z</time>
      </trkpt>
      <trkpt lat="47.52557" lon="-1.96211">
        <ele>49.173662</ele>
        <time>2023-05-06T15:10:09.041Z</time>
      </trkpt>
      <trkpt lat="47.5255" lon="-1.96201">
        <ele>49.167638</ele>
        <time>2023-05-06T15:10:12.041Z</time>
      </trkpt>
      <trkpt lat="47.52543" lon="-1.9619">
        <ele>49.35079</ele>
        <time>2023-05-06T15:10:16.030Z</time>
      </trkpt>
      <trkpt lat="47.52536" lon="-1.96177">
        <ele>49.663434</ele>
        <time>2023-05-06T15:10:21.045Z</time>
      </trkpt>
      <trkpt lat="47.5253" lon="-1.96166">
        <ele>49.940725</ele>
        <time>2023-05-06T15:10:25.037Z</time>
      </trkpt>
      <trkpt lat="47.52522" lon="-1.96155">
        <ele>50.234507</ele>
        <time>2023-05-06T15:10:30.033Z</time>
      </trkpt>
      <trkpt lat="47.52516" lon="-1.96143">
        <ele>50.525014</ele>
        <time>2023-05-06T15:10:34.028Z</time>
      </trkpt>
      <trkpt lat="47.52509" lon="-1.96128">
        <ele>50.875038</ele>
        <time>2023-05-06T15:10:38.031Z</time>
      </trkpt>
      <trkpt lat="47.52502" lon="-1.96115">
        <ele>51.181218</ele>
        <time>2023-05-06T15:10:41.035Z</time>
      </trkpt>
      <trkpt lat="47.52497" lon="-1.96102">
        <ele>51.46647</ele>
        <time>2023-05-06T15:10:44.031Z</time>
      </trkpt>
      <trkpt lat="47.52492" lon="-1.9609">
        <ele>51.734719</ele>
        <time>2023-05-06T15:10:47.030Z</time>
      </trkpt>
      <trkpt lat="47.52486" lon="-1.96077">
        <ele>52.032306</ele>
        <time>2023-05-06T15:10:51.028Z</time>
      </trkpt>
      <trkpt lat="47.5248" lon="-1.96064">
        <ele>52.330077</ele>
        <time>2023-05-06T15:10:55.038Z</time>
      </trkpt>
      <trkpt lat="47.52475" lon="-1.96049">
        <ele>52.641989</ele>
        <time>2023-05-06T15:10:59.039Z</time>
      </trkpt>
      <trkpt lat="47.52469" lon="-1.96038">
        <ele>52.90863</ele>
        <time>2023-05-06T15:11:02.036Z</time>
      </trkpt>
      <trkpt lat="47.52465" lon="-1.96026">
        <ele>53.169404</ele>
        <time>2023-05-06T15:11:05.040Z</time>
      </trkpt>
      <trkpt lat="47.5246" lon="-1.96011">
        <ele>53.480659</ele>
        <time>2023-05-06T15:11:09.035Z</time>
      </trkpt>
      <trkpt lat="47.52453" lon="-1.95998">
        <ele>53.803836</ele>
        <time>2023-05-06T15:11:13.034Z</time>
      </trkpt>
      <trkpt lat="47.52448" lon="-1.95986">
        <ele>54.080969</ele>
        <time>2023-05-06T15:11:17.030Z</time>
      </trkpt>
      <trkpt lat="47.52443" lon="-1.95973">
        <ele>54.245776</ele>
        <time>2023-05-06T15:11:21.034Z</time>
      </trkpt>
      <trkpt lat="47.52438" lon="-1.95961">
        <ele>54.287809</ele>
        <time>2023-05-06T15:11:24.033Z</time>
      </trkpt>
      <trkpt lat="47.52432" lon="-1.95948">
        <ele>54.331372</ele>
        <time>2023-05-06T15:11:28.031Z</time>
      </trkpt>
      <trkpt lat="47.52425" lon="-1.95934">
        <ele>54.382824</ele>
        <time>2023-05-06T15:11:32.034Z</time>
      </trkpt>
      <trkpt lat="47.52419" lon="-1.95921">
        <ele>54.426055</ele>
        <time>2023-05-06T15:11:35.032Z</time>
      </trkpt>
      <trkpt lat="47.52414" lon="-1.95909">
        <ele>54.468651</ele>
        <time>2023-05-06T15:11:38.034Z</time>
      </trkpt>
      <trkpt lat="47.52409" lon="-1.95897">
        <ele>54.508752</ele>
        <time>2023-05-06T15:11:42.029Z</time>
      </trkpt>
      <trkpt lat="47.52404" lon="-1.95886">
        <ele>54.547893</ele>
        <time>2023-05-06T15:11:46.032Z</time>
      </trkpt>
      <trkpt lat="47.52398" lon="-1.95876">
        <ele>54.586531</ele>
        <time>2023-05-06T15:11:55.020Z</time>
      </trkpt>
      <trkpt lat="47.52393" lon="-1.95862">
        <ele>54.633461</ele>
        <time>2023-05-06T15:12:31.026Z</time>
      </trkpt>
      <trkpt lat="47.52387" lon="-1.95849">
        <ele>54.676458</ele>
        <time>2023-05-06T15:12:35.027Z</time>
      </trkpt>
      <trkpt lat="47.52381" lon="-1.95834">
        <ele>54.727856</ele>
        <time>2023-05-06T15:12:39.026Z</time>
      </trkpt>
      <trkpt lat="47.52375" lon="-1.95822">
        <ele>54.770604</ele>
        <time>2023-05-06T15:12:42.029Z</time>
      </trkpt>
      <trkpt lat="47.52369" lon="-1.9581">
        <ele>54.815028</ele>
        <time>2023-05-06T15:12:45.042Z</time>
      </trkpt>
      <trkpt lat="47.52364" lon="-1.95798">
        <ele>54.856818</ele>
        <time>2023-05-06T15:12:48.034Z</time>
      </trkpt>
      <trkpt lat="47.52358" lon="-1.95783">
        <ele>54.906093</ele>
        <time>2023-05-06T15:12:52.029Z</time>
      </trkpt>
      <trkpt lat="47.52352" lon="-1.95769">
        <ele>54.955809</ele>
        <time>2023-05-06T15:12:56.033Z</time>
      </trkpt>
      <trkpt lat="47.52347" lon="-1.95756">
        <ele>55.015494</ele>
        <time>2023-05-06T15:13:00.036Z</time>
      </trkpt>
      <trkpt lat="47.52341" lon="-1.95742">
        <ele>55.351999</ele>
        <time>2023-05-06T15:13:03.033Z</time>
      </trkpt>
      <trkpt lat="47.52334" lon="-1.95728">
        <ele>55.725874</ele>
        <time>2023-05-06T15:13:07.030Z</time>
      </trkpt>
      <trkpt lat="47.52327" lon="-1.95716">
        <ele>56.076482</ele>
        <time>2023-05-06T15:13:10.034Z</time>
      </trkpt>
      <trkpt lat="47.5232" lon="-1.95704">
        <ele>56.419553</ele>
        <time>2023-05-06T15:13:13.033Z</time>
      </trkpt>
      <trkpt lat="47.52313" lon="-1.95691">
        <ele>56.764638</ele>
        <time>2023-05-06T15:13:16.031Z</time>
      </trkpt>
      <trkpt lat="47.52306" lon="-1.95678">
        <ele>57.122735</ele>
        <time>2023-05-06T15:13:19.030Z</time>
      </trkpt>
      <trkpt lat="47.5242" lon="-1.95215">
        <ele>64.892446</ele>
        <time>2023-05-06T15:16:26.022Z</time>
      </trkpt>
      <trkpt lat="47.52416" lon="-1.95235">
        <ele>64.083661</ele>
        <time>2023-05-06T15:20:14.036Z</time>
      </trkpt>
      <trkpt lat="47.52399" lon="-1.95231">
        <ele>63.011637</ele>
        <time>2023-05-06T15:22:37.019Z</time>
      </trkpt>
      <trkpt lat="47.52399" lon="-1.95229">
        <ele>62.943436</ele>
        <time>2023-05-06T15:24:18.686Z</time>
      </trkpt>
      <trkpt lat="47.52418" lon="-1.95231">
        <ele>61.814823</ele>
        <time>2023-05-06T16:07:48.029Z</time>
      </trkpt>
      <trkpt lat="47.52416" lon="-1.95218">
        <ele>61.272816</ele>
        <time>2023-05-06T16:09:54.011Z</time>
      </trkpt>
      <trkpt lat="47.52423" lon="-1.95198">
        <ele>60.35269</ele>
        <time>2023-05-06T16:12:14.031Z</time>
      </trkpt>
      <trkpt lat="47.52432" lon="-1.95189">
        <ele>59.734</ele>
        <time>2023-05-06T16:12:16.026Z</time>
      </trkpt>
      <trkpt lat="47.52442" lon="-1.95183">
        <ele>59.105494</ele>
        <time>2023-05-06T16:12:18.037Z</time>
      </trkpt>
      <trkpt lat="47.52453" lon="-1.95176">
        <ele>58.404533</ele>
        <time>2023-05-06T16:12:20.029Z</time>
      </trkpt>
      <trkpt lat="47.52463" lon="-1.95172">
        <ele>57.733723</ele>
        <time>2023-05-06T16:12:22.026Z</time>
      </trkpt>
      <trkpt lat="47.52474" lon="-1.95167">
        <ele>57.072827</ele>
        <time>2023-05-06T16:12:24.026Z</time>
      </trkpt>
      <trkpt lat="47.52485" lon="-1.9516">
        <ele>56.606132</ele>
        <time>2023-05-06T16:12:26.029Z</time>
      </trkpt>
      <trkpt lat="47.52495" lon="-1.95153">
        <ele>56.652735</ele>
        <time>2023-05-06T16:12:28.027Z</time>
      </trkpt>
      <trkpt lat="47.52503" lon="-1.95145">
        <ele>56.694663</ele>
        <time>2023-05-06T16:12:30.024Z</time>
      </trkpt>
      <trkpt lat="47.52511" lon="-1.95135">
        <ele>56.734485</ele>
        <time>2023-05-06T16:12:32.023Z</time>
      </trkpt>
      <trkpt lat="47.5252" lon="-1.95122">
        <ele>56.788503</ele>
        <time>2023-05-06T16:12:35.022Z</time>
      </trkpt>
      <trkpt lat="47.52527" lon="-1.95107">
        <ele>56.839266</ele>
        <time>2023-05-06T16:12:38.025Z</time>
      </trkpt>
      <trkpt lat="47.52533" lon="-1.95093">
        <ele>56.882978</ele>
        <time>2023-05-06T16:12:41.025Z</time>
      </trkpt>
      <trkpt lat="47.5254" lon="-1.95068">
        <ele>56.958771</ele>
        <time>2023-05-06T16:13:07.020Z</time>
      </trkpt>
      <trkpt lat="47.52542" lon="-1.95054">
        <ele>56.99896</ele>
        <time>2023-05-06T16:13:11.021Z</time>
      </trkpt>
      <trkpt lat="47.52543" lon="-1.95039">
        <ele>57.039186</ele>
        <time>2023-05-06T16:13:14.027Z</time>
      </trkpt>
      <trkpt lat="47.52542" lon="-1.95023">
        <ele>57.083394</ele>
        <time>2023-05-06T16:13:17.030Z</time>
      </trkpt>
      <trkpt lat="47.5254" lon="-1.95007">
        <ele>57.128148</ele>
        <time>2023-05-06T16:13:20.030Z</time>
      </trkpt>
      <trkpt lat="47.52539" lon="-1.94991">
        <ele>57.174773</ele>
        <time>2023-05-06T16:13:24.030Z</time>
      </trkpt>
      <trkpt lat="47.52536" lon="-1.94975">
        <ele>57.221314</ele>
        <time>2023-05-06T16:13:27.028Z</time>
      </trkpt>
      <trkpt lat="47.52534" lon="-1.9496">
        <ele>57.26127</ele>
        <time>2023-05-06T16:13:30.029Z</time>
      </trkpt>
      <trkpt lat="47.52532" lon="-1.94945">
        <ele>57.305423</ele>
        <time>2023-05-06T16:13:33.035Z</time>
      </trkpt>
      <trkpt lat="47.52529" lon="-1.94926">
        <ele>57.224568</ele>
        <time>2023-05-06T16:13:36.030Z</time>
      </trkpt>
      <trkpt lat="47.52526" lon="-1.9491">
        <ele>57.04779</ele>
        <time>2023-05-06T16:13:39.027Z</time>
      </trkpt>
      <trkpt lat="47.52524" lon="-1.94897">
        <ele>56.903276</ele>
        <time>2023-05-06T16:13:42.029Z</time>
      </trkpt>
      <trkpt lat="47.52523" lon="-1.94883">
        <ele>56.753256</ele>
        <time>2023-05-06T16:13:45.039Z</time>
      </trkpt>
      <trkpt lat="47.52522" lon="-1.94866">
        <ele>56.570481</ele>
        <time>2023-05-06T16:13:48.035Z</time>
      </trkpt>
      <trkpt lat="47.5252" lon="-1.94852">
        <ele>56.421815</ele>
        <time>2023-05-06T16:13:50.041Z</time>
      </trkpt>
      <trkpt lat="47.52519" lon="-1.94836">
        <ele>56.244471</ele>
        <time>2023-05-06T16:13:53.029Z</time>
      </trkpt>
      <trkpt lat="47.52517" lon="-1.9482">
        <ele>56.072559</ele>
        <time>2023-05-06T16:13:56.028Z</time>
      </trkpt>
      <trkpt lat="47.52514" lon="-1.94804">
        <ele>55.892799</ele>
        <time>2023-05-06T16:13:59.028Z</time>
      </trkpt>
      <trkpt lat="47.52511" lon="-1.94787">
        <ele>55.70426</ele>
        <time>2023-05-06T16:14:03.022Z</time>
      </trkpt>
      <trkpt lat="47.5251" lon="-1.94772">
        <ele>55.544356</ele>
        <time>2023-05-06T16:14:06.028Z</time>
      </trkpt>
      <trkpt lat="47.52508" lon="-1.94756">
        <ele>55.370453</ele>
        <time>2023-05-06T16:14:09.026Z</time>
      </trkpt>
      <trkpt lat="47.52507" lon="-1.94739">
        <ele>55.192373</ele>
        <time>2023-05-06T16:14:12.028Z</time>
      </trkpt>
      <trkpt lat="47.52505" lon="-1.94721">
        <ele>54.995305</ele>
        <time>2023-05-06T16:14:16.027Z</time>
      </trkpt>
      <trkpt lat="47.525" lon="-1.94703">
        <ele>54.799858</ele>
        <time>2023-05-06T16:14:19.024Z</time>
      </trkpt>
      <trkpt lat="47.52493" lon="-1.94687">
        <ele>54.5904</ele>
        <time>2023-05-06T16:14:22.028Z</time>
      </trkpt>
      <trkpt lat="47.52488" lon="-1.94676">
        <ele>54.464349</ele>
        <time>2023-05-06T16:14:24.029Z</time>
      </trkpt>
      <trkpt lat="47.52478" lon="-1.9466">
        <ele>54.324117</ele>
        <time>2023-05-06T16:14:27.030Z</time>
      </trkpt>
      <trkpt lat="47.52472" lon="-1.94646">
        <ele>54.203673</ele>
        <time>2023-05-06T16:14:30.028Z</time>
      </trkpt>
      <trkpt lat="47.52465" lon="-1.94634">
        <ele>54.09924</ele>
        <time>2023-05-06T16:14:33.031Z</time>
      </trkpt>
      <trkpt lat="47.52459" lon="-1.94623">
        <ele>54.004231</ele>
        <time>2023-05-06T16:14:36.026Z</time>
      </trkpt>
      <trkpt lat="47.52451" lon="-1.9461">
        <ele>53.890863</ele>
        <time>2023-05-06T16:14:39.027Z</time>
      </trkpt>
      <trkpt lat="47.52442" lon="-1.94599">
        <ele>53.777018</ele>
        <time>2023-05-06T16:14:42.030Z</time>
      </trkpt>
      <trkpt lat="47.52434" lon="-1.9459">
        <ele>53.680588</ele>
        <time>2023-05-06T16:14:45.029Z</time>
      </trkpt>
      <trkpt lat="47.52426" lon="-1.94581">
        <ele>53.575007</ele>
        <time>2023-05-06T16:14:48.033Z</time>
      </trkpt>
      <trkpt lat="47.52415" lon="-1.94571">
        <ele>53.454722</ele>
        <time>2023-05-06T16:14:51.026Z</time>
      </trkpt>
      <trkpt lat="47.52404" lon="-1.94562">
        <ele>53.331191</ele>
        <time>2023-05-06T16:14:54.027Z</time>
      </trkpt>
      <trkpt lat="47.52394" lon="-1.94554">
        <ele>53.21424</ele>
        <time>2023-05-06T16:14:57.034Z</time>
      </trkpt>
      <trkpt lat="47.52386" lon="-1.94548">
        <ele>53.123635</ele>
        <time>2023-05-06T16:14:59.029Z</time>
      </trkpt>
      <trkpt lat="47.52375" lon="-1.94539">
        <ele>52.999776</ele>
        <time>2023-05-06T16:15:02.032Z</time>
      </trkpt>
      <trkpt lat="47.52364" lon="-1.94531">
        <ele>52.879958</ele>
        <time>2023-05-06T16:15:05.030Z</time>
      </trkpt>
      <trkpt lat="47.52354" lon="-1.94523">
        <ele>52.770776</ele>
        <time>2023-05-06T16:15:08.029Z</time>
      </trkpt>
      <trkpt lat="47.52342" lon="-1.94515">
        <ele>52.739648</ele>
        <time>2023-05-06T16:15:11.030Z</time>
      </trkpt>
      <trkpt lat="47.52333" lon="-1.9451">
        <ele>52.767038</ele>
        <time>2023-05-06T16:15:13.031Z</time>
      </trkpt>
      <trkpt lat="47.52325" lon="-1.94504">
        <ele>52.79383</ele>
        <time>2023-05-06T16:15:15.030Z</time>
      </trkpt>
      <trkpt lat="47.52316" lon="-1.945">
        <ele>52.821509</ele>
        <time>2023-05-06T16:15:17.034Z</time>
      </trkpt>
      <trkpt lat="47.52304" lon="-1.94496">
        <ele>52.859953</ele>
        <time>2023-05-06T16:15:20.028Z</time>
      </trkpt>
      <trkpt lat="47.5229" lon="-1.94493">
        <ele>52.90013</ele>
        <time>2023-05-06T16:15:23.025Z</time>
      </trkpt>
      <trkpt lat="47.52278" lon="-1.9449">
        <ele>52.938046</ele>
        <time>2023-05-06T16:15:26.026Z</time>
      </trkpt>
      <trkpt lat="47.52268" lon="-1.94488">
        <ele>52.965714</ele>
        <time>2023-05-06T16:15:29.026Z</time>
      </trkpt>
      <trkpt lat="47.52258" lon="-1.94486">
        <ele>52.996438</ele>
        <time>2023-05-06T16:15:32.025Z</time>
      </trkpt>
      <trkpt lat="47.52249" lon="-1.94483">
        <ele>53.023849</ele>
        <time>2023-05-06T16:15:35.029Z</time>
      </trkpt>
      <trkpt lat="47.52239" lon="-1.94481">
        <ele>53.05378</ele>
        <time>2023-05-06T16:15:38.020Z</time>
      </trkpt>
      <trkpt lat="47.52229" lon="-1.94479">
        <ele>53.084326</ele>
        <time>2023-05-06T16:15:41.028Z</time>
      </trkpt>
      <trkpt lat="47.52218" lon="-1.94475">
        <ele>53.11587</ele>
        <time>2023-05-06T16:15:44.030Z</time>
      </trkpt>
      <trkpt lat="47.52208" lon="-1.94473">
        <ele>53.14697</ele>
        <time>2023-05-06T16:15:47.021Z</time>
      </trkpt>
      <trkpt lat="47.52196" lon="-1.94472">
        <ele>53.181004</ele>
        <time>2023-05-06T16:15:50.029Z</time>
      </trkpt>
      <trkpt lat="47.52185" lon="-1.94473">
        <ele>53.214463</ele>
        <time>2023-05-06T16:15:53.034Z</time>
      </trkpt>
      <trkpt lat="47.52175" lon="-1.94474">
        <ele>53.243812</ele>
        <time>2023-05-06T16:15:56.029Z</time>
      </trkpt>
      <trkpt lat="47.52165" lon="-1.94474">
        <ele>53.243834</ele>
        <time>2023-05-06T16:15:59.038Z</time>
      </trkpt>
      <trkpt lat="47.52154" lon="-1.94474">
        <ele>53.238137</ele>
        <time>2023-05-06T16:16:02.028Z</time>
      </trkpt>
      <trkpt lat="47.52143" lon="-1.94475">
        <ele>53.232483</ele>
        <time>2023-05-06T16:16:05.034Z</time>
      </trkpt>
      <trkpt lat="47.52134" lon="-1.94476">
        <ele>53.227415</ele>
        <time>2023-05-06T16:16:08.024Z</time>
      </trkpt>
      <trkpt lat="47.52123" lon="-1.94478">
        <ele>53.221806</ele>
        <time>2023-05-06T16:16:11.026Z</time>
      </trkpt>
      <trkpt lat="47.52112" lon="-1.94478">
        <ele>53.21547</ele>
        <time>2023-05-06T16:16:14.036Z</time>
      </trkpt>
      <trkpt lat="47.521" lon="-1.94479">
        <ele>53.20933</ele>
        <time>2023-05-06T16:16:17.024Z</time>
      </trkpt>
      <trkpt lat="47.52089" lon="-1.9448">
        <ele>53.20347</ele>
        <time>2023-05-06T16:16:20.026Z</time>
      </trkpt>
      <trkpt lat="47.5208" lon="-1.94481">
        <ele>53.198391</ele>
        <time>2023-05-06T16:16:23.030Z</time>
      </trkpt>
      <trkpt lat="47.5207" lon="-1.94482">
        <ele>53.193427</ele>
        <time>2023-05-06T16:16:26.025Z</time>
      </trkpt>
      <trkpt lat="47.52061" lon="-1.94483">
        <ele>53.188303</ele>
        <time>2023-05-06T16:16:29.037Z</time>
      </trkpt>
      <trkpt lat="47.5205" lon="-1.94485">
        <ele>53.182574</ele>
        <time>2023-05-06T16:16:32.026Z</time>
      </trkpt>
      <trkpt lat="47.5204" lon="-1.94486">
        <ele>53.177272</ele>
        <time>2023-05-06T16:16:35.025Z</time>
      </trkpt>
      <trkpt lat="47.52029" lon="-1.94487">
        <ele>53.171411</ele>
        <time>2023-05-06T16:16:38.028Z</time>
      </trkpt>
      <trkpt lat="47.52017" lon="-1.94488">
        <ele>53.165165</ele>
        <time>2023-05-06T16:16:42.025Z</time>
      </trkpt>
      <trkpt lat="47.52005" lon="-1.94489">
        <ele>53.158723</ele>
        <time>2023-05-06T16:16:46.028Z</time>
      </trkpt>
      <trkpt lat="47.51995" lon="-1.94489">
        <ele>53.153026</ele>
        <time>2023-05-06T16:16:50.028Z</time>
      </trkpt>
      <trkpt lat="47.51985" lon="-1.94489">
        <ele>53.240968</ele>
        <time>2023-05-06T16:16:53.031Z</time>
      </trkpt>
      <trkpt lat="47.51976" lon="-1.9449">
        <ele>53.331032</ele>
        <time>2023-05-06T16:16:56.025Z</time>
      </trkpt>
      <trkpt lat="47.51965" lon="-1.94491">
        <ele>53.444755</ele>
        <time>2023-05-06T16:17:00.034Z</time>
      </trkpt>
      <trkpt lat="47.51955" lon="-1.94494">
        <ele>53.545383</ele>
        <time>2023-05-06T16:17:03.034Z</time>
      </trkpt>
      <trkpt lat="47.51944" lon="-1.94495">
        <ele>53.654175</ele>
        <time>2023-05-06T16:17:07.028Z</time>
      </trkpt>
      <trkpt lat="47.51935" lon="-1.94493">
        <ele>53.743631</ele>
        <time>2023-05-06T16:17:21.024Z</time>
      </trkpt>
      <trkpt lat="47.51923" lon="-1.94495">
        <ele>53.85814</ele>
        <time>2023-05-06T16:17:33.026Z</time>
      </trkpt>
      <trkpt lat="47.51911" lon="-1.94495">
        <ele>53.975701</ele>
        <time>2023-05-06T16:17:37.026Z</time>
      </trkpt>
      <trkpt lat="47.51899" lon="-1.94494">
        <ele>54.09452</ele>
        <time>2023-05-06T16:17:40.027Z</time>
      </trkpt>
      <trkpt lat="47.51887" lon="-1.94493">
        <ele>54.218219</ele>
        <time>2023-05-06T16:17:43.026Z</time>
      </trkpt>
      <trkpt lat="47.51874" lon="-1.94489">
        <ele>54.346638</ele>
        <time>2023-05-06T16:17:46.025Z</time>
      </trkpt>
      <trkpt lat="47.51865" lon="-1.94486">
        <ele>54.435494</ele>
        <time>2023-05-06T16:17:48.026Z</time>
      </trkpt>
      <trkpt lat="47.51854" lon="-1.94484">
        <ele>54.543061</ele>
        <time>2023-05-06T16:17:51.030Z</time>
      </trkpt>
      <trkpt lat="47.51843" lon="-1.94481">
        <ele>54.660208</ele>
        <time>2023-05-06T16:17:54.030Z</time>
      </trkpt>
      <trkpt lat="47.51831" lon="-1.94479">
        <ele>54.780234</ele>
        <time>2023-05-06T16:17:57.034Z</time>
      </trkpt>
      <trkpt lat="47.51818" lon="-1.94479">
        <ele>54.90369</ele>
        <time>2023-05-06T16:18:00.031Z</time>
      </trkpt>
      <trkpt lat="47.51808" lon="-1.9448">
        <ele>54.969558</ele>
        <time>2023-05-06T16:18:02.026Z</time>
      </trkpt>
      <trkpt lat="47.51796" lon="-1.94485">
        <ele>55.034203</ele>
        <time>2023-05-06T16:18:05.025Z</time>
      </trkpt>
      <trkpt lat="47.51786" lon="-1.94491">
        <ele>55.092765</ele>
        <time>2023-05-06T16:18:07.021Z</time>
      </trkpt>
      <trkpt lat="47.51777" lon="-1.94498">
        <ele>55.146602</ele>
        <time>2023-05-06T16:18:09.027Z</time>
      </trkpt>
      <trkpt lat="47.51769" lon="-1.94506">
        <ele>55.196668</ele>
        <time>2023-05-06T16:18:11.023Z</time>
      </trkpt>
      <trkpt lat="47.51762" lon="-1.94515">
        <ele>55.247123</ele>
        <time>2023-05-06T16:18:13.030Z</time>
      </trkpt>
      <trkpt lat="47.51753" lon="-1.94529">
        <ele>55.318517</ele>
        <time>2023-05-06T16:18:16.030Z</time>
      </trkpt>
      <trkpt lat="47.51745" lon="-1.94543">
        <ele>55.384094</ele>
        <time>2023-05-06T16:18:19.024Z</time>
      </trkpt>
      <trkpt lat="47.51736" lon="-1.94558">
        <ele>55.459333</ele>
        <time>2023-05-06T16:18:22.027Z</time>
      </trkpt>
      <trkpt lat="47.51727" lon="-1.94574">
        <ele>55.530829</ele>
        <time>2023-05-06T16:18:25.028Z</time>
      </trkpt>
      <trkpt lat="47.51721" lon="-1.94584">
        <ele>55.580852</ele>
        <time>2023-05-06T16:18:27.026Z</time>
      </trkpt>
      <trkpt lat="47.51714" lon="-1.94596">
        <ele>55.637854</ele>
        <time>2023-05-06T16:18:29.025Z</time>
      </trkpt>
      <trkpt lat="47.51706" lon="-1.94609">
        <ele>55.700433</ele>
        <time>2023-05-06T16:18:32.027Z</time>
      </trkpt>
      <trkpt lat="47.51698" lon="-1.94623">
        <ele>55.770574</ele>
        <time>2023-05-06T16:18:35.029Z</time>
      </trkpt>
      <trkpt lat="47.51689" lon="-1.94636">
        <ele>55.835034</ele>
        <time>2023-05-06T16:18:38.024Z</time>
      </trkpt>
      <trkpt lat="47.51681" lon="-1.94645">
        <ele>55.887476</ele>
        <time>2023-05-06T16:18:41.027Z</time>
      </trkpt>
      <trkpt lat="47.51673" lon="-1.94654">
        <ele>55.907203</ele>
        <time>2023-05-06T16:18:44.027Z</time>
      </trkpt>
      <trkpt lat="47.51664" lon="-1.94664">
        <ele>55.92673</ele>
        <time>2023-05-06T16:18:48.029Z</time>
      </trkpt>
      <trkpt lat="47.51654" lon="-1.9467">
        <ele>55.944974</ele>
        <time>2023-05-06T16:18:52.030Z</time>
      </trkpt>
      <trkpt lat="47.51644" lon="-1.94674">
        <ele>55.962382</ele>
        <time>2023-05-06T16:18:56.030Z</time>
      </trkpt>
      <trkpt lat="47.51634" lon="-1.94675">
        <ele>55.979558</ele>
        <time>2023-05-06T16:18:59.026Z</time>
      </trkpt>
      <trkpt lat="47.51623" lon="-1.94675">
        <ele>55.99783</ele>
        <time>2023-05-06T16:19:02.026Z</time>
      </trkpt>
      <trkpt lat="47.51613" lon="-1.94674">
        <ele>56.016456</ele>
        <time>2023-05-06T16:19:06.025Z</time>
      </trkpt>
      <trkpt lat="47.51601" lon="-1.94674">
        <ele>56.035924</ele>
        <time>2023-05-06T16:19:10.026Z</time>
      </trkpt>
      <trkpt lat="47.51592" lon="-1.94675">
        <ele>56.051831</ele>
        <time>2023-05-06T16:19:13.026Z</time>
      </trkpt>
      <trkpt lat="47.51582" lon="-1.94675">
        <ele>56.068751</ele>
        <time>2023-05-06T16:19:16.025Z</time>
      </trkpt>
      <trkpt lat="47.51571" lon="-1.94673">
        <ele>56.087445</ele>
        <time>2023-05-06T16:19:19.024Z</time>
      </trkpt>
      <trkpt lat="47.51561" lon="-1.94673">
        <ele>56.10435</ele>
        <time>2023-05-06T16:19:22.028Z</time>
      </trkpt>
      <trkpt lat="47.5155" lon="-1.94674">
        <ele>56.124037</ele>
        <time>2023-05-06T16:19:25.029Z</time>
      </trkpt>
      <trkpt lat="47.51538" lon="-1.94673">
        <ele>56.144282</ele>
        <time>2023-05-06T16:19:28.028Z</time>
      </trkpt>
      <trkpt lat="47.51526" lon="-1.94673">
        <ele>56.163751</ele>
        <time>2023-05-06T16:19:31.031Z</time>
      </trkpt>
      <trkpt lat="47.51514" lon="-1.94672">
        <ele>56.184289</ele>
        <time>2023-05-06T16:19:34.026Z</time>
      </trkpt>
      <trkpt lat="47.51503" lon="-1.94671">
        <ele>56.213208</ele>
        <time>2023-05-06T16:19:37.027Z</time>
      </trkpt>
      <trkpt lat="47.5149" lon="-1.94671">
        <ele>56.262228</ele>
        <time>2023-05-06T16:19:40.029Z</time>
      </trkpt>
      <trkpt lat="47.51481" lon="-1.94671">
        <ele>56.298415</ele>
        <time>2023-05-06T16:19:42.030Z</time>
      </trkpt>
      <trkpt lat="47.51469" lon="-1.94672">
        <ele>56.347495</ele>
        <time>2023-05-06T16:19:45.034Z</time>
      </trkpt>
      <trkpt lat="47.51459" lon="-1.94672">
        <ele>56.389691</ele>
        <time>2023-05-06T16:19:48.029Z</time>
      </trkpt>
      <trkpt lat="47.51449" lon="-1.9467">
        <ele>56.429768</ele>
        <time>2023-05-06T16:19:51.025Z</time>
      </trkpt>
      <trkpt lat="47.51439" lon="-1.94669">
        <ele>56.468077</ele>
        <time>2023-05-06T16:19:53.026Z</time>
      </trkpt>
      <trkpt lat="47.51427" lon="-1.94667">
        <ele>56.519423</ele>
        <time>2023-05-06T16:19:56.029Z</time>
      </trkpt>
      <trkpt lat="47.51414" lon="-1.94665">
        <ele>56.568837</ele>
        <time>2023-05-06T16:19:59.027Z</time>
      </trkpt>
      <trkpt lat="47.51403" lon="-1.94662">
        <ele>56.616854</ele>
        <time>2023-05-06T16:20:02.034Z</time>
      </trkpt>
      <trkpt lat="47.51394" lon="-1.94665">
        <ele>56.654145</ele>
        <time>2023-05-06T16:20:05.031Z</time>
      </trkpt>
      <trkpt lat="47.51384" lon="-1.94668">
        <ele>56.694003</ele>
        <time>2023-05-06T16:20:08.024Z</time>
      </trkpt>
      <trkpt lat="47.51373" lon="-1.94667">
        <ele>56.73907</ele>
        <time>2023-05-06T16:20:11.024Z</time>
      </trkpt>
      <trkpt lat="47.51362" lon="-1.94666">
        <ele>56.780544</ele>
        <time>2023-05-06T16:20:14.032Z</time>
      </trkpt>
      <trkpt lat="47.51352" lon="-1.94665">
        <ele>56.821256</ele>
        <time>2023-05-06T16:20:17.029Z</time>
      </trkpt>
      <trkpt lat="47.51342" lon="-1.94666">
        <ele>56.861852</ele>
        <time>2023-05-06T16:20:20.026Z</time>
      </trkpt>
      <trkpt lat="47.51331" lon="-1.94666">
        <ele>56.908862</ele>
        <time>2023-05-06T16:20:23.031Z</time>
      </trkpt>
      <trkpt lat="47.51321" lon="-1.94666">
        <ele>56.884478</ele>
        <time>2023-05-06T16:20:26.028Z</time>
      </trkpt>
      <trkpt lat="47.5131" lon="-1.94666">
        <ele>56.827768</ele>
        <time>2023-05-06T16:20:29.033Z</time>
      </trkpt>
      <trkpt lat="47.513" lon="-1.94666">
        <ele>56.772145</ele>
        <time>2023-05-06T16:20:32.029Z</time>
      </trkpt>
      <trkpt lat="47.5129" lon="-1.94666">
        <ele>56.717</ele>
        <time>2023-05-06T16:20:36.029Z</time>
      </trkpt>
      <trkpt lat="47.51279" lon="-1.94664">
        <ele>56.657982</ele>
        <time>2023-05-06T16:20:39.031Z</time>
      </trkpt>
      <trkpt lat="47.51268" lon="-1.94662">
        <ele>56.601315</ele>
        <time>2023-05-06T16:20:42.026Z</time>
      </trkpt>
      <trkpt lat="47.51256" lon="-1.94659">
        <ele>56.538397</ele>
        <time>2023-05-06T16:20:45.029Z</time>
      </trkpt>
      <trkpt lat="47.51245" lon="-1.94656">
        <ele>56.475289</ele>
        <time>2023-05-06T16:20:48.031Z</time>
      </trkpt>
      <trkpt lat="47.51233" lon="-1.94653">
        <ele>56.410846</ele>
        <time>2023-05-06T16:20:51.026Z</time>
      </trkpt>
      <trkpt lat="47.51222" lon="-1.94652">
        <ele>56.354429</ele>
        <time>2023-05-06T16:20:54.028Z</time>
      </trkpt>
      <trkpt lat="47.51212" lon="-1.94649">
        <ele>56.296251</ele>
        <time>2023-05-06T16:20:57.031Z</time>
      </trkpt>
      <trkpt lat="47.51202" lon="-1.94646">
        <ele>56.240855</ele>
        <time>2023-05-06T16:21:00.037Z</time>
      </trkpt>
      <trkpt lat="47.5119" lon="-1.94643">
        <ele>56.175768</ele>
        <time>2023-05-06T16:21:03.028Z</time>
      </trkpt>
      <trkpt lat="47.51178" lon="-1.9464">
        <ele>56.11216</ele>
        <time>2023-05-06T16:21:06.022Z</time>
      </trkpt>
      <trkpt lat="47.51167" lon="-1.94638">
        <ele>56.055162</ele>
        <time>2023-05-06T16:21:09.027Z</time>
      </trkpt>
      <trkpt lat="47.51157" lon="-1.94635">
        <ele>55.998562</ele>
        <time>2023-05-06T16:21:12.023Z</time>
      </trkpt>
      <trkpt lat="47.51147" lon="-1.94632">
        <ele>55.994335</ele>
        <time>2023-05-06T16:21:15.020Z</time>
      </trkpt>
      <trkpt lat="47.51137" lon="-1.9463">
        <ele>56.171191</ele>
        <time>2023-05-06T16:21:18.029Z</time>
      </trkpt>
      <trkpt lat="47.51125" lon="-1.94628">
        <ele>56.359753</ele>
        <time>2023-05-06T16:21:21.026Z</time>
      </trkpt>
      <trkpt lat="47.51113" lon="-1.94625">
        <ele>56.552833</ele>
        <time>2023-05-06T16:21:24.020Z</time>
      </trkpt>
      <trkpt lat="47.51102" lon="-1.94622">
        <ele>56.742866</ele>
        <time>2023-05-06T16:21:27.024Z</time>
      </trkpt>
      <trkpt lat="47.51089" lon="-1.94619">
        <ele>56.947958</ele>
        <time>2023-05-06T16:21:30.025Z</time>
      </trkpt>
      <trkpt lat="47.51078" lon="-1.94617">
        <ele>57.13331</ele>
        <time>2023-05-06T16:21:33.025Z</time>
      </trkpt>
      <trkpt lat="47.51068" lon="-1.94616">
        <ele>57.294367</ele>
        <time>2023-05-06T16:21:36.028Z</time>
      </trkpt>
      <trkpt lat="47.51057" lon="-1.94614">
        <ele>57.483581</ele>
        <time>2023-05-06T16:21:39.011Z</time>
      </trkpt>
      <trkpt lat="47.51046" lon="-1.94611">
        <ele>57.663242</ele>
        <time>2023-05-06T16:21:42.022Z</time>
      </trkpt>
      <trkpt lat="47.51035" lon="-1.94608">
        <ele>57.83613</ele>
        <time>2023-05-06T16:21:45.026Z</time>
      </trkpt>
      <trkpt lat="47.51024" lon="-1.94605">
        <ele>58.025958</ele>
        <time>2023-05-06T16:21:48.025Z</time>
      </trkpt>
      <trkpt lat="47.51012" lon="-1.94601">
        <ele>58.214832</ele>
        <time>2023-05-06T16:21:51.029Z</time>
      </trkpt>
      <trkpt lat="47.51001" lon="-1.94598">
        <ele>58.396695</ele>
        <time>2023-05-06T16:21:54.025Z</time>
      </trkpt>
      <trkpt lat="47.50992" lon="-1.94596">
        <ele>58.543653</ele>
        <time>2023-05-06T16:21:57.026Z</time>
      </trkpt>
      <trkpt lat="47.50982" lon="-1.94591">
        <ele>58.716316</ele>
        <time>2023-05-06T16:22:01.031Z</time>
      </trkpt>
      <trkpt lat="47.50971" lon="-1.94585">
        <ele>58.860836</ele>
        <time>2023-05-06T16:22:05.020Z</time>
      </trkpt>
      <trkpt lat="47.50962" lon="-1.94579">
        <ele>58.772685</ele>
        <time>2023-05-06T16:22:08.027Z</time>
      </trkpt>
      <trkpt lat="47.50952" lon="-1.94574">
        <ele>58.680785</ele>
        <time>2023-05-06T16:22:11.025Z</time>
      </trkpt>
      <trkpt lat="47.50942" lon="-1.94567">
        <ele>58.58076</ele>
        <time>2023-05-06T16:22:14.027Z</time>
      </trkpt>
      <trkpt lat="47.50931" lon="-1.94561">
        <ele>58.480735</ele>
        <time>2023-05-06T16:22:17.026Z</time>
      </trkpt>
      <trkpt lat="47.5092" lon="-1.94555">
        <ele>58.37937</ele>
        <time>2023-05-06T16:22:20.029Z</time>
      </trkpt>
      <trkpt lat="47.50909" lon="-1.9455">
        <ele>58.274944</ele>
        <time>2023-05-06T16:22:23.030Z</time>
      </trkpt>
      <trkpt lat="47.50898" lon="-1.94545">
        <ele>58.171005</ele>
        <time>2023-05-06T16:22:26.027Z</time>
      </trkpt>
      <trkpt lat="47.50885" lon="-1.94539">
        <ele>58.059683</ele>
        <time>2023-05-06T16:22:29.025Z</time>
      </trkpt>
      <trkpt lat="47.50874" lon="-1.94535">
        <ele>57.953224</ele>
        <time>2023-05-06T16:22:32.013Z</time>
      </trkpt>
      <trkpt lat="47.50865" lon="-1.94531">
        <ele>57.871321</ele>
        <time>2023-05-06T16:22:35.018Z</time>
      </trkpt>
      <trkpt lat="47.50853" lon="-1.94525">
        <ele>57.762748</ele>
        <time>2023-05-06T16:22:39.020Z</time>
      </trkpt>
      <trkpt lat="47.49788" lon="-1.92145">
        <ele>61.838856</ele>
        <time>2023-05-06T16:44:02.024Z</time>
      </trkpt>
      <trkpt lat="47.49793" lon="-1.92131">
        <ele>61.830543</ele>
        <time>2023-05-06T16:44:09.027Z</time>
      </trkpt>
      <trkpt lat="47.49795" lon="-1.92113">
        <ele>61.821831</ele>
        <time>2023-05-06T16:44:12.017Z</time>
      </trkpt>
      <trkpt lat="47.498" lon="-1.92096">
        <ele>61.812572</ele>
        <time>2023-05-06T16:44:15.030Z</time>
      </trkpt>
      <trkpt lat="47.49803" lon="-1.92081">
        <ele>61.804793</ele>
        <time>2023-05-06T16:44:18.029Z</time>
      </trkpt>
      <trkpt lat="47.49808" lon="-1.92069">
        <ele>61.797818</ele>
        <time>2023-05-06T16:44:21.028Z</time>
      </trkpt>
      <trkpt lat="47.49812" lon="-1.92053">
        <ele>61.789405</ele>
        <time>2023-05-06T16:44:25.028Z</time>
      </trkpt>
      <trkpt lat="47.49815" lon="-1.92036">
        <ele>61.780851</ele>
        <time>2023-05-06T16:44:28.030Z</time>
      </trkpt>
      <trkpt lat="47.4982" lon="-1.92018">
        <ele>61.770958</ele>
        <time>2023-05-06T16:44:31.029Z</time>
      </trkpt>
      <trkpt lat="47.49825" lon="-1.92">
        <ele>61.752166</ele>
        <time>2023-05-06T16:44:34.026Z</time>
      </trkpt>
      <trkpt lat="47.49829" lon="-1.91983">
        <ele>61.705921</ele>
        <time>2023-05-06T16:44:37.032Z</time>
      </trkpt>
      <trkpt lat="47.49832" lon="-1.91971">
        <ele>61.669705</ele>
        <time>2023-05-06T16:44:39.029Z</time>
      </trkpt>
      <trkpt lat="47.49835" lon="-1.91952">
        <ele>61.617202</ele>
        <time>2023-05-06T16:44:42.030Z</time>
      </trkpt>
      <trkpt lat="47.49838" lon="-1.91938">
        <ele>61.579469</ele>
        <time>2023-05-06T16:44:45.031Z</time>
      </trkpt>
      <trkpt lat="47.49841" lon="-1.91925">
        <ele>61.540844</ele>
        <time>2023-05-06T16:44:48.027Z</time>
      </trkpt>
      <trkpt lat="47.49842" lon="-1.91905">
        <ele>61.488162</ele>
        <time>2023-05-06T16:44:51.025Z</time>
      </trkpt>
      <trkpt lat="47.49844" lon="-1.91891">
        <ele>61.450874</ele>
        <time>2023-05-06T16:44:53.028Z</time>
      </trkpt>
      <trkpt lat="47.49847" lon="-1.91873">
        <ele>61.400375</ele>
        <time>2023-05-06T16:44:56.031Z</time>
      </trkpt>
      <trkpt lat="47.4985" lon="-1.91856">
        <ele>61.351452</ele>
        <time>2023-05-06T16:44:59.029Z</time>
      </trkpt>
      <trkpt lat="47.49853" lon="-1.91839">
        <ele>61.304874</ele>
        <time>2023-05-06T16:45:02.023Z</time>
      </trkpt>
      <trkpt lat="47.49854" lon="-1.91825">
        <ele>61.268833</ele>
        <time>2023-05-06T16:45:04.029Z</time>
      </trkpt>
      <trkpt lat="47.49856" lon="-1.91803">
        <ele>61.207313</ele>
        <time>2023-05-06T16:45:07.026Z</time>
      </trkpt>
      <trkpt lat="47.49855" lon="-1.91788">
        <ele>61.168888</ele>
        <time>2023-05-06T16:45:09.025Z</time>
      </trkpt>
      <trkpt lat="47.49857" lon="-1.9177">
        <ele>61.118335</ele>
        <time>2023-05-06T16:45:12.030Z</time>
      </trkpt>
      <trkpt lat="47.49857" lon="-1.91751">
        <ele>61.068717</ele>
        <time>2023-05-06T16:45:15.029Z</time>
      </trkpt>
      <trkpt lat="47.49855" lon="-1.91733">
        <ele>60.848925</ele>
        <time>2023-05-06T16:45:17.026Z</time>
      </trkpt>
      <trkpt lat="47.49853" lon="-1.91714">
        <ele>60.501147</ele>
        <time>2023-05-06T16:45:20.028Z</time>
      </trkpt>
      <trkpt lat="47.49851" lon="-1.91699">
        <ele>60.237735</ele>
        <time>2023-05-06T16:45:22.028Z</time>
      </trkpt>
      <trkpt lat="47.49849" lon="-1.91686">
        <ele>59.987117</ele>
        <time>2023-05-06T16:45:24.045Z</time>
      </trkpt>
      <trkpt lat="47.49845" lon="-1.91673">
        <ele>59.746905</ele>
        <time>2023-05-06T16:45:26.028Z</time>
      </trkpt>
      <trkpt lat="47.49841" lon="-1.9166">
        <ele>59.496319</ele>
        <time>2023-05-06T16:45:28.023Z</time>
      </trkpt>
      <trkpt lat="47.49836" lon="-1.91643">
        <ele>59.158817</ele>
        <time>2023-05-06T16:45:31.024Z</time>
      </trkpt>
      <trkpt lat="47.49831" lon="-1.91628">
        <ele>58.851378</ele>
        <time>2023-05-06T16:45:34.028Z</time>
      </trkpt>
      <trkpt lat="47.49825" lon="-1.91611">
        <ele>58.503664</ele>
        <time>2023-05-06T16:45:37.034Z</time>
      </trkpt>
      <trkpt lat="47.4982" lon="-1.91592">
        <ele>58.155007</ele>
        <time>2023-05-06T16:45:40.030Z</time>
      </trkpt>
      <trkpt lat="47.49814" lon="-1.91574">
        <ele>57.793333</ele>
        <time>2023-05-06T16:45:43.024Z</time>
      </trkpt>
      <trkpt lat="47.49808" lon="-1.91557">
        <ele>57.436835</ele>
        <time>2023-05-06T16:45:46.037Z</time>
      </trkpt>
      <trkpt lat="47.49803" lon="-1.91543">
        <ele>57.168823</ele>
        <time>2023-05-06T16:45:48.026Z</time>
      </trkpt>
      <trkpt lat="47.49796" lon="-1.91526">
        <ele>56.816909</ele>
        <time>2023-05-06T16:45:51.030Z</time>
      </trkpt>
      <trkpt lat="47.49793" lon="-1.91512">
        <ele>56.542466</ele>
        <time>2023-05-06T16:45:53.029Z</time>
      </trkpt>
      <trkpt lat="47.49787" lon="-1.91501">
        <ele>56.293827</ele>
        <time>2023-05-06T16:45:55.029Z</time>
      </trkpt>
      <trkpt lat="47.49783" lon="-1.91488">
        <ele>56.381522</ele>
        <time>2023-05-06T16:45:57.030Z</time>
      </trkpt>
      <trkpt lat="47.49778" lon="-1.91471">
        <ele>56.509464</ele>
        <time>2023-05-06T16:46:00.025Z</time>
      </trkpt>
      <trkpt lat="47.49773" lon="-1.91459">
        <ele>56.603772</ele>
        <time>2023-05-06T16:46:02.034Z</time>
      </trkpt>
      <trkpt lat="47.49768" lon="-1.91445">
        <ele>56.705483</ele>
        <time>2023-05-06T16:46:04.028Z</time>
      </trkpt>
      <trkpt lat="47.49764" lon="-1.91432">
        <ele>56.807014</ele>
        <time>2023-05-06T16:46:06.019Z</time>
      </trkpt>
      <trkpt lat="47.49759" lon="-1.91418">
        <ele>56.911669</ele>
        <time>2023-05-06T16:46:08.035Z</time>
      </trkpt>
      <trkpt lat="47.49754" lon="-1.91405">
        <ele>57.01039</ele>
        <time>2023-05-06T16:46:10.023Z</time>
      </trkpt>
      <trkpt lat="47.49747" lon="-1.91388">
        <ele>57.150406</ele>
        <time>2023-05-06T16:46:13.021Z</time>
      </trkpt>
      <trkpt lat="47.49743" lon="-1.91375">
        <ele>57.2434</ele>
        <time>2023-05-06T16:46:15.025Z</time>
      </trkpt>
      <trkpt lat="47.4974" lon="-1.91361">
        <ele>57.337026</ele>
        <time>2023-05-06T16:46:17.024Z</time>
      </trkpt>
      <trkpt lat="47.49734" lon="-1.9135">
        <ele>57.43575</ele>
        <time>2023-05-06T16:46:19.031Z</time>
      </trkpt>
      <trkpt lat="47.49728" lon="-1.91334">
        <ele>57.55757</ele>
        <time>2023-05-06T16:46:22.025Z</time>
      </trkpt>
      <trkpt lat="47.49721" lon="-1.91322">
        <ele>57.668267</ele>
        <time>2023-05-06T16:46:25.027Z</time>
      </trkpt>
      <trkpt lat="47.49715" lon="-1.91311">
        <ele>57.758706</ele>
        <time>2023-05-06T16:46:28.028Z</time>
      </trkpt>
      <trkpt lat="47.49708" lon="-1.91302">
        <ele>57.854699</ele>
        <time>2023-05-06T16:46:31.028Z</time>
      </trkpt>
      <trkpt lat="47.49699" lon="-1.91294">
        <ele>57.960069</ele>
        <time>2023-05-06T16:46:34.028Z</time>
      </trkpt>
      <trkpt lat="47.4969" lon="-1.91284">
        <ele>58.07282</ele>
        <time>2023-05-06T16:46:37.035Z</time>
      </trkpt>
      <trkpt lat="47.49679" lon="-1.91274">
        <ele>57.807533</ele>
        <time>2023-05-06T16:46:40.030Z</time>
      </trkpt>
      <trkpt lat="47.49669" lon="-1.91263">
        <ele>57.537868</ele>
        <time>2023-05-06T16:46:43.031Z</time>
      </trkpt>
      <trkpt lat="47.49661" lon="-1.91255">
        <ele>57.330354</ele>
        <time>2023-05-06T16:46:45.030Z</time>
      </trkpt>
      <trkpt lat="47.49653" lon="-1.9125">
        <ele>57.124233</ele>
        <time>2023-05-06T16:46:47.035Z</time>
      </trkpt>
      <trkpt lat="47.49644" lon="-1.91244">
        <ele>56.913084</ele>
        <time>2023-05-06T16:46:49.033Z</time>
      </trkpt>
      <trkpt lat="47.49635" lon="-1.91238">
        <ele>56.69388</ele>
        <time>2023-05-06T16:46:51.029Z</time>
      </trkpt>
      <trkpt lat="47.49626" lon="-1.91232">
        <ele>56.486097</ele>
        <time>2023-05-06T16:46:53.031Z</time>
      </trkpt>
      <trkpt lat="47.49617" lon="-1.91227">
        <ele>56.266215</ele>
        <time>2023-05-06T16:46:55.032Z</time>
      </trkpt>
      <trkpt lat="47.49607" lon="-1.91215">
        <ele>55.978828</ele>
        <time>2023-05-06T16:46:58.031Z</time>
      </trkpt>
      <trkpt lat="47.496" lon="-1.91204">
        <ele>55.762097</ele>
        <time>2023-05-06T16:47:00.034Z</time>
      </trkpt>
      <trkpt lat="47.49591" lon="-1.9119">
        <ele>55.46578</ele>
        <time>2023-05-06T16:47:03.026Z</time>
      </trkpt>
      <trkpt lat="47.49584" lon="-1.91179">
        <ele>55.259343</ele>
        <time>2023-05-06T16:47:05.015Z</time>
      </trkpt>
      <trkpt lat="47.49579" lon="-1.91168">
        <ele>55.059207</ele>
        <time>2023-05-06T16:47:07.034Z</time>
      </trkpt>
      <trkpt lat="47.49573" lon="-1.91153">
        <ele>54.793086</ele>
        <time>2023-05-06T16:47:10.022Z</time>
      </trkpt>
      <trkpt lat="47.49566" lon="-1.91136">
        <ele>54.491451</ele>
        <time>2023-05-06T16:47:13.029Z</time>
      </trkpt>
      <trkpt lat="47.49557" lon="-1.91121">
        <ele>54.196746</ele>
        <time>2023-05-06T16:47:16.027Z</time>
      </trkpt>
      <trkpt lat="47.49551" lon="-1.91111">
        <ele>54.098469</ele>
        <time>2023-05-06T16:47:18.028Z</time>
      </trkpt>
      <trkpt lat="47.49541" lon="-1.911">
        <ele>54.073524</ele>
        <time>2023-05-06T16:47:21.026Z</time>
      </trkpt>
      <trkpt lat="47.49533" lon="-1.91092">
        <ele>54.052496</ele>
        <time>2023-05-06T16:47:24.026Z</time>
      </trkpt>
      <trkpt lat="47.49521" lon="-1.91086">
        <ele>54.027605</ele>
        <time>2023-05-06T16:47:27.021Z</time>
      </trkpt>
      <trkpt lat="47.49509" lon="-1.91082">
        <ele>54.000518</ele>
        <time>2023-05-06T16:47:30.021Z</time>
      </trkpt>
      <trkpt lat="47.495" lon="-1.91078">
        <ele>53.981601</ele>
        <time>2023-05-06T16:47:32.026Z</time>
      </trkpt>
      <trkpt lat="47.49488" lon="-1.91073">
        <ele>53.954887</ele>
        <time>2023-05-06T16:47:35.030Z</time>
      </trkpt>
      <trkpt lat="47.49476" lon="-1.9107">
        <ele>53.930323</ele>
        <time>2023-05-06T16:47:38.027Z</time>
      </trkpt>
      <trkpt lat="47.49464" lon="-1.91066">
        <ele>53.903327</ele>
        <time>2023-05-06T16:47:41.029Z</time>
      </trkpt>
      <trkpt lat="47.49455" lon="-1.91065">
        <ele>53.884384</ele>
        <time>2023-05-06T16:47:43.031Z</time>
      </trkpt>
      <trkpt lat="47.49442" lon="-1.91063">
        <ele>53.85836</ele>
        <time>2023-05-06T16:47:46.030Z</time>
      </trkpt>
      <trkpt lat="47.49429" lon="-1.91062">
        <ele>53.830961</ele>
        <time>2023-05-06T16:47:49.026Z</time>
      </trkpt>
      <trkpt lat="47.4942" lon="-1.91063">
        <ele>53.811309</ele>
        <time>2023-05-06T16:47:51.026Z</time>
      </trkpt>
      <trkpt lat="47.4941" lon="-1.91063">
        <ele>53.792079</ele>
        <time>2023-05-06T16:47:53.027Z</time>
      </trkpt>
      <trkpt lat="47.49401" lon="-1.91063">
        <ele>53.771599</ele>
        <time>2023-05-06T16:47:55.020Z</time>
      </trkpt>
      <trkpt lat="47.49388" lon="-1.91062">
        <ele>53.74482</ele>
        <time>2023-05-06T16:47:58.021Z</time>
      </trkpt>
      <trkpt lat="47.49374" lon="-1.91062">
        <ele>53.893616</ele>
        <time>2023-05-06T16:48:01.037Z</time>
      </trkpt>
      <trkpt lat="47.49362" lon="-1.91063">
        <ele>54.135534</ele>
        <time>2023-05-06T16:48:04.025Z</time>
      </trkpt>
      <trkpt lat="47.4935" lon="-1.91063">
        <ele>54.366038</ele>
        <time>2023-05-06T16:48:07.026Z</time>
      </trkpt>
      <trkpt lat="47.49337" lon="-1.91066">
        <ele>54.598258</ele>
        <time>2023-05-06T16:48:10.029Z</time>
      </trkpt>
      <trkpt lat="47.49326" lon="-1.9107">
        <ele>54.821577</ele>
        <time>2023-05-06T16:48:13.029Z</time>
      </trkpt>
      <trkpt lat="47.49315" lon="-1.91075">
        <ele>55.041348</ele>
        <time>2023-05-06T16:48:16.024Z</time>
      </trkpt>
      <trkpt lat="47.49303" lon="-1.91082">
        <ele>55.297321</ele>
        <time>2023-05-06T16:48:19.028Z</time>
      </trkpt>
      <trkpt lat="47.49292" lon="-1.91092">
        <ele>55.527418</ele>
        <time>2023-05-06T16:48:22.021Z</time>
      </trkpt>
      <trkpt lat="47.49282" lon="-1.91102">
        <ele>55.756304</ele>
        <time>2023-05-06T16:48:25.027Z</time>
      </trkpt>
      <trkpt lat="47.49274" lon="-1.91112">
        <ele>55.955327</ele>
        <time>2023-05-06T16:48:28.035Z</time>
      </trkpt>
      <trkpt lat="47.49268" lon="-1.91122">
        <ele>56.135937</ele>
        <time>2023-05-06T16:48:31.033Z</time>
      </trkpt>
      <trkpt lat="47.49262" lon="-1.91132">
        <ele>56.310852</ele>
        <time>2023-05-06T16:48:34.029Z</time>
      </trkpt>
      <trkpt lat="47.49255" lon="-1.91142">
        <ele>56.484833</ele>
        <time>2023-05-06T16:48:37.029Z</time>
      </trkpt>
      <trkpt lat="47.49249" lon="-1.91153">
        <ele>56.68042</ele>
        <time>2023-05-06T16:48:40.028Z</time>
      </trkpt>
      <trkpt lat="47.49241" lon="-1.91164">
        <ele>56.882323</ele>
        <time>2023-05-06T16:48:43.018Z</time>
      </trkpt>
      <trkpt lat="47.49234" lon="-1.91176">
        <ele>57.084011</ele>
        <time>2023-05-06T16:48:46.020Z</time>
      </trkpt>
      <trkpt lat="47.49227" lon="-1.91188">
        <ele>57.036017</ele>
        <time>2023-05-06T16:48:49.032Z</time>
      </trkpt>
      <trkpt lat="47.49217" lon="-1.912">
        <ele>56.811083</ele>
        <time>2023-05-06T16:48:52.023Z</time>
      </trkpt>
      <trkpt lat="47.49208" lon="-1.91212">
        <ele>56.597815</ele>
        <time>2023-05-06T16:48:55.031Z</time>
      </trkpt>
      <trkpt lat="47.49199" lon="-1.91222">
        <ele>56.401379</ele>
        <time>2023-05-06T16:48:58.028Z</time>
      </trkpt>
      <trkpt lat="47.4919" lon="-1.91231">
        <ele>56.206077</ele>
        <time>2023-05-06T16:49:01.028Z</time>
      </trkpt>
      <trkpt lat="47.49179" lon="-1.91238">
        <ele>55.99633</ele>
        <time>2023-05-06T16:49:04.027Z</time>
      </trkpt>
      <trkpt lat="47.49168" lon="-1.91242">
        <ele>55.782913</ele>
        <time>2023-05-06T16:49:07.026Z</time>
      </trkpt>
      <trkpt lat="47.49154" lon="-1.91243">
        <ele>55.542207</ele>
        <time>2023-05-06T16:49:10.029Z</time>
      </trkpt>
      <trkpt lat="47.49142" lon="-1.91242">
        <ele>55.338622</ele>
        <time>2023-05-06T16:49:13.038Z</time>
      </trkpt>
      <trkpt lat="47.4913" lon="-1.91239">
        <ele>55.123136</ele>
        <time>2023-05-06T16:49:16.029Z</time>
      </trkpt>
      <trkpt lat="47.4912" lon="-1.91235">
        <ele>54.938362</ele>
        <time>2023-05-06T16:49:19.031Z</time>
      </trkpt>
      <trkpt lat="47.4911" lon="-1.91228">
        <ele>54.730942</ele>
        <time>2023-05-06T16:49:23.024Z</time>
      </trkpt>
      <trkpt lat="47.491" lon="-1.91224">
        <ele>54.546833</ele>
        <time>2023-05-06T16:49:27.028Z</time>
      </trkpt>
      <trkpt lat="47.4909" lon="-1.91216">
        <ele>54.356731</ele>
        <time>2023-05-06T16:49:30.032Z</time>
      </trkpt>
      <trkpt lat="47.49081" lon="-1.9121">
        <ele>54.176285</ele>
        <time>2023-05-06T16:49:33.031Z</time>
      </trkpt>
      <trkpt lat="47.49071" lon="-1.91203">
        <ele>53.987678</ele>
        <time>2023-05-06T16:49:36.030Z</time>
      </trkpt>
      <trkpt lat="47.49062" lon="-1.91196">
        <ele>53.942527</ele>
        <time>2023-05-06T16:49:39.031Z</time>
      </trkpt>
      <trkpt lat="47.49052" lon="-1.91189">
        <ele>53.903468</ele>
        <time>2023-05-06T16:49:42.029Z</time>
      </trkpt>
      <trkpt lat="47.49041" lon="-1.91184">
        <ele>53.862173</ele>
        <time>2023-05-06T16:49:45.030Z</time>
      </trkpt>
      <trkpt lat="47.49031" lon="-1.91177">
        <ele>53.8212</ele>
        <time>2023-05-06T16:49:48.023Z</time>
      </trkpt>
      <trkpt lat="47.4902" lon="-1.91172">
        <ele>53.780672</ele>
        <time>2023-05-06T16:49:51.028Z</time>
      </trkpt>
      <trkpt lat="47.4901" lon="-1.91168">
        <ele>53.741277</ele>
        <time>2023-05-06T16:49:54.026Z</time>
      </trkpt>
      <trkpt lat="47.48998" lon="-1.91165">
        <ele>53.698082</ele>
        <time>2023-05-06T16:49:57.031Z</time>
      </trkpt>
      <trkpt lat="47.48987" lon="-1.91162">
        <ele>53.656788</ele>
        <time>2023-05-06T16:50:00.029Z</time>
      </trkpt>
      <trkpt lat="47.48977" lon="-1.91161">
        <ele>53.621515</ele>
        <time>2023-05-06T16:50:03.031Z</time>
      </trkpt>
      <trkpt lat="47.48968" lon="-1.91161">
        <ele>53.587763</ele>
        <time>2023-05-06T16:50:06.027Z</time>
      </trkpt>
      <trkpt lat="47.48958" lon="-1.9116">
        <ele>53.550704</ele>
        <time>2023-05-06T16:50:09.026Z</time>
      </trkpt>
      <trkpt lat="47.48948" lon="-1.91159">
        <ele>53.513888</ele>
        <time>2023-05-06T16:50:12.032Z</time>
      </trkpt>
      <trkpt lat="47.48937" lon="-1.91158">
        <ele>53.475048</ele>
        <time>2023-05-06T16:50:15.028Z</time>
      </trkpt>
      <trkpt lat="47.48926" lon="-1.91158">
        <ele>53.435482</ele>
        <time>2023-05-06T16:50:18.026Z</time>
      </trkpt>
      <trkpt lat="47.48915" lon="-1.91158">
        <ele>53.393739</ele>
        <time>2023-05-06T16:50:21.031Z</time>
      </trkpt>
      <trkpt lat="47.48904" lon="-1.91159">
        <ele>53.354168</ele>
        <time>2023-05-06T16:50:24.029Z</time>
      </trkpt>
      <trkpt lat="47.48892" lon="-1.91161">
        <ele>53.347294</ele>
        <time>2023-05-06T16:50:27.027Z</time>
      </trkpt>
      <trkpt lat="47.48881" lon="-1.91165">
        <ele>53.413695</ele>
        <time>2023-05-06T16:50:30.031Z</time>
      </trkpt>
      <trkpt lat="47.48869" lon="-1.91169">
        <ele>53.47806</ele>
        <time>2023-05-06T16:50:33.029Z</time>
      </trkpt>
      <trkpt lat="47.48859" lon="-1.91173">
        <ele>53.536806</ele>
        <time>2023-05-06T16:50:36.027Z</time>
      </trkpt>
      <trkpt lat="47.48849" lon="-1.91178">
        <ele>53.592343</ele>
        <time>2023-05-06T16:50:39.027Z</time>
      </trkpt>
      <trkpt lat="47.48838" lon="-1.91183">
        <ele>53.657224</ele>
        <time>2023-05-06T16:50:42.028Z</time>
      </trkpt>
      <trkpt lat="47.48826" lon="-1.91187">
        <ele>53.724072</ele>
        <time>2023-05-06T16:50:45.029Z</time>
      </trkpt>
      <trkpt lat="47.48815" lon="-1.91191">
        <ele>53.789676</ele>
        <time>2023-05-06T16:50:48.029Z</time>
      </trkpt>
      <trkpt lat="47.48805" lon="-1.91196">
        <ele>53.845597</ele>
        <time>2023-05-06T16:50:51.027Z</time>
      </trkpt>
      <trkpt lat="47.48794" lon="-1.912">
        <ele>53.908457</ele>
        <time>2023-05-06T16:50:54.030Z</time>
      </trkpt>
      <trkpt lat="47.48783" lon="-1.91205">
        <ele>53.972631</ele>
        <time>2023-05-06T16:50:57.031Z</time>
      </trkpt>
      <trkpt lat="47.48772" lon="-1.91209">
        <ele>54.032541</ele>
        <time>2023-05-06T16:51:00.031Z</time>
      </trkpt>
      <trkpt lat="47.48761" lon="-1.9121">
        <ele>54.095465</ele>
        <time>2023-05-06T16:51:03.034Z</time>
      </trkpt>
      <trkpt lat="47.48748" lon="-1.91214">
        <ele>54.168919</ele>
        <time>2023-05-06T16:51:06.027Z</time>
      </trkpt>
      <trkpt lat="47.48736" lon="-1.91218">
        <ele>54.234666</ele>
        <time>2023-05-06T16:51:09.026Z</time>
      </trkpt>
      <trkpt lat="47.48724" lon="-1.91222">
        <ele>54.303831</ele>
        <time>2023-05-06T16:51:12.030Z</time>
      </trkpt>
      <trkpt lat="47.48714" lon="-1.91225">
        <ele>54.337403</ele>
        <time>2023-05-06T16:51:15.023Z</time>
      </trkpt>
      <trkpt lat="47.48703" lon="-1.91225">
        <ele>54.365562</ele>
        <time>2023-05-06T16:51:18.027Z</time>
      </trkpt>
      <trkpt lat="47.48691" lon="-1.91225">
        <ele>54.393722</ele>
        <time>2023-05-06T16:51:21.024Z</time>
      </trkpt>
      <trkpt lat="47.48681" lon="-1.91224">
        <ele>54.42045</ele>
        <time>2023-05-06T16:51:24.037Z</time>
      </trkpt>
      <trkpt lat="47.4867" lon="-1.9122">
        <ele>54.448115</ele>
        <time>2023-05-06T16:51:27.028Z</time>
      </trkpt>
      <trkpt lat="47.48658" lon="-1.91217">
        <ele>54.477879</ele>
        <time>2023-05-06T16:51:30.026Z</time>
      </trkpt>
      <trkpt lat="47.48647" lon="-1.91212">
        <ele>54.507677</ele>
        <time>2023-05-06T16:51:33.030Z</time>
      </trkpt>
      <trkpt lat="47.48635" lon="-1.91208">
        <ele>54.537968</ele>
        <time>2023-05-06T16:51:36.030Z</time>
      </trkpt>
      <trkpt lat="47.48625" lon="-1.91203">
        <ele>54.566502</ele>
        <time>2023-05-06T16:51:39.024Z</time>
      </trkpt>
      <trkpt lat="47.48613" lon="-1.91197">
        <ele>54.596271</ele>
        <time>2023-05-06T16:51:42.024Z</time>
      </trkpt>
      <trkpt lat="47.48603" lon="-1.91189">
        <ele>54.624983</ele>
        <time>2023-05-06T16:51:45.027Z</time>
      </trkpt>
      <trkpt lat="47.48593" lon="-1.91183">
        <ele>54.652606</ele>
        <time>2023-05-06T16:51:48.025Z</time>
      </trkpt>
      <trkpt lat="47.48584" lon="-1.91177">
        <ele>54.678574</ele>
        <time>2023-05-06T16:51:51.027Z</time>
      </trkpt>
      <trkpt lat="47.48575" lon="-1.91171">
        <ele>54.70174</ele>
        <time>2023-05-06T16:51:54.030Z</time>
      </trkpt>
      <trkpt lat="47.48567" lon="-1.91165">
        <ele>54.724518</ele>
        <time>2023-05-06T16:51:57.031Z</time>
      </trkpt>
      <trkpt lat="47.48559" lon="-1.91159">
        <ele>54.74708</ele>
        <time>2023-05-06T16:52:01.034Z</time>
      </trkpt>
      <trkpt lat="47.48549" lon="-1.91153">
        <ele>54.769991</ele>
        <time>2023-05-06T16:52:06.028Z</time>
      </trkpt>
      <trkpt lat="47.48541" lon="-1.91146">
        <ele>54.772726</ele>
        <time>2023-05-06T16:52:10.025Z</time>
      </trkpt>
      <trkpt lat="47.48533" lon="-1.9114">
        <ele>54.775487</ele>
        <time>2023-05-06T16:52:14.023Z</time>
      </trkpt>
      <trkpt lat="47.48524" lon="-1.91133">
        <ele>54.778571</ele>
        <time>2023-05-06T16:52:18.021Z</time>
      </trkpt>
      <trkpt lat="47.48514" lon="-1.91126">
        <ele>54.781816</ele>
        <time>2023-05-06T16:52:22.026Z</time>
      </trkpt>
      <trkpt lat="47.48504" lon="-1.91119">
        <ele>54.785177</ele>
        <time>2023-05-06T16:52:26.031Z</time>
      </trkpt>
      <trkpt lat="47.48493" lon="-1.91112">
        <ele>54.788546</ele>
        <time>2023-05-06T16:52:30.024Z</time>
      </trkpt>
      <trkpt lat="47.48484" lon="-1.91104">
        <ele>54.791879</ele>
        <time>2023-05-06T16:52:34.029Z</time>
      </trkpt>
      <trkpt lat="47.48474" lon="-1.91098">
        <ele>54.794989</ele>
        <time>2023-05-06T16:52:38.028Z</time>
      </trkpt>
      <trkpt lat="47.48466" lon="-1.91091">
        <ele>54.797922</ele>
        <time>2023-05-06T16:52:41.029Z</time>
      </trkpt>
      <trkpt lat="47.48458" lon="-1.91082">
        <ele>54.800841</ele>
        <time>2023-05-06T16:52:44.029Z</time>
      </trkpt>
      <trkpt lat="47.48449" lon="-1.91074">
        <ele>54.803838</ele>
        <time>2023-05-06T16:52:49.028Z</time>
      </trkpt>
      <trkpt lat="47.48442" lon="-1.91066">
        <ele>54.806638</ele>
        <time>2023-05-06T16:52:53.027Z</time>
      </trkpt>
      <trkpt lat="47.48435" lon="-1.91056">
        <ele>54.809469</ele>
        <time>2023-05-06T16:52:59.024Z</time>
      </trkpt>
      <trkpt lat="47.48427" lon="-1.91045">
        <ele>54.812629</ele>
        <time>2023-05-06T16:53:06.024Z</time>
      </trkpt>
      <trkpt lat="47.48419" lon="-1.91034">
        <ele>54.81588</ele>
        <time>2023-05-06T16:53:09.030Z</time>
      </trkpt>
      <trkpt lat="47.48411" lon="-1.91026">
        <ele>54.818959</ele>
        <time>2023-05-06T16:53:11.031Z</time>
      </trkpt>
      <trkpt lat="47.48404" lon="-1.91016">
        <ele>54.821946</ele>
        <time>2023-05-06T16:53:13.030Z</time>
      </trkpt>
      <trkpt lat="47.48395" lon="-1.91001">
        <ele>54.822674</ele>
        <time>2023-05-06T16:53:16.024Z</time>
      </trkpt>
      <trkpt lat="47.48387" lon="-1.90986">
        <ele>54.822082</ele>
        <time>2023-05-06T16:53:19.025Z</time>
      </trkpt>
      <trkpt lat="47.48382" lon="-1.90971">
        <ele>54.821547</ele>
        <time>2023-05-06T16:53:22.027Z</time>
      </trkpt>
      <trkpt lat="47.48377" lon="-1.90957">
        <ele>54.82103</ele>
        <time>2023-05-06T16:53:25.030Z</time>
      </trkpt>
      <trkpt lat="47.48373" lon="-1.90944">
        <ele>54.820605</ele>
        <time>2023-05-06T16:53:28.025Z</time>
      </trkpt>
      <trkpt lat="47.4837" lon="-1.9093">
        <ele>54.820103</ele>
        <time>2023-05-06T16:53:32.027Z</time>
      </trkpt>
      <trkpt lat="47.48368" lon="-1.90914">
        <ele>54.819596</ele>
        <time>2023-05-06T16:53:36.032Z</time>
      </trkpt>
      <trkpt lat="47.48366" lon="-1.90899">
        <ele>54.819112</ele>
        <time>2023-05-06T16:53:40.029Z</time>
      </trkpt>
      <trkpt lat="47.48367" lon="-1.90882">
        <ele>54.818566</ele>
        <time>2023-05-06T16:53:44.023Z</time>
      </trkpt>
      <trkpt lat="47.48367" lon="-1.90868">
        <ele>54.818137</ele>
        <time>2023-05-06T16:53:47.016Z</time>
      </trkpt>
      <trkpt lat="47.48368" lon="-1.90854">
        <ele>54.817693</ele>
        <time>2023-05-06T16:53:50.016Z</time>
      </trkpt>
      <trkpt lat="47.4837" lon="-1.90838">
        <ele>54.817184</ele>
        <time>2023-05-06T16:53:54.019Z</time>
      </trkpt>
      <trkpt lat="47.48373" lon="-1.90825">
        <ele>54.816736</ele>
        <time>2023-05-06T16:53:58.020Z</time>
      </trkpt>
      <trkpt lat="47.48376" lon="-1.9081">
        <ele>54.816243</ele>
        <time>2023-05-06T16:54:02.025Z</time>
      </trkpt>
      <trkpt lat="47.48379" lon="-1.90797">
        <ele>54.815789</ele>
        <time>2023-05-06T16:54:05.022Z</time>
      </trkpt>
      <trkpt lat="47.48384" lon="-1.90784">
        <ele>54.815322</ele>
        <time>2023-05-06T16:54:08.019Z</time>
      </trkpt>
      <trkpt lat="47.48389" lon="-1.9077">
        <ele>54.814826</ele>
        <time>2023-05-06T16:54:11.019Z</time>
      </trkpt>
      <trkpt lat="47.48393" lon="-1.90755">
        <ele>54.873131</ele>
        <time>2023-05-06T16:54:14.023Z</time>
      </trkpt>
      <trkpt lat="47.48399" lon="-1.90741">
        <ele>54.957974</ele>
        <time>2023-05-06T16:54:17.024Z</time>
      </trkpt>
      <trkpt lat="47.48402" lon="-1.90728">
        <ele>55.032787</ele>
        <time>2023-05-06T16:54:20.010Z</time>
      </trkpt>
      <trkpt lat="47.48406" lon="-1.90711">
        <ele>55.125377</ele>
        <time>2023-05-06T16:54:24.007Z</time>
      </trkpt>
      <trkpt lat="47.48409" lon="-1.90696">
        <ele>55.213445</ele>
        <time>2023-05-06T16:54:28.027Z</time>
      </trkpt>
      <trkpt lat="47.48411" lon="-1.90682">
        <ele>55.288466</ele>
        <time>2023-05-06T16:54:31.024Z</time>
      </trkpt>
      <trkpt lat="47.48413" lon="-1.90666">
        <ele>55.372516</ele>
        <time>2023-05-06T16:54:34.033Z</time>
      </trkpt>
      <trkpt lat="47.48415" lon="-1.90651">
        <ele>55.45579</ele>
        <time>2023-05-06T16:54:37.025Z</time>
      </trkpt>
      <trkpt lat="47.48415" lon="-1.90635">
        <ele>55.541472</ele>
        <time>2023-05-06T16:54:40.024Z</time>
      </trkpt>
      <trkpt lat="47.48416" lon="-1.90618">
        <ele>55.629721</ele>
        <time>2023-05-06T16:54:43.026Z</time>
      </trkpt>
      <trkpt lat="47.48416" lon="-1.90602">
        <ele>55.716994</ele>
        <time>2023-05-06T16:54:46.021Z</time>
      </trkpt>
      <trkpt lat="47.48416" lon="-1.90586">
        <ele>55.800906</ele>
        <time>2023-05-06T16:54:49.024Z</time>
      </trkpt>
      <trkpt lat="47.46756" lon="-1.871">
        <ele>57.724568</ele>
        <time>2023-05-06T17:13:28.022Z</time>
      </trkpt>
      <trkpt lat="47.46748" lon="-1.87089">
        <ele>57.709536</ele>
        <time>2023-05-06T17:20:33.022Z</time>
      </trkpt>
      <trkpt lat="47.4674" lon="-1.87083">
        <ele>57.696179</ele>
        <time>2023-05-06T17:20:37.016Z</time>
      </trkpt>
      <trkpt lat="47.46731" lon="-1.87078">
        <ele>57.683121</ele>
        <time>2023-05-06T17:20:41.023Z</time>
      </trkpt>
      <trkpt lat="47.46722" lon="-1.87073">
        <ele>57.6693</ele>
        <time>2023-05-06T17:20:45.027Z</time>
      </trkpt>
      <trkpt lat="47.46712" lon="-1.87066">
        <ele>57.656839</ele>
        <time>2023-05-06T17:20:50.019Z</time>
      </trkpt>
      <trkpt lat="47.46701" lon="-1.87059">
        <ele>57.68914</ele>
        <time>2023-05-06T17:20:54.026Z</time>
      </trkpt>
      <trkpt lat="47.46692" lon="-1.87054">
        <ele>57.714313</ele>
        <time>2023-05-06T17:20:57.021Z</time>
      </trkpt>
      <trkpt lat="47.46683" lon="-1.87049">
        <ele>57.741093</ele>
        <time>2023-05-06T17:21:00.027Z</time>
      </trkpt>
      <trkpt lat="47.46675" lon="-1.87042">
        <ele>57.767445</ele>
        <time>2023-05-06T17:21:03.035Z</time>
      </trkpt>
      <trkpt lat="47.46666" lon="-1.87037">
        <ele>57.792504</ele>
        <time>2023-05-06T17:21:06.027Z</time>
      </trkpt>
      <trkpt lat="47.46657" lon="-1.87031">
        <ele>57.820403</ele>
        <time>2023-05-06T17:21:09.024Z</time>
      </trkpt>
      <trkpt lat="47.46648" lon="-1.87026">
        <ele>57.84655</ele>
        <time>2023-05-06T17:21:12.027Z</time>
      </trkpt>
      <trkpt lat="47.46639" lon="-1.8702">
        <ele>57.874113</ele>
        <time>2023-05-06T17:21:15.021Z</time>
      </trkpt>
      <trkpt lat="47.46631" lon="-1.87013">
        <ele>57.900555</ele>
        <time>2023-05-06T17:21:18.027Z</time>
      </trkpt>
      <trkpt lat="47.46622" lon="-1.87006">
        <ele>57.928801</ele>
        <time>2023-05-06T17:21:21.018Z</time>
      </trkpt>
      <trkpt lat="47.46614" lon="-1.86997">
        <ele>57.956024</ele>
        <time>2023-05-06T17:21:24.023Z</time>
      </trkpt>
      <trkpt lat="47.46606" lon="-1.86988">
        <ele>57.982626</ele>
        <time>2023-05-06T17:21:27.026Z</time>
      </trkpt>
      <trkpt lat="47.46599" lon="-1.86976">
        <ele>58.011472</ele>
        <time>2023-05-06T17:21:30.025Z</time>
      </trkpt>
      <trkpt lat="47.46594" lon="-1.86963">
        <ele>58.040757</ele>
        <time>2023-05-06T17:21:33.021Z</time>
      </trkpt>
      <trkpt lat="47.46589" lon="-1.86949">
        <ele>58.069671</ele>
        <time>2023-05-06T17:21:36.017Z</time>
      </trkpt>
      <trkpt lat="47.46585" lon="-1.86935">
        <ele>58.099532</ele>
        <time>2023-05-06T17:21:39.024Z</time>
      </trkpt>
      <trkpt lat="47.46583" lon="-1.86918">
        <ele>58.131243</ele>
        <time>2023-05-06T17:21:42.019Z</time>
      </trkpt>
      <trkpt lat="47.46583" lon="-1.86902">
        <ele>58.179134</ele>
        <time>2023-05-06T17:21:45.020Z</time>
      </trkpt>
      <trkpt lat="47.46583" lon="-1.86887">
        <ele>58.258028</ele>
        <time>2023-05-06T17:21:48.024Z</time>
      </trkpt>
      <trkpt lat="47.46584" lon="-1.86871">
        <ele>58.346694</ele>
        <time>2023-05-06T17:21:52.026Z</time>
      </trkpt>
      <trkpt lat="47.46584" lon="-1.86854">
        <ele>58.434505</ele>
        <time>2023-05-06T17:21:56.025Z</time>
      </trkpt>
      <trkpt lat="47.46586" lon="-1.8684">
        <ele>58.507334</ele>
        <time>2023-05-06T17:21:59.021Z</time>
      </trkpt>
      <trkpt lat="47.46588" lon="-1.86823">
        <ele>58.598838</ele>
        <time>2023-05-06T17:22:03.023Z</time>
      </trkpt>
      <trkpt lat="47.4659" lon="-1.8681">
        <ele>58.669859</ele>
        <time>2023-05-06T17:22:06.024Z</time>
      </trkpt>
      <trkpt lat="47.46592" lon="-1.86796">
        <ele>58.746301</ele>
        <time>2023-05-06T17:22:09.023Z</time>
      </trkpt>
      <trkpt lat="47.46595" lon="-1.86781">
        <ele>58.825799</ele>
        <time>2023-05-06T17:22:12.027Z</time>
      </trkpt>
      <trkpt lat="47.466" lon="-1.86768">
        <ele>58.903768</ele>
        <time>2023-05-06T17:22:15.025Z</time>
      </trkpt>
      <trkpt lat="47.46605" lon="-1.86755">
        <ele>58.9824</ele>
        <time>2023-05-06T17:22:20.028Z</time>
      </trkpt>
      <trkpt lat="47.4661" lon="-1.86741">
        <ele>59.063991</ele>
        <time>2023-05-06T17:22:25.021Z</time>
      </trkpt>
      <trkpt lat="47.46614" lon="-1.86729">
        <ele>59.138145</ele>
        <time>2023-05-06T17:22:30.023Z</time>
      </trkpt>
      <trkpt lat="47.4662" lon="-1.86718">
        <ele>59.214516</ele>
        <time>2023-05-06T17:22:36.024Z</time>
      </trkpt>
      <trkpt lat="47.46626" lon="-1.86706">
        <ele>59.289866</ele>
        <time>2023-05-06T17:23:44.030Z</time>
      </trkpt>
      <trkpt lat="47.4663" lon="-1.86694">
        <ele>59.360441</ele>
        <time>2023-05-06T17:23:49.022Z</time>
      </trkpt>
      <trkpt lat="47.46635" lon="-1.8668">
        <ele>59.446554</ele>
        <time>2023-05-06T17:23:53.027Z</time>
      </trkpt>
      <trkpt lat="47.4664" lon="-1.86666">
        <ele>59.528262</ele>
        <time>2023-05-06T17:23:57.025Z</time>
      </trkpt>
      <trkpt lat="47.46647" lon="-1.8665">
        <ele>59.490337</ele>
        <time>2023-05-06T17:24:01.021Z</time>
      </trkpt>
      <trkpt lat="47.46652" lon="-1.86637">
        <ele>59.429075</ele>
        <time>2023-05-06T17:24:04.027Z</time>
      </trkpt>
      <trkpt lat="47.46657" lon="-1.86623">
        <ele>59.366469</ele>
        <time>2023-05-06T17:24:07.027Z</time>
      </trkpt>
      <trkpt lat="47.4666" lon="-1.86609">
        <ele>59.304935</ele>
        <time>2023-05-06T17:24:10.026Z</time>
      </trkpt>
      <trkpt lat="47.46664" lon="-1.86593">
        <ele>59.235961</ele>
        <time>2023-05-06T17:24:13.026Z</time>
      </trkpt>
      <trkpt lat="47.46667" lon="-1.86578">
        <ele>59.172529</ele>
        <time>2023-05-06T17:24:16.027Z</time>
      </trkpt>
      <trkpt lat="47.46671" lon="-1.86565">
        <ele>59.115576</ele>
        <time>2023-05-06T17:24:19.020Z</time>
      </trkpt>
      <trkpt lat="47.46677" lon="-1.86553">
        <ele>59.05388</ele>
        <time>2023-05-06T17:24:22.021Z</time>
      </trkpt>
      <trkpt lat="47.46683" lon="-1.86541">
        <ele>58.996185</ele>
        <time>2023-05-06T17:24:25.028Z</time>
      </trkpt>
      <trkpt lat="47.46689" lon="-1.86529">
        <ele>58.935539</ele>
        <time>2023-05-06T17:24:28.017Z</time>
      </trkpt>
      <trkpt lat="47.46695" lon="-1.86515">
        <ele>58.872116</ele>
        <time>2023-05-06T17:24:31.035Z</time>
      </trkpt>
      <trkpt lat="47.46698" lon="-1.86501">
        <ele>58.81383</ele>
        <time>2023-05-06T17:24:34.025Z</time>
      </trkpt>
      <trkpt lat="47.46699" lon="-1.86486">
        <ele>58.749587</ele>
        <time>2023-05-06T17:24:37.025Z</time>
      </trkpt>
      <trkpt lat="47.46701" lon="-1.8647">
        <ele>58.685984</ele>
        <time>2023-05-06T17:24:40.025Z</time>
      </trkpt>
      <trkpt lat="47.46702" lon="-1.86453">
        <ele>58.61672</ele>
        <time>2023-05-06T17:24:43.023Z</time>
      </trkpt>
      <trkpt lat="47.46703" lon="-1.86436">
        <ele>58.549522</ele>
        <time>2023-05-06T17:24:46.021Z</time>
      </trkpt>
      <trkpt lat="47.46705" lon="-1.86418">
        <ele>58.475655</ele>
        <time>2023-05-06T17:24:49.026Z</time>
      </trkpt>
      <trkpt lat="47.46706" lon="-1.86401">
        <ele>58.312035</ele>
        <time>2023-05-06T17:24:52.024Z</time>
      </trkpt>
      <trkpt lat="47.46707" lon="-1.86386">
        <ele>58.17313</ele>
        <time>2023-05-06T17:24:55.031Z</time>
      </trkpt>
      <trkpt lat="47.46708" lon="-1.86373">
        <ele>58.042999</ele>
        <time>2023-05-06T17:24:58.019Z</time>
      </trkpt>
      <trkpt lat="47.46708" lon="-1.86356">
        <ele>57.883457</ele>
        <time>2023-05-06T17:25:02.026Z</time>
      </trkpt>
      <trkpt lat="47.46703" lon="-1.8634">
        <ele>57.718692</ele>
        <time>2023-05-06T17:25:06.019Z</time>
      </trkpt>
      <trkpt lat="47.46696" lon="-1.86328">
        <ele>57.578567</ele>
        <time>2023-05-06T17:25:09.020Z</time>
      </trkpt>
      <trkpt lat="47.46691" lon="-1.86315">
        <ele>57.434865</ele>
        <time>2023-05-06T17:25:12.022Z</time>
      </trkpt>
      <trkpt lat="47.46685" lon="-1.86302">
        <ele>57.288056</ele>
        <time>2023-05-06T17:25:15.019Z</time>
      </trkpt>
      <trkpt lat="47.46678" lon="-1.86289">
        <ele>57.130324</ele>
        <time>2023-05-06T17:25:18.028Z</time>
      </trkpt>
      <trkpt lat="47.46672" lon="-1.86275">
        <ele>56.976517</ele>
        <time>2023-05-06T17:25:21.026Z</time>
      </trkpt>
      <trkpt lat="47.46665" lon="-1.86262">
        <ele>56.824973</ele>
        <time>2023-05-06T17:25:24.020Z</time>
      </trkpt>
      <trkpt lat="47.46658" lon="-1.8625">
        <ele>56.674938</ele>
        <time>2023-05-06T17:25:27.019Z</time>
      </trkpt>
      <trkpt lat="47.46652" lon="-1.86238">
        <ele>56.532595</ele>
        <time>2023-05-06T17:25:30.021Z</time>
      </trkpt>
      <trkpt lat="47.46646" lon="-1.86227">
        <ele>56.401795</ele>
        <time>2023-05-06T17:25:33.027Z</time>
      </trkpt>
      <trkpt lat="47.46638" lon="-1.86216">
        <ele>56.255628</ele>
        <time>2023-05-06T17:25:37.028Z</time>
      </trkpt>
      <trkpt lat="47.4663" lon="-1.86203">
        <ele>56.088007</ele>
        <time>2023-05-06T17:25:41.020Z</time>
      </trkpt>
      <trkpt lat="47.46623" lon="-1.86194">
        <ele>55.993682</ele>
        <time>2023-05-06T17:25:44.022Z</time>
      </trkpt>
      <trkpt lat="47.46617" lon="-1.86185">
        <ele>56.056877</ele>
        <time>2023-05-06T17:25:47.027Z</time>
      </trkpt>
      <trkpt lat="47.4661" lon="-1.86173">
        <ele>56.124321</ele>
        <time>2023-05-06T17:25:50.023Z</time>
      </trkpt>
      <trkpt lat="47.46603" lon="-1.86161">
        <ele>56.196344</ele>
        <time>2023-05-06T17:25:53.022Z</time>
      </trkpt>
      <trkpt lat="47.46597" lon="-1.86149">
        <ele>56.266457</ele>
        <time>2023-05-06T17:25:56.027Z</time>
      </trkpt>
      <trkpt lat="47.46592" lon="-1.86132">
        <ele>56.348788</ele>
        <time>2023-05-06T17:26:00.031Z</time>
      </trkpt>
      <trkpt lat="47.46588" lon="-1.86118">
        <ele>56.417508</ele>
        <time>2023-05-06T17:26:03.019Z</time>
      </trkpt>
      <trkpt lat="47.46584" lon="-1.86104">
        <ele>56.484477</ele>
        <time>2023-05-06T17:26:06.022Z</time>
      </trkpt>
      <trkpt lat="47.46581" lon="-1.86089">
        <ele>56.555654</ele>
        <time>2023-05-06T17:26:09.028Z</time>
      </trkpt>
      <trkpt lat="47.46577" lon="-1.86076">
        <ele>56.621787</ele>
        <time>2023-05-06T17:26:12.020Z</time>
      </trkpt>
      <trkpt lat="47.46574" lon="-1.86061">
        <ele>56.691909</ele>
        <time>2023-05-06T17:26:15.025Z</time>
      </trkpt>
      <trkpt lat="47.4657" lon="-1.86047">
        <ele>56.761479</ele>
        <time>2023-05-06T17:26:18.021Z</time>
      </trkpt>
      <trkpt lat="47.46567" lon="-1.86033">
        <ele>56.82703</ele>
        <time>2023-05-06T17:26:21.023Z</time>
      </trkpt>
      <trkpt lat="47.46564" lon="-1.86019">
        <ele>56.894115</ele>
        <time>2023-05-06T17:26:24.028Z</time>
      </trkpt>
      <trkpt lat="47.46561" lon="-1.86002">
        <ele>56.971066</ele>
        <time>2023-05-06T17:26:27.019Z</time>
      </trkpt>
      <trkpt lat="47.46556" lon="-1.85987">
        <ele>57.045428</ele>
        <time>2023-05-06T17:26:30.021Z</time>
      </trkpt>
      <trkpt lat="47.46552" lon="-1.85973">
        <ele>57.116253</ele>
        <time>2023-05-06T17:26:33.028Z</time>
      </trkpt>
      <trkpt lat="47.46549" lon="-1.8596">
        <ele>57.177972</ele>
        <time>2023-05-06T17:26:36.021Z</time>
      </trkpt>
      <trkpt lat="47.46545" lon="-1.85944">
        <ele>57.130758</ele>
        <time>2023-05-06T17:26:40.024Z</time>
      </trkpt>
      <trkpt lat="47.46543" lon="-1.85931">
        <ele>57.080808</ele>
        <time>2023-05-06T17:26:43.026Z</time>
      </trkpt>
      <trkpt lat="47.46541" lon="-1.85918">
        <ele>57.030277</ele>
        <time>2023-05-06T17:26:46.026Z</time>
      </trkpt>
      <trkpt lat="47.46539" lon="-1.85905">
        <ele>56.979478</ele>
        <time>2023-05-06T17:26:49.027Z</time>
      </trkpt>
      <trkpt lat="47.46538" lon="-1.85888">
        <ele>56.916264</ele>
        <time>2023-05-06T17:26:52.026Z</time>
      </trkpt>
      <trkpt lat="47.46537" lon="-1.85875">
        <ele>56.865798</ele>
        <time>2023-05-06T17:26:55.029Z</time>
      </trkpt>
      <trkpt lat="47.46536" lon="-1.85861">
        <ele>56.812285</ele>
        <time>2023-05-06T17:26:58.020Z</time>
      </trkpt>
      <trkpt lat="47.46536" lon="-1.85845">
        <ele>56.753581</ele>
        <time>2023-05-06T17:27:01.021Z</time>
      </trkpt>
      <trkpt lat="47.46536" lon="-1.85828">
        <ele>56.688409</ele>
        <time>2023-05-06T17:27:05.024Z</time>
      </trkpt>
      <trkpt lat="47.46535" lon="-1.85812">
        <ele>56.628953</ele>
        <time>2023-05-06T17:27:08.029Z</time>
      </trkpt>
      <trkpt lat="47.46536" lon="-1.85796">
        <ele>56.568791</ele>
        <time>2023-05-06T17:27:11.029Z</time>
      </trkpt>
      <trkpt lat="47.46538" lon="-1.85783">
        <ele>56.517345</ele>
        <time>2023-05-06T17:27:14.029Z</time>
      </trkpt>
      <trkpt lat="47.46541" lon="-1.85766">
        <ele>56.452409</ele>
        <time>2023-05-06T17:27:18.026Z</time>
      </trkpt>
      <trkpt lat="47.46543" lon="-1.85752">
        <ele>56.398747</ele>
        <time>2023-05-06T17:27:21.025Z</time>
      </trkpt>
      <trkpt lat="47.46547" lon="-1.85739">
        <ele>56.343887</ele>
        <time>2023-05-06T17:27:25.022Z</time>
      </trkpt>
      <trkpt lat="47.46551" lon="-1.85726">
        <ele>56.290066</ele>
        <time>2023-05-06T17:27:29.022Z</time>
      </trkpt>
      <trkpt lat="47.46555" lon="-1.85713">
        <ele>56.2384</ele>
        <time>2023-05-06T17:27:34.020Z</time>
      </trkpt>
      <trkpt lat="47.46559" lon="-1.857">
        <ele>56.189394</ele>
        <time>2023-05-06T17:27:39.026Z</time>
      </trkpt>
      <trkpt lat="47.46563" lon="-1.85687">
        <ele>56.220892</ele>
        <time>2023-05-06T17:27:45.021Z</time>
      </trkpt>
      <trkpt lat="47.46565" lon="-1.85674">
        <ele>56.251587</ele>
        <time>2023-05-06T17:27:50.019Z</time>
      </trkpt>
      <trkpt lat="47.46571" lon="-1.85663">
        <ele>56.283967</ele>
        <time>2023-05-06T17:27:57.019Z</time>
      </trkpt>
      <trkpt lat="47.46576" lon="-1.85649">
        <ele>56.318956</ele>
        <time>2023-05-06T17:28:03.029Z</time>
      </trkpt>
      <trkpt lat="47.46579" lon="-1.85636">
        <ele>56.352574</ele>
        <time>2023-05-06T17:28:16.027Z</time>
      </trkpt>
      <trkpt lat="47.46584" lon="-1.85622">
        <ele>56.38704</ele>
        <time>2023-05-06T17:28:20.021Z</time>
      </trkpt>
      <trkpt lat="47.4659" lon="-1.85608">
        <ele>56.424946</ele>
        <time>2023-05-06T17:28:25.023Z</time>
      </trkpt>
      <trkpt lat="47.46595" lon="-1.85596">
        <ele>56.459199</ele>
        <time>2023-05-06T17:28:29.025Z</time>
      </trkpt>
      <trkpt lat="47.466" lon="-1.85583">
        <ele>56.49352</ele>
        <time>2023-05-06T17:28:33.028Z</time>
      </trkpt>
      <trkpt lat="47.46606" lon="-1.85568">
        <ele>56.532838</ele>
        <time>2023-05-06T17:28:36.021Z</time>
      </trkpt>
      <trkpt lat="47.46611" lon="-1.85553">
        <ele>56.570392</ele>
        <time>2023-05-06T17:28:40.024Z</time>
      </trkpt>
      <trkpt lat="47.46617" lon="-1.85538">
        <ele>56.611517</ele>
        <time>2023-05-06T17:28:44.029Z</time>
      </trkpt>
      <trkpt lat="47.46623" lon="-1.85523">
        <ele>56.65149</ele>
        <time>2023-05-06T17:28:47.022Z</time>
      </trkpt>
      <trkpt lat="47.46629" lon="-1.8551">
        <ele>56.687832</ele>
        <time>2023-05-06T17:28:50.025Z</time>
      </trkpt>
      <trkpt lat="47.46634" lon="-1.85498">
        <ele>56.719804</ele>
        <time>2023-05-06T17:28:53.030Z</time>
      </trkpt>
      <trkpt lat="47.4664" lon="-1.85487">
        <ele>56.751391</ele>
        <time>2023-05-06T17:28:57.025Z</time>
      </trkpt>
      <trkpt lat="47.46646" lon="-1.85476">
        <ele>56.784895</ele>
        <time>2023-05-06T17:29:01.021Z</time>
      </trkpt>
      <trkpt lat="47.46652" lon="-1.85465">
        <ele>56.82657</ele>
        <time>2023-05-06T17:29:04.027Z</time>
      </trkpt>
      <trkpt lat="47.46658" lon="-1.85455">
        <ele>56.872663</ele>
        <time>2023-05-06T17:29:07.019Z</time>
      </trkpt>
      <trkpt lat="47.46665" lon="-1.85445">
        <ele>56.923899</ele>
        <time>2023-05-06T17:29:11.025Z</time>
      </trkpt>
      <trkpt lat="47.46673" lon="-1.85433">
        <ele>56.980808</ele>
        <time>2023-05-06T17:29:15.019Z</time>
      </trkpt>
      <trkpt lat="47.46683" lon="-1.85423">
        <ele>57.039533</ele>
        <time>2023-05-06T17:29:19.024Z</time>
      </trkpt>
      <trkpt lat="47.4669" lon="-1.85414">
        <ele>57.087351</ele>
        <time>2023-05-06T17:29:22.028Z</time>
      </trkpt>
      <trkpt lat="47.46698" lon="-1.85406">
        <ele>57.136673</ele>
        <time>2023-05-06T17:29:25.023Z</time>
      </trkpt>
      <trkpt lat="47.46705" lon="-1.85398">
        <ele>57.183981</ele>
        <time>2023-05-06T17:29:28.034Z</time>
      </trkpt>
      <trkpt lat="47.46713" lon="-1.8539">
        <ele>57.230846</ele>
        <time>2023-05-06T17:29:31.017Z</time>
      </trkpt>
      <trkpt lat="47.46722" lon="-1.8538">
        <ele>57.290251</ele>
        <time>2023-05-06T17:29:35.025Z</time>
      </trkpt>
      <trkpt lat="47.46733" lon="-1.85374">
        <ele>57.348924</ele>
        <time>2023-05-06T17:29:39.016Z</time>
      </trkpt>
      <trkpt lat="47.46743" lon="-1.85366">
        <ele>57.406065</ele>
        <time>2023-05-06T17:29:43.030Z</time>
      </trkpt>
      <trkpt lat="47.46751" lon="-1.85359">
        <ele>57.452487</ele>
        <time>2023-05-06T17:29:46.024Z</time>
      </trkpt>
      <trkpt lat="47.4676" lon="-1.85353">
        <ele>57.503341</ele>
        <time>2023-05-06T17:29:49.024Z</time>
      </trkpt>
      <trkpt lat="47.46769" lon="-1.85347">
        <ele>57.554337</ele>
        <time>2023-05-06T17:29:52.018Z</time>
      </trkpt>
      <trkpt lat="47.46779" lon="-1.85341">
        <ele>57.606447</ele>
        <time>2023-05-06T17:29:55.018Z</time>
      </trkpt>
      <trkpt lat="47.4679" lon="-1.85335">
        <ele>57.667438</ele>
        <time>2023-05-06T17:29:59.022Z</time>
      </trkpt>
      <trkpt lat="47.46799" lon="-1.8533">
        <ele>57.717912</ele>
        <time>2023-05-06T17:30:02.019Z</time>
      </trkpt>
      <trkpt lat="47.46808" lon="-1.85325">
        <ele>57.780391</ele>
        <time>2023-05-06T17:30:05.022Z</time>
      </trkpt>
      <trkpt lat="47.46817" lon="-1.85321">
        <ele>57.842901</ele>
        <time>2023-05-06T17:30:08.020Z</time>
      </trkpt>
      <trkpt lat="47.46825" lon="-1.85316">
        <ele>57.903194</ele>
        <time>2023-05-06T17:30:11.018Z</time>
      </trkpt>
      <trkpt lat="47.46835" lon="-1.85311">
        <ele>57.974142</ele>
        <time>2023-05-06T17:30:15.030Z</time>
      </trkpt>
      <trkpt lat="47.46846" lon="-1.85305">
        <ele>58.053673</ele>
        <time>2023-05-06T17:30:19.018Z</time>
      </trkpt>
      <trkpt lat="47.46855" lon="-1.853">
        <ele>58.116349</ele>
        <time>2023-05-06T17:30:22.018Z</time>
      </trkpt>
      <trkpt lat="47.46864" lon="-1.85296">
        <ele>58.177745</ele>
        <time>2023-05-06T17:30:25.027Z</time>
      </trkpt>
      <trkpt lat="47.46872" lon="-1.85291">
        <ele>58.239136</ele>
        <time>2023-05-06T17:30:28.027Z</time>
      </trkpt>
      <trkpt lat="47.46882" lon="-1.85285">
        <ele>58.306023</ele>
        <time>2023-05-06T17:30:31.020Z</time>
      </trkpt>
      <trkpt lat="47.46891" lon="-1.8528">
        <ele>58.375223</ele>
        <time>2023-05-06T17:30:34.022Z</time>
      </trkpt>
      <trkpt lat="47.46901" lon="-1.85274">
        <ele>58.440879</ele>
        <time>2023-05-06T17:30:37.009Z</time>
      </trkpt>
      <trkpt lat="47.46909" lon="-1.85269">
        <ele>58.503218</ele>
        <time>2023-05-06T17:30:40.013Z</time>
      </trkpt>
      <trkpt lat="47.46917" lon="-1.85263">
        <ele>58.563572</ele>
        <time>2023-05-06T17:30:43.022Z</time>
      </trkpt>
      <trkpt lat="47.46929" lon="-1.85257">
        <ele>58.64405</ele>
        <time>2023-05-06T17:30:47.025Z</time>
      </trkpt>
      <trkpt lat="47.46937" lon="-1.85251">
        <ele>58.704597</ele>
        <time>2023-05-06T17:30:50.021Z</time>
      </trkpt>
      <trkpt lat="47.46946" lon="-1.85244">
        <ele>58.775115</ele>
        <time>2023-05-06T17:30:53.026Z</time>
      </trkpt>
      <trkpt lat="47.46956" lon="-1.85237">
        <ele>58.847818</ele>
        <time>2023-05-06T17:30:56.027Z</time>
      </trkpt>
      <trkpt lat="47.46966" lon="-1.85229">
        <ele>58.917233</ele>
        <time>2023-05-06T17:30:59.021Z</time>
      </trkpt>
      <trkpt lat="47.46975" lon="-1.85221">
        <ele>58.96335</ele>
        <time>2023-05-06T17:31:02.028Z</time>
      </trkpt>
      <trkpt lat="47.46984" lon="-1.85214">
        <ele>59.005995</ele>
        <time>2023-05-06T17:31:05.028Z</time>
      </trkpt>
      <trkpt lat="47.46992" lon="-1.85206">
        <ele>59.049508</ele>
        <time>2023-05-06T17:31:08.099Z</time>
      </trkpt>
      <trkpt lat="47.47001" lon="-1.85198">
        <ele>59.093783</ele>
        <time>2023-05-06T17:31:11.026Z</time>
      </trkpt>
      <trkpt lat="47.4701" lon="-1.85191">
        <ele>59.138454</ele>
        <time>2023-05-06T17:31:14.028Z</time>
      </trkpt>
      <trkpt lat="47.47019" lon="-1.85183">
        <ele>59.181966</ele>
        <time>2023-05-06T17:31:17.026Z</time>
      </trkpt>
      <trkpt lat="47.47027" lon="-1.85174">
        <ele>59.224754</ele>
        <time>2023-05-06T17:31:20.026Z</time>
      </trkpt>
      <trkpt lat="47.47035" lon="-1.85165">
        <ele>59.267973</ele>
        <time>2023-05-06T17:31:23.025Z</time>
      </trkpt>
      <trkpt lat="47.47041" lon="-1.85154">
        <ele>59.311364</ele>
        <time>2023-05-06T17:31:26.029Z</time>
      </trkpt>
      <trkpt lat="47.47048" lon="-1.85143">
        <ele>59.353389</ele>
        <time>2023-05-06T17:31:29.029Z</time>
      </trkpt>
      <trkpt lat="47.47054" lon="-1.85132">
        <ele>59.395388</ele>
        <time>2023-05-06T17:31:32.029Z</time>
      </trkpt>
      <trkpt lat="47.47061" lon="-1.85118">
        <ele>59.443712</ele>
        <time>2023-05-06T17:31:36.031Z</time>
      </trkpt>
      <trkpt lat="47.47464" lon="-1.83982">
        <ele>57.501227</ele>
        <time>2023-05-06T17:37:26.022Z</time>
      </trkpt>
      <trkpt lat="47.47467" lon="-1.83968">
        <ele>57.375085</ele>
        <time>2023-05-06T17:38:10.027Z</time>
      </trkpt>
      <trkpt lat="47.47472" lon="-1.83953">
        <ele>57.23599</ele>
        <time>2023-05-06T17:38:13.028Z</time>
      </trkpt>
      <trkpt lat="47.47476" lon="-1.8394">
        <ele>57.116334</ele>
        <time>2023-05-06T17:38:16.031Z</time>
      </trkpt>
      <trkpt lat="47.47481" lon="-1.83924">
        <ele>56.973917</ele>
        <time>2023-05-06T17:38:20.028Z</time>
      </trkpt>
      <trkpt lat="47.47484" lon="-1.83911">
        <ele>56.853935</ele>
        <time>2023-05-06T17:38:23.020Z</time>
      </trkpt>
      <trkpt lat="47.47489" lon="-1.83894">
        <ele>56.701536</ele>
        <time>2023-05-06T17:38:27.017Z</time>
      </trkpt>
      <trkpt lat="47.47493" lon="-1.83878">
        <ele>56.555115</ele>
        <time>2023-05-06T17:38:31.027Z</time>
      </trkpt>
      <trkpt lat="47.47497" lon="-1.83864">
        <ele>56.423494</ele>
        <time>2023-05-06T17:38:34.022Z</time>
      </trkpt>
      <trkpt lat="47.47502" lon="-1.83848">
        <ele>56.441738</ele>
        <time>2023-05-06T17:38:37.023Z</time>
      </trkpt>
      <trkpt lat="47.47506" lon="-1.83835">
        <ele>56.472866</ele>
        <time>2023-05-06T17:38:40.025Z</time>
      </trkpt>
      <trkpt lat="47.4751" lon="-1.8382">
        <ele>56.507746</ele>
        <time>2023-05-06T17:38:43.021Z</time>
      </trkpt>
      <trkpt lat="47.47514" lon="-1.83805">
        <ele>56.542226</ele>
        <time>2023-05-06T17:38:46.026Z</time>
      </trkpt>
      <trkpt lat="47.47518" lon="-1.83789">
        <ele>56.579187</ele>
        <time>2023-05-06T17:38:49.029Z</time>
      </trkpt>
      <trkpt lat="47.47522" lon="-1.83773">
        <ele>56.616969</ele>
        <time>2023-05-06T17:38:52.020Z</time>
      </trkpt>
      <trkpt lat="47.47526" lon="-1.83756">
        <ele>56.654343</ele>
        <time>2023-05-06T17:38:55.025Z</time>
      </trkpt>
      <trkpt lat="47.47529" lon="-1.83741">
        <ele>56.689581</ele>
        <time>2023-05-06T17:38:58.022Z</time>
      </trkpt>
      <trkpt lat="47.47533" lon="-1.83725">
        <ele>56.725326</ele>
        <time>2023-05-06T17:39:01.026Z</time>
      </trkpt>
      <trkpt lat="47.47537" lon="-1.83709">
        <ele>56.762911</ele>
        <time>2023-05-06T17:39:04.017Z</time>
      </trkpt>
      <trkpt lat="47.4754" lon="-1.83692">
        <ele>56.79978</ele>
        <time>2023-05-06T17:39:07.014Z</time>
      </trkpt>
      <trkpt lat="47.47544" lon="-1.83676">
        <ele>56.837266</ele>
        <time>2023-05-06T17:39:10.025Z</time>
      </trkpt>
      <trkpt lat="47.47546" lon="-1.83659">
        <ele>56.874096</ele>
        <time>2023-05-06T17:39:13.039Z</time>
      </trkpt>
      <trkpt lat="47.47547" lon="-1.83642">
        <ele>56.911312</ele>
        <time>2023-05-06T17:39:16.016Z</time>
      </trkpt>
      <trkpt lat="47.47547" lon="-1.83625">
        <ele>56.948176</ele>
        <time>2023-05-06T17:39:19.028Z</time>
      </trkpt>
      <trkpt lat="47.47546" lon="-1.83608">
        <ele>56.988851</ele>
        <time>2023-05-06T17:39:22.024Z</time>
      </trkpt>
      <trkpt lat="47.47546" lon="-1.8359">
        <ele>57.209142</ele>
        <time>2023-05-06T17:39:25.028Z</time>
      </trkpt>
      <trkpt lat="47.47545" lon="-1.83572">
        <ele>57.42824</ele>
        <time>2023-05-06T17:39:28.030Z</time>
      </trkpt>
      <trkpt lat="47.47544" lon="-1.83555">
        <ele>57.64312</ele>
        <time>2023-05-06T17:39:31.016Z</time>
      </trkpt>
      <trkpt lat="47.47544" lon="-1.83539">
        <ele>57.842869</ele>
        <time>2023-05-06T17:39:34.029Z</time>
      </trkpt>
      <trkpt lat="47.47543" lon="-1.83522">
        <ele>58.048758</ele>
        <time>2023-05-06T17:39:37.035Z</time>
      </trkpt>
      <trkpt lat="47.47542" lon="-1.83505">
        <ele>58.255827</ele>
        <time>2023-05-06T17:39:40.019Z</time>
      </trkpt>
      <trkpt lat="47.4754" lon="-1.83488">
        <ele>58.470225</ele>
        <time>2023-05-06T17:39:43.026Z</time>
      </trkpt>
      <trkpt lat="47.47539" lon="-1.83472">
        <ele>58.675087</ele>
        <time>2023-05-06T17:39:46.045Z</time>
      </trkpt>
      <trkpt lat="47.47536" lon="-1.83455">
        <ele>58.888361</ele>
        <time>2023-05-06T17:39:49.030Z</time>
      </trkpt>
      <trkpt lat="47.47534" lon="-1.83437">
        <ele>59.104695</ele>
        <time>2023-05-06T17:39:52.028Z</time>
      </trkpt>
      <trkpt lat="47.47532" lon="-1.83421">
        <ele>59.316418</ele>
        <time>2023-05-06T17:39:55.027Z</time>
      </trkpt>
      <trkpt lat="47.4753" lon="-1.83404">
        <ele>59.521164</ele>
        <time>2023-05-06T17:39:58.021Z</time>
      </trkpt>
      <trkpt lat="47.47528" lon="-1.83387">
        <ele>59.736784</ele>
        <time>2023-05-06T17:40:01.019Z</time>
      </trkpt>
      <trkpt lat="47.47526" lon="-1.8337">
        <ele>59.95217</ele>
        <time>2023-05-06T17:40:04.030Z</time>
      </trkpt>
      <trkpt lat="47.47525" lon="-1.83352">
        <ele>60.166793</ele>
        <time>2023-05-06T17:40:07.027Z</time>
      </trkpt>
      <trkpt lat="47.47523" lon="-1.83336">
        <ele>60.309316</ele>
        <time>2023-05-06T17:40:10.034Z</time>
      </trkpt>
      <trkpt lat="47.47519" lon="-1.83321">
        <ele>60.404029</ele>
        <time>2023-05-06T17:40:13.028Z</time>
      </trkpt>
      <trkpt lat="47.47514" lon="-1.83305">
        <ele>60.50639</ele>
        <time>2023-05-06T17:40:16.020Z</time>
      </trkpt>
      <trkpt lat="47.47509" lon="-1.83288">
        <ele>60.61026</ele>
        <time>2023-05-06T17:40:19.029Z</time>
      </trkpt>
      <trkpt lat="47.47504" lon="-1.83272">
        <ele>60.710485</ele>
        <time>2023-05-06T17:40:22.028Z</time>
      </trkpt>
      <trkpt lat="47.47498" lon="-1.83257">
        <ele>60.812557</ele>
        <time>2023-05-06T17:40:25.030Z</time>
      </trkpt>
      <trkpt lat="47.47494" lon="-1.83241">
        <ele>60.910488</ele>
        <time>2023-05-06T17:40:28.028Z</time>
      </trkpt>
      <trkpt lat="47.47489" lon="-1.83225">
        <ele>61.010252</ele>
        <time>2023-05-06T17:40:31.028Z</time>
      </trkpt>
      <trkpt lat="47.47483" lon="-1.8321">
        <ele>61.106746</ele>
        <time>2023-05-06T17:40:34.037Z</time>
      </trkpt>
      <trkpt lat="47.47477" lon="-1.83195">
        <ele>61.205071</ele>
        <time>2023-05-06T17:40:37.023Z</time>
      </trkpt>
      <trkpt lat="47.47472" lon="-1.83179">
        <ele>61.306593</ele>
        <time>2023-05-06T17:40:40.032Z</time>
      </trkpt>
      <trkpt lat="47.47467" lon="-1.83166">
        <ele>61.394036</ele>
        <time>2023-05-06T17:40:43.019Z</time>
      </trkpt>
      <trkpt lat="47.47462" lon="-1.83152">
        <ele>61.484191</ele>
        <time>2023-05-06T17:40:46.029Z</time>
      </trkpt>
      <trkpt lat="47.47457" lon="-1.83137">
        <ele>61.579256</ele>
        <time>2023-05-06T17:40:49.044Z</time>
      </trkpt>
      <trkpt lat="47.47451" lon="-1.83121">
        <ele>61.682892</ele>
        <time>2023-05-06T17:40:52.028Z</time>
      </trkpt>
      <trkpt lat="47.47447" lon="-1.83106">
        <ele>61.778911</ele>
        <time>2023-05-06T17:40:55.031Z</time>
      </trkpt>
      <trkpt lat="47.4744" lon="-1.83091">
        <ele>61.755293</ele>
        <time>2023-05-06T17:40:58.030Z</time>
      </trkpt>
      <trkpt lat="47.47434" lon="-1.83077">
        <ele>61.732889</ele>
        <time>2023-05-06T17:41:01.031Z</time>
      </trkpt>
      <trkpt lat="47.47428" lon="-1.83063">
        <ele>61.711253</ele>
        <time>2023-05-06T17:41:04.026Z</time>
      </trkpt>
      <trkpt lat="47.47422" lon="-1.8305">
        <ele>61.689395</ele>
        <time>2023-05-06T17:41:07.026Z</time>
      </trkpt>
      <trkpt lat="47.47414" lon="-1.83036">
        <ele>61.665828</ele>
        <time>2023-05-06T17:41:10.024Z</time>
      </trkpt>
      <trkpt lat="47.47408" lon="-1.83024">
        <ele>61.645286</ele>
        <time>2023-05-06T17:41:13.027Z</time>
      </trkpt>
      <trkpt lat="47.47401" lon="-1.83013">
        <ele>61.625739</ele>
        <time>2023-05-06T17:41:16.027Z</time>
      </trkpt>
      <trkpt lat="47.47393" lon="-1.83003">
        <ele>61.60401</ele>
        <time>2023-05-06T17:41:20.027Z</time>
      </trkpt>
      <trkpt lat="47.47384" lon="-1.82992">
        <ele>61.581809</ele>
        <time>2023-05-06T17:41:24.028Z</time>
      </trkpt>
      <trkpt lat="47.47377" lon="-1.82984">
        <ele>61.562779</ele>
        <time>2023-05-06T17:41:27.030Z</time>
      </trkpt>
      <trkpt lat="47.47368" lon="-1.82974">
        <ele>61.541746</ele>
        <time>2023-05-06T17:41:30.028Z</time>
      </trkpt>
      <trkpt lat="47.4736" lon="-1.82964">
        <ele>61.520821</ele>
        <time>2023-05-06T17:41:33.033Z</time>
      </trkpt>
      <trkpt lat="47.47352" lon="-1.82956">
        <ele>61.501405</ele>
        <time>2023-05-06T17:41:36.024Z</time>
      </trkpt>
      <trkpt lat="47.47342" lon="-1.82947">
        <ele>61.478981</ele>
        <time>2023-05-06T17:41:39.027Z</time>
      </trkpt>
      <trkpt lat="47.47332" lon="-1.82937">
        <ele>61.455387</ele>
        <time>2023-05-06T17:41:42.026Z</time>
      </trkpt>
      <trkpt lat="47.47324" lon="-1.82927">
        <ele>61.435046</ele>
        <time>2023-05-06T17:41:45.031Z</time>
      </trkpt>
      <trkpt lat="47.47316" lon="-1.82917">
        <ele>61.428311</ele>
        <time>2023-05-06T17:41:48.029Z</time>
      </trkpt>
      <trkpt lat="47.47306" lon="-1.82907">
        <ele>61.440194</ele>
        <time>2023-05-06T17:41:51.026Z</time>
      </trkpt>
      <trkpt lat="47.47299" lon="-1.82895">
        <ele>61.451382</ele>
        <time>2023-05-06T17:41:54.025Z</time>
      </trkpt>
      <trkpt lat="47.47293" lon="-1.82882">
        <ele>61.462067</ele>
        <time>2023-05-06T17:41:57.029Z</time>
      </trkpt>
      <trkpt lat="47.47287" lon="-1.8287">
        <ele>61.472403</ele>
        <time>2023-05-06T17:42:00.036Z</time>
      </trkpt>
      <trkpt lat="47.4728" lon="-1.82859">
        <ele>61.483012</ele>
        <time>2023-05-06T17:42:03.020Z</time>
      </trkpt>
      <trkpt lat="47.47273" lon="-1.82846">
        <ele>61.494145</ele>
        <time>2023-05-06T17:42:06.022Z</time>
      </trkpt>
      <trkpt lat="47.47266" lon="-1.82832">
        <ele>61.506161</ele>
        <time>2023-05-06T17:42:09.030Z</time>
      </trkpt>
      <trkpt lat="47.47259" lon="-1.82818">
        <ele>61.51834</ele>
        <time>2023-05-06T17:42:12.025Z</time>
      </trkpt>
      <trkpt lat="47.47251" lon="-1.82804">
        <ele>61.530519</ele>
        <time>2023-05-06T17:42:15.028Z</time>
      </trkpt>
      <trkpt lat="47.47245" lon="-1.8279">
        <ele>61.542055</ele>
        <time>2023-05-06T17:42:18.022Z</time>
      </trkpt>
      <trkpt lat="47.47238" lon="-1.82776">
        <ele>61.553639</ele>
        <time>2023-05-06T17:42:21.024Z</time>
      </trkpt>
      <trkpt lat="47.47232" lon="-1.82764">
        <ele>61.56451</ele>
        <time>2023-05-06T17:42:24.027Z</time>
      </trkpt>
      <trkpt lat="47.47226" lon="-1.8275">
        <ele>61.575758</ele>
        <time>2023-05-06T17:42:27.026Z</time>
      </trkpt>
      <trkpt lat="47.4722" lon="-1.82737">
        <ele>61.586829</ele>
        <time>2023-05-06T17:42:30.029Z</time>
      </trkpt>
      <trkpt lat="47.47214" lon="-1.82722">
        <ele>61.598375</ele>
        <time>2023-05-06T17:42:33.027Z</time>
      </trkpt>
      <trkpt lat="47.47208" lon="-1.8271">
        <ele>61.570596</ele>
        <time>2023-05-06T17:42:36.022Z</time>
      </trkpt>
      <trkpt lat="47.47202" lon="-1.82697">
        <ele>61.434631</ele>
        <time>2023-05-06T17:42:39.027Z</time>
      </trkpt>
      <trkpt lat="47.47195" lon="-1.82683">
        <ele>61.280049</ele>
        <time>2023-05-06T17:42:42.027Z</time>
      </trkpt>
      <trkpt lat="47.4719" lon="-1.82668">
        <ele>61.125982</ele>
        <time>2023-05-06T17:42:45.027Z</time>
      </trkpt>
      <trkpt lat="47.47184" lon="-1.82654">
        <ele>60.976584</ele>
        <time>2023-05-06T17:42:48.026Z</time>
      </trkpt>
      <trkpt lat="47.47177" lon="-1.8264">
        <ele>60.824962</ele>
        <time>2023-05-06T17:42:51.017Z</time>
      </trkpt>
      <trkpt lat="47.47172" lon="-1.82625">
        <ele>60.673659</ele>
        <time>2023-05-06T17:42:54.021Z</time>
      </trkpt>
      <trkpt lat="47.47167" lon="-1.82611">
        <ele>60.528299</ele>
        <time>2023-05-06T17:42:57.027Z</time>
      </trkpt>
      <trkpt lat="47.47164" lon="-1.82597">
        <ele>60.395781</ele>
        <time>2023-05-06T17:43:00.036Z</time>
      </trkpt>
      <trkpt lat="47.4716" lon="-1.82583">
        <ele>60.258148</ele>
        <time>2023-05-06T17:43:03.021Z</time>
      </trkpt>
      <trkpt lat="47.47156" lon="-1.82568">
        <ele>60.111888</ele>
        <time>2023-05-06T17:43:06.023Z</time>
      </trkpt>
      <trkpt lat="47.47152" lon="-1.82553">
        <ele>59.968711</ele>
        <time>2023-05-06T17:43:09.020Z</time>
      </trkpt>
      <trkpt lat="47.47148" lon="-1.82537">
        <ele>59.816117</ele>
        <time>2023-05-06T17:43:12.027Z</time>
      </trkpt>
      <trkpt lat="47.47145" lon="-1.8252">
        <ele>59.657521</ele>
        <time>2023-05-06T17:43:15.020Z</time>
      </trkpt>
      <trkpt lat="47.47141" lon="-1.82503">
        <ele>59.503599</ele>
        <time>2023-05-06T17:43:18.027Z</time>
      </trkpt>
      <trkpt lat="47.47138" lon="-1.82487">
        <ele>59.350039</ele>
        <time>2023-05-06T17:43:21.021Z</time>
      </trkpt>
      <trkpt lat="47.47136" lon="-1.8247">
        <ele>59.249231</ele>
        <time>2023-05-06T17:43:24.023Z</time>
      </trkpt>
      <trkpt lat="47.47133" lon="-1.82453">
        <ele>59.42632</ele>
        <time>2023-05-06T17:43:27.026Z</time>
      </trkpt>
      <trkpt lat="47.47131" lon="-1.82437">
        <ele>59.594837</ele>
        <time>2023-05-06T17:43:30.024Z</time>
      </trkpt>
      <trkpt lat="47.47129" lon="-1.82422">
        <ele>59.748502</ele>
        <time>2023-05-06T17:43:33.021Z</time>
      </trkpt>
      <trkpt lat="47.47126" lon="-1.82408">
        <ele>59.901211</ele>
        <time>2023-05-06T17:43:36.025Z</time>
      </trkpt>
      <trkpt lat="47.47123" lon="-1.82396">
        <ele>60.038812</ele>
        <time>2023-05-06T17:43:39.020Z</time>
      </trkpt>
      <trkpt lat="47.47118" lon="-1.82381">
        <ele>60.205286</ele>
        <time>2023-05-06T17:43:43.027Z</time>
      </trkpt>
      <trkpt lat="47.47114" lon="-1.82369">
        <ele>60.34673</ele>
        <time>2023-05-06T17:43:47.021Z</time>
      </trkpt>
      <trkpt lat="47.47109" lon="-1.82355">
        <ele>60.514087</ele>
        <time>2023-05-06T17:43:51.025Z</time>
      </trkpt>
      <trkpt lat="47.47102" lon="-1.8234">
        <ele>60.698311</ele>
        <time>2023-05-06T17:43:55.023Z</time>
      </trkpt>
      <trkpt lat="47.47096" lon="-1.82325">
        <ele>60.876208</ele>
        <time>2023-05-06T17:43:59.031Z</time>
      </trkpt>
      <trkpt lat="47.4709" lon="-1.82314">
        <ele>61.021718</ele>
        <time>2023-05-06T17:44:02.036Z</time>
      </trkpt>
      <trkpt lat="47.47084" lon="-1.82302">
        <ele>61.169428</ele>
        <time>2023-05-06T17:44:05.026Z</time>
      </trkpt>
      <trkpt lat="47.47078" lon="-1.8229">
        <ele>61.321294</ele>
        <time>2023-05-06T17:44:08.029Z</time>
      </trkpt>
      <trkpt lat="47.47072" lon="-1.82279">
        <ele>61.475616</ele>
        <time>2023-05-06T17:44:11.024Z</time>
      </trkpt>
      <trkpt lat="47.47066" lon="-1.82267">
        <ele>61.626914</ele>
        <time>2023-05-06T17:44:14.028Z</time>
      </trkpt>
      <trkpt lat="47.4706" lon="-1.82256">
        <ele>61.773904</ele>
        <time>2023-05-06T17:44:17.037Z</time>
      </trkpt>
      <trkpt lat="47.47054" lon="-1.82241">
        <ele>61.94941</ele>
        <time>2023-05-06T17:44:21.027Z</time>
      </trkpt>
      <trkpt lat="47.47049" lon="-1.8223">
        <ele>61.897488</ele>
        <time>2023-05-06T17:44:24.024Z</time>
      </trkpt>
      <trkpt lat="47.47042" lon="-1.82218">
        <ele>61.823477</ele>
        <time>2023-05-06T17:44:27.025Z</time>
      </trkpt>
      <trkpt lat="47.47036" lon="-1.82205">
        <ele>61.746651</ele>
        <time>2023-05-06T17:44:30.031Z</time>
      </trkpt>
      <trkpt lat="47.47029" lon="-1.82192">
        <ele>61.669909</ele>
        <time>2023-05-06T17:44:33.040Z</time>
      </trkpt>
      <trkpt lat="47.47024" lon="-1.82179">
        <ele>61.597878</ele>
        <time>2023-05-06T17:44:36.029Z</time>
      </trkpt>
      <trkpt lat="47.4702" lon="-1.82167">
        <ele>61.531789</ele>
        <time>2023-05-06T17:44:39.028Z</time>
      </trkpt>
      <trkpt lat="47.47014" lon="-1.82151">
        <ele>61.447586</ele>
        <time>2023-05-06T17:44:43.026Z</time>
      </trkpt>
      <trkpt lat="47.4701" lon="-1.82138">
        <ele>61.378058</ele>
        <time>2023-05-06T17:44:46.034Z</time>
      </trkpt>
      <trkpt lat="47.47006" lon="-1.82124">
        <ele>61.30352</ele>
        <time>2023-05-06T17:44:49.032Z</time>
      </trkpt>
      <trkpt lat="47.47002" lon="-1.8211">
        <ele>61.230012</ele>
        <time>2023-05-06T17:44:52.032Z</time>
      </trkpt>
      <trkpt lat="47.46998" lon="-1.82095">
        <ele>61.151079</ele>
        <time>2023-05-06T17:44:55.027Z</time>
      </trkpt>
      <trkpt lat="47.46994" lon="-1.82081">
        <ele>61.077907</ele>
        <time>2023-05-06T17:44:58.026Z</time>
      </trkpt>
      <trkpt lat="47.46991" lon="-1.82067">
        <ele>61.009753</ele>
        <time>2023-05-06T17:45:01.033Z</time>
      </trkpt>
      <trkpt lat="47.46988" lon="-1.82054">
        <ele>60.944275</ele>
        <time>2023-05-06T17:45:04.028Z</time>
      </trkpt>
      <trkpt lat="47.46985" lon="-1.82037">
        <ele>60.859548</ele>
        <time>2023-05-06T17:45:08.027Z</time>
      </trkpt>
      <trkpt lat="47.46982" lon="-1.82024">
        <ele>60.794569</ele>
        <time>2023-05-06T17:45:11.027Z</time>
      </trkpt>
      <trkpt lat="47.4698" lon="-1.82011">
        <ele>60.729367</ele>
        <time>2023-05-06T17:45:14.030Z</time>
      </trkpt>
      <trkpt lat="47.46979" lon="-1.81997">
        <ele>60.671385</ele>
        <time>2023-05-06T17:45:17.029Z</time>
      </trkpt>
      <trkpt lat="47.46978" lon="-1.81983">
        <ele>60.63387</ele>
        <time>2023-05-06T17:45:20.034Z</time>
      </trkpt>
      <trkpt lat="47.46977" lon="-1.81969">
        <ele>60.595021</ele>
        <time>2023-05-06T17:45:23.021Z</time>
      </trkpt>
      <trkpt lat="47.46976" lon="-1.81953">
        <ele>60.552571</ele>
        <time>2023-05-06T17:45:26.021Z</time>
      </trkpt>
      <trkpt lat="47.46974" lon="-1.81938">
        <ele>60.511501</ele>
        <time>2023-05-06T17:45:29.028Z</time>
      </trkpt>
      <trkpt lat="47.46974" lon="-1.81923">
        <ele>60.470927</ele>
        <time>2023-05-06T17:45:32.029Z</time>
      </trkpt>
      <trkpt lat="47.46973" lon="-1.81908">
        <ele>60.432651</ele>
        <time>2023-05-06T17:45:35.024Z</time>
      </trkpt>
      <trkpt lat="47.46973" lon="-1.81894">
        <ele>60.39424</ele>
        <time>2023-05-06T17:45:38.027Z</time>
      </trkpt>
      <trkpt lat="47.46974" lon="-1.81879">
        <ele>60.352414</ele>
        <time>2023-05-06T17:45:41.022Z</time>
      </trkpt>
      <trkpt lat="47.46974" lon="-1.81863">
        <ele>60.310232</ele>
        <time>2023-05-06T17:45:44.023Z</time>
      </trkpt>
      <trkpt lat="47.46975" lon="-1.81847">
        <ele>60.268748</ele>
        <time>2023-05-06T17:45:47.021Z</time>
      </trkpt>
      <trkpt lat="47.46977" lon="-1.81833">
        <ele>60.228769</ele>
        <time>2023-05-06T17:45:50.027Z</time>
      </trkpt>
      <trkpt lat="47.46979" lon="-1.81819">
        <ele>60.191721</ele>
        <time>2023-05-06T17:45:53.027Z</time>
      </trkpt>
      <trkpt lat="47.46981" lon="-1.81806">
        <ele>60.154822</ele>
        <time>2023-05-06T17:45:56.027Z</time>
      </trkpt>
      <trkpt lat="47.46985" lon="-1.81792">
        <ele>60.114007</ele>
        <time>2023-05-06T17:45:59.025Z</time>
      </trkpt>
      <trkpt lat="47.46988" lon="-1.81779">
        <ele>60.077134</ele>
        <time>2023-05-06T17:46:02.028Z</time>
      </trkpt>
      <trkpt lat="47.46991" lon="-1.81765">
        <ele>60.036396</ele>
        <time>2023-05-06T17:46:05.028Z</time>
      </trkpt>
      <trkpt lat="47.46995" lon="-1.8175">
        <ele>59.993678</ele>
        <time>2023-05-06T17:46:08.026Z</time>
      </trkpt>
      <trkpt lat="47.46999" lon="-1.81735">
        <ele>59.961485</ele>
        <time>2023-05-06T17:46:11.024Z</time>
      </trkpt>
      <trkpt lat="47.47003" lon="-1.81722">
        <ele>59.944747</ele>
        <time>2023-05-06T17:46:14.030Z</time>
      </trkpt>
      <trkpt lat="47.47008" lon="-1.81708">
        <ele>59.924632</ele>
        <time>2023-05-06T17:46:17.031Z</time>
      </trkpt>
      <trkpt lat="47.47013" lon="-1.81693">
        <ele>59.904849</ele>
        <time>2023-05-06T17:46:20.032Z</time>
      </trkpt>
      <trkpt lat="47.47017" lon="-1.81677">
        <ele>59.884426</ele>
        <time>2023-05-06T17:46:23.032Z</time>
      </trkpt>
      <trkpt lat="47.4702" lon="-1.8166">
        <ele>59.86348</ele>
        <time>2023-05-06T17:46:26.026Z</time>
      </trkpt>
      <trkpt lat="47.47023" lon="-1.81646">
        <ele>59.846606</ele>
        <time>2023-05-06T17:46:29.028Z</time>
      </trkpt>
      <trkpt lat="47.47024" lon="-1.81632">
        <ele>59.829426</ele>
        <time>2023-05-06T17:46:32.023Z</time>
      </trkpt>
      <trkpt lat="47.47024" lon="-1.81619">
        <ele>59.813486</ele>
        <time>2023-05-06T17:46:35.022Z</time>
      </trkpt>
      <trkpt lat="47.47025" lon="-1.81605">
        <ele>59.796691</ele>
        <time>2023-05-06T17:46:38.026Z</time>
      </trkpt>
      <trkpt lat="47.47027" lon="-1.81588">
        <ele>59.776235</ele>
        <time>2023-05-06T17:46:41.025Z</time>
      </trkpt>
      <trkpt lat="47.47028" lon="-1.81572">
        <ele>59.757027</ele>
        <time>2023-05-06T17:46:44.026Z</time>
      </trkpt>
      <trkpt lat="47.47029" lon="-1.81558">
        <ele>59.740606</ele>
        <time>2023-05-06T17:46:47.032Z</time>
      </trkpt>
      <trkpt lat="47.4703" lon="-1.81544">
        <ele>59.723751</ele>
        <time>2023-05-06T17:46:50.026Z</time>
      </trkpt>
      <trkpt lat="47.47029" lon="-1.81529">
        <ele>59.705869</ele>
        <time>2023-05-06T17:46:53.029Z</time>
      </trkpt>
      <trkpt lat="47.4703" lon="-1.81516">
        <ele>59.689352</ele>
        <time>2023-05-06T17:46:56.027Z</time>
      </trkpt>
      <trkpt lat="47.4703" lon="-1.815">
        <ele>59.670791</ele>
        <time>2023-05-06T17:46:59.019Z</time>
      </trkpt>
      <trkpt lat="47.4703" lon="-1.81485">
        <ele>59.652705</ele>
        <time>2023-05-06T17:47:02.028Z</time>
      </trkpt>
      <trkpt lat="47.47029" lon="-1.8147">
        <ele>59.818857</ele>
        <time>2023-05-06T17:47:05.031Z</time>
      </trkpt>
      <trkpt lat="47.47029" lon="-1.81456">
        <ele>59.992137</ele>
        <time>2023-05-06T17:47:08.025Z</time>
      </trkpt>
      <trkpt lat="47.47027" lon="-1.81438">
        <ele>60.215385</ele>
        <time>2023-05-06T17:47:12.025Z</time>
      </trkpt>
      <trkpt lat="47.47028" lon="-1.81423">
        <ele>60.397195</ele>
        <time>2023-05-06T17:47:15.023Z</time>
      </trkpt>
      <trkpt lat="47.47027" lon="-1.81408">
        <ele>60.585837</ele>
        <time>2023-05-06T17:47:18.010Z</time>
      </trkpt>
      <trkpt lat="47.47026" lon="-1.81392">
        <ele>60.782927</ele>
        <time>2023-05-06T17:47:21.018Z</time>
      </trkpt>
      <trkpt lat="47.47025" lon="-1.81376">
        <ele>60.983568</ele>
        <time>2023-05-06T17:47:24.020Z</time>
      </trkpt>
      <trkpt lat="47.47025" lon="-1.8136">
        <ele>61.177577</ele>
        <time>2023-05-06T17:47:27.021Z</time>
      </trkpt>
      <trkpt lat="47.47025" lon="-1.81345">
        <ele>61.362899</ele>
        <time>2023-05-06T17:47:30.021Z</time>
      </trkpt>
      <trkpt lat="47.47024" lon="-1.81331">
        <ele>61.534338</ele>
        <time>2023-05-06T17:47:34.023Z</time>
      </trkpt>
      <trkpt lat="47.47022" lon="-1.81317">
        <ele>61.711342</ele>
        <time>2023-05-06T17:48:12.025Z</time>
      </trkpt>
      <trkpt lat="47.47022" lon="-1.81301">
        <ele>61.910752</ele>
        <time>2023-05-06T17:48:18.026Z</time>
      </trkpt>
      <trkpt lat="47.47052" lon="-1.76745">
        <ele>72.815373</ele>
        <time>2023-05-06T18:05:16.039Z</time>
      </trkpt>
      <trkpt lat="47.47043" lon="-1.76745">
        <ele>72.441766</ele>
        <time>2023-05-06T18:05:39.019Z</time>
      </trkpt>
      <trkpt lat="47.47034" lon="-1.76753">
        <ele>72.01767</ele>
        <time>2023-05-06T18:05:44.018Z</time>
      </trkpt>
      <trkpt lat="47.47026" lon="-1.76761">
        <ele>71.649481</ele>
        <time>2023-05-06T18:05:48.014Z</time>
      </trkpt>
      <trkpt lat="47.47019" lon="-1.76771">
        <ele>71.206424</ele>
        <time>2023-05-06T18:05:53.014Z</time>
      </trkpt>
      <trkpt lat="47.47008" lon="-1.76778">
        <ele>70.575401</ele>
        <time>2023-05-06T18:07:15.037Z</time>
      </trkpt>
      <trkpt lat="47.46998" lon="-1.76786">
        <ele>69.959577</ele>
        <time>2023-05-06T18:07:18.029Z</time>
      </trkpt>
      <trkpt lat="47.4699" lon="-1.76792">
        <ele>69.469452</ele>
        <time>2023-05-06T18:07:20.032Z</time>
      </trkpt>
      <trkpt lat="47.46982" lon="-1.76799">
        <ele>68.97512</ele>
        <time>2023-05-06T18:07:22.026Z</time>
      </trkpt>
      <trkpt lat="47.46972" lon="-1.76803">
        <ele>68.454426</ele>
        <time>2023-05-06T18:07:24.036Z</time>
      </trkpt>
      <trkpt lat="47.46963" lon="-1.76808">
        <ele>67.919228</ele>
        <time>2023-05-06T18:07:26.032Z</time>
      </trkpt>
      <trkpt lat="47.46951" lon="-1.76814">
        <ele>67.290957</ele>
        <time>2023-05-06T18:07:28.024Z</time>
      </trkpt>
      <trkpt lat="47.46939" lon="-1.76819">
        <ele>66.635623</ele>
        <time>2023-05-06T18:07:30.030Z</time>
      </trkpt>
      <trkpt lat="47.46927" lon="-1.76823">
        <ele>65.972419</ele>
        <time>2023-05-06T18:07:32.040Z</time>
      </trkpt>
      <trkpt lat="47.46916" lon="-1.76828">
        <ele>65.375803</ele>
        <time>2023-05-06T18:07:34.047Z</time>
      </trkpt>
      <trkpt lat="47.46906" lon="-1.76832">
        <ele>64.8006</ele>
        <time>2023-05-06T18:07:36.037Z</time>
      </trkpt>
      <trkpt lat="47.46896" lon="-1.76836">
        <ele>64.23742</ele>
        <time>2023-05-06T18:07:38.030Z</time>
      </trkpt>
      <trkpt lat="47.46886" lon="-1.7684">
        <ele>63.694698</ele>
        <time>2023-05-06T18:07:40.039Z</time>
      </trkpt>
      <trkpt lat="47.46876" lon="-1.76844">
        <ele>63.183188</ele>
        <time>2023-05-06T18:07:42.031Z</time>
      </trkpt>
      <trkpt lat="47.46868" lon="-1.76847">
        <ele>62.701919</ele>
        <time>2023-05-06T18:07:44.034Z</time>
      </trkpt>
      <trkpt lat="47.46856" lon="-1.76852">
        <ele>62.060082</ele>
        <time>2023-05-06T18:07:47.033Z</time>
      </trkpt>
      <trkpt lat="47.46844" lon="-1.76856">
        <ele>61.960544</ele>
        <time>2023-05-06T18:07:50.032Z</time>
      </trkpt>
      <trkpt lat="47.46834" lon="-1.76861">
        <ele>61.960544</ele>
        <time>2023-05-06T18:07:53.030Z</time>
      </trkpt>
      <trkpt lat="47.46825" lon="-1.76866">
        <ele>61.960544</ele>
        <time>2023-05-06T18:07:56.027Z</time>
      </trkpt>
      <trkpt lat="47.46815" lon="-1.7687">
        <ele>61.960544</ele>
        <time>2023-05-06T18:08:00.036Z</time>
      </trkpt>
      <trkpt lat="47.46805" lon="-1.76871">
        <ele>61.960544</ele>
        <time>2023-05-06T18:08:06.040Z</time>
      </trkpt>
      <trkpt lat="47.468" lon="-1.76859">
        <ele>61.960544</ele>
        <time>2023-05-06T18:08:10.030Z</time>
      </trkpt>
      <trkpt lat="47.46794" lon="-1.76844">
        <ele>61.960544</ele>
        <time>2023-05-06T18:08:14.031Z</time>
      </trkpt>
      <trkpt lat="47.4679" lon="-1.76832">
        <ele>61.960544</ele>
        <time>2023-05-06T18:08:18.031Z</time>
      </trkpt>
      <trkpt lat="47.46786" lon="-1.76816">
        <ele>61.960544</ele>
        <time>2023-05-06T18:08:23.036Z</time>
      </trkpt>
      <trkpt lat="47.46782" lon="-1.76802">
        <ele>61.960544</ele>
        <time>2023-05-06T18:08:28.028Z</time>
      </trkpt>
      <trkpt lat="47.46779" lon="-1.76789">
        <ele>61.960544</ele>
        <time>2023-05-06T18:08:32.040Z</time>
      </trkpt>
      <trkpt lat="47.46783" lon="-1.76774">
        <ele>61.960544</ele>
        <time>2023-05-06T18:08:37.033Z</time>
      </trkpt>
      <trkpt lat="47.46791" lon="-1.76768">
        <ele>61.960544</ele>
        <time>2023-05-06T18:08:59.031Z</time>
      </trkpt>
      <trkpt lat="47.46798" lon="-1.76759">
        <ele>61.960544</ele>
        <time>2023-05-06T18:09:10.044Z</time>
      </trkpt>
      <trkpt lat="47.46804" lon="-1.76748">
        <ele>61.960544</ele>
        <time>2023-05-06T18:09:33.037Z</time>
      </trkpt>
      <trkpt lat="47.46808" lon="-1.76735">
        <ele>61.960544</ele>
        <time>2023-05-06T18:13:19.033Z</time>
      </trkpt>
      <trkpt lat="47.4681" lon="-1.76721">
        <ele>61.960544</ele>
        <time>2023-05-06T18:13:56.037Z</time>
      </trkpt>
      <trkpt lat="47.46797" lon="-1.76723">
        <ele>61.960544</ele>
        <time>2023-05-06T18:16:35.047Z</time>
      </trkpt>
      <trkpt lat="47.46806" lon="-1.76728">
        <ele>61.960544</ele>
        <time>2023-05-06T18:17:16.024Z</time>
      </trkpt>
      <trkpt lat="47.46809" lon="-1.76722">
        <ele>61.960544</ele>
        <time>2023-05-06T18:18:51.822Z</time>
      </trkpt>
    </trkseg>
  </trk>
</gpx>